[[{"header":{"parameterUnit":"m.s-1","parameterCategory":1,"la1":30.6,"la2":29.2853,"lo1":-89.7004,"lo2":-87.6739,"dx":0.0162,"dy":0.0183,"nx":112,"ny":82,"refTime":"2023-01-05T18:00:00:Z","depth":0,"parameterNumber":2,"parameterNumberName":"U-component_of_WINDS"},"data":[0.0,0.0,0.0,0.0,0.0,0.0,0.0,0.0,0.0,0.0,0.0,0.0,0.0,0.0,0.0,0.0,0.0,0.0,0.0,0.0,0.0,0.0,0.0,0.0,0.0,0.0,0.0,0.0,0.0,0.0,0.0,0.0,0.0,0.0,0.0,0.0,0.0,0.0,0.0,0.0,0.0,0.0,0.0,0.0,0.0,0.0,0.0,0.0,0.0,0.0,0.0,0.0,0.0,0.0,0.0,0.0,0.0,0.0,0.0,0.0,0.0,0.0,0.0,0.0,0.0,0.0,0.0,0.0,0.0,0.0,0.0,0.0,0.0,0.0,0.0,0.0,0.0,0.0,0.0,0.0,0.0,0.0,0.0,0.0,0.0,0.0,0.0,0.0,0.0,0.0,1.5753,2.0005,2.4067,2.6716,2.7344,2.5319,2.277,1.997,0.0,0.0,0.0,0.0,0.0,0.0,0.0,0.0,0.0,0.0,0.0,0.0,0.0,0.0,0.0,0.0,0.0,0.0,0.0,0.0,0.0,0.0,0.0,0.0,0.0,0.0,0.0,0.0,0.0,0.0,0.0,0.0,0.0,0.0,0.0,0.0,0.0,0.0,0.0,0.0,0.0,0.0,0.0,0.0,0.0,0.0,0.0,0.0,0.0,0.0,0.0,0.0,0.0,0.0,0.0,0.0,0.0,0.0,0.0,0.0,0.0,0.0,0.0,0.0,0.0,0.0,0.0,0.0,0.0,0.0,0.0,0.0,0.0,0.0,0.0,0.0,0.0,0.0,0.0,0.0,0.0,0.0,0.0,0.0,0.0,0.0,0.0,0.0,0.0,0.0,0.0,0.0,0.0,0.0,0.0,0.0,0.0,0.0,0.0,0.0,0.0,0.0,0.0,0.0,1.7606,2.3391,2.5511,2.6866,2.7896,2.5963,2.3641,2.1281,0.0,0.0,0.0,0.0,0.0,0.0,0.0,0.0,0.0,0.0,0.0,0.0,0.0,0.0,0.0,0.0,0.0,0.0,0.0,0.0,0.0,0.0,0.0,0.0,0.0,0.0,0.0,0.0,0.0,0.0,0.0,0.0,0.0,0.0,0.0,0.0,0.0,0.0,0.0,0.0,0.0,0.0,0.0,0.0,0.0,0.0,0.0,0.0,0.0,0.0,0.0,0.0,0.0,0.0,0.0,0.0,0.0,0.0,0.0,0.0,0.0,0.0,0.0,0.0,0.0,0.0,0.0,0.0,0.0,0.0,0.0,0.0,0.0,0.0,0.0,0.0,0.0,0.0,0.0,0.0,0.0,0.0,0.0,0.0,0.0,0.0,0.0,0.0,0.0,0.0,0.0,0.0,0.0,0.0,0.0,0.0,0.0,0.0,0.0,0.0,0.0,0.0,0.0,1.7419,2.1401,2.582,2.7567,2.8774,2.9474,2.7455,2.5078,2.2606,1.7815,0.0,0.0,0.0,0.0,0.0,0.0,0.0,0.0,0.0,0.0,0.0,0.0,0.0,0.0,0.0,0.0,0.0,0.0,0.0,0.0,0.0,0.0,0.0,0.0,0.0,0.0,0.0,0.0,0.0,0.0,0.0,0.0,0.0,0.0,0.0,0.0,0.0,0.0,0.0,0.0,0.0,0.0,0.0,0.0,0.0,0.0,0.0,0.0,0.0,0.0,0.0,0.0,0.0,0.0,0.0,0.0,0.0,0.0,0.0,0.0,0.0,0.0,0.0,0.0,0.0,0.0,0.0,0.0,0.0,0.0,0.0,0.0,0.0,0.0,0.0,0.0,0.0,0.0,0.0,0.0,0.0,0.0,0.0,0.0,0.0,0.0,0.0,0.0,0.0,0.0,0.0,0.0,0.0,0.0,0.0,0.0,0.0,0.0,0.0,0.0,0.0,0.0,2.0677,2.4334,2.7275,2.9206,3.0393,3.0846,2.8786,2.6298,2.3662,1.9204,0.0,0.0,0.0,0.0,0.0,0.0,0.0,0.0,0.0,0.0,0.0,0.0,0.0,0.0,0.0,0.0,0.0,0.0,0.0,0.0,0.0,0.0,0.0,0.0,0.0,0.0,0.0,0.0,0.0,0.0,0.0,0.0,0.0,0.0,0.0,0.0,0.0,0.0,0.0,0.0,0.0,0.0,0.0,0.0,0.0,0.0,0.0,0.0,0.0,0.0,0.0,0.0,0.0,0.0,0.0,0.0,0.0,0.0,0.0,0.0,0.0,0.0,0.0,0.0,0.0,0.0,0.0,0.0,0.0,0.0,0.0,0.0,0.0,0.0,0.0,0.0,0.0,0.0,0.0,0.0,0.0,0.0,0.0,0.0,0.0,0.0,0.0,0.0,0.0,0.0,0.0,0.0,0.0,0.0,0.0,0.0,0.0,0.0,0.0,0.0,0.0,0.0,2.0927,2.4601,2.7668,2.9598,3.0876,3.1389,2.9178,2.6722,2.4262,1.9568,0.0,0.0,0.0,0.0,0.0,0.0,0.0,0.0,0.0,0.0,0.0,0.0,0.0,0.0,0.0,0.0,0.0,0.0,0.0,0.0,0.0,0.0,0.0,0.0,0.0,0.0,0.0,0.0,0.0,0.0,0.0,0.0,0.0,0.0,0.0,0.0,0.0,0.0,0.0,0.0,0.0,0.0,0.0,0.0,0.0,0.0,0.0,0.0,0.0,0.0,0.0,0.0,0.0,0.0,0.0,0.0,0.0,0.0,0.0,0.0,0.0,0.0,0.0,0.0,0.0,0.0,0.0,0.0,0.0,0.0,0.0,0.0,0.0,0.0,0.0,0.0,0.0,0.0,0.0,0.0,0.0,0.0,0.0,0.0,0.0,0.0,0.0,0.0,0.0,0.0,0.0,0.0,0.0,0.0,0.0,0.0,0.0,0.0,0.0,0.0,0.0,0.0,2.283,2.6682,2.9589,3.1511,3.2611,3.2577,3.0239,2.7577,2.4753,0.0,0.0,0.0,0.0,0.0,0.0,0.0,0.0,0.0,0.0,0.0,0.0,0.0,0.0,0.0,0.0,0.0,0.0,0.0,0.0,0.0,0.0,0.0,0.0,0.0,0.0,0.0,0.0,0.0,0.0,0.0,0.0,0.0,0.0,0.0,0.0,0.0,0.0,0.0,0.0,0.0,0.0,0.0,0.0,0.0,0.0,0.0,0.0,0.0,0.0,0.0,0.0,0.0,0.0,0.0,0.0,0.0,0.0,0.0,0.0,0.0,0.0,0.0,0.0,0.0,0.0,0.0,0.0,0.0,0.0,0.0,0.0,0.0,0.0,0.0,0.0,0.0,0.0,0.0,0.0,0.0,0.0,0.0,0.0,0.0,0.0,0.0,0.0,0.0,0.0,0.0,0.0,0.0,0.0,0.0,0.0,0.0,0.0,0.0,0.0,0.0,0.0,1.9517,2.4081,2.8138,3.1123,3.3197,3.4266,3.4285,3.1782,2.8904,2.5654,0.0,0.0,0.0,0.0,0.0,0.0,0.0,0.0,0.0,0.0,0.0,0.0,0.0,0.0,0.0,0.0,0.0,0.0,0.0,0.0,0.0,0.0,0.0,0.0,0.0,0.0,0.0,0.0,0.0,0.0,0.0,0.0,0.0,0.0,0.0,0.0,0.0,0.0,0.0,0.0,0.0,0.0,0.0,0.0,0.0,0.0,0.0,0.0,0.0,0.0,0.0,0.0,0.0,0.0,0.0,0.0,0.0,0.0,0.0,0.0,0.0,0.0,0.0,0.0,0.0,0.0,0.0,0.0,0.0,0.0,0.0,0.0,0.0,0.0,0.0,0.0,0.0,0.0,0.0,0.0,0.0,0.0,0.0,0.0,0.0,0.0,0.0,0.0,0.0,0.0,0.0,0.0,0.0,0.0,0.0,0.0,0.0,0.0,0.0,0.0,0.0,0.0,1.9948,2.444,2.8598,3.2135,3.4292,3.5689,3.6328,3.3763,3.0625,0.0,0.0,0.0,0.0,0.0,0.0,0.0,0.0,0.0,0.0,0.0,0.0,0.0,0.0,0.0,0.0,0.0,0.0,0.0,0.0,0.0,0.0,0.0,0.0,0.0,0.0,0.0,0.0,0.0,0.0,0.0,0.0,0.0,0.0,0.0,0.0,0.0,0.0,0.0,0.0,0.0,0.0,0.0,0.0,0.0,0.0,0.0,0.0,0.0,0.0,0.0,0.0,0.0,0.0,0.0,0.0,0.0,0.0,0.0,0.0,0.0,0.0,0.0,0.0,0.0,0.0,0.0,0.0,0.0,0.0,0.0,0.0,0.0,0.0,0.0,0.0,0.0,0.0,0.0,0.0,0.0,0.0,0.0,0.0,0.0,0.0,0.0,0.0,0.0,0.0,0.0,0.0,0.0,0.0,0.0,0.0,0.0,0.0,0.0,0.0,0.0,0.0,0.0,2.4208,2.7041,2.9929,3.4184,3.5585,3.6408,3.6891,3.4706,3.1724,2.8111,0.0,0.0,0.0,0.0,0.0,0.0,0.0,0.0,0.0,0.0,0.0,0.0,0.0,0.0,0.0,0.0,0.0,0.0,0.0,0.0,0.0,0.0,0.0,0.0,0.0,0.0,0.0,0.0,0.0,0.0,0.0,0.0,0.0,0.0,0.0,0.0,0.0,0.0,0.0,0.0,0.0,0.0,0.0,0.0,0.0,0.0,0.0,0.0,0.0,0.0,0.0,0.0,0.0,0.0,0.0,0.0,0.0,0.0,0.0,0.0,0.0,0.0,0.0,0.0,0.0,0.0,0.0,0.0,0.0,0.0,0.0,0.0,0.0,0.0,0.0,0.0,0.0,0.0,0.0,0.0,0.0,0.0,0.0,0.0,0.0,0.0,0.0,0.0,0.0,0.0,0.0,0.0,0.0,0.0,0.0,0.0,0.0,0.0,0.0,0.0,0.0,0.0,2.4821,2.7823,3.0925,3.5394,3.6716,3.7455,3.8042,3.6319,3.3598,2.9928,0.0,0.0,0.0,0.0,0.0,0.0,0.0,0.0,0.0,0.0,0.0,0.0,0.0,0.0,0.0,0.0,0.0,0.0,0.0,0.0,0.0,0.0,0.0,0.0,0.0,0.0,0.0,0.0,0.0,0.0,0.0,0.0,0.0,0.0,0.0,0.0,0.0,0.0,0.0,0.0,0.0,0.0,0.0,0.0,0.0,0.0,0.0,0.0,0.0,0.0,0.0,0.0,0.0,0.0,0.0,0.0,0.0,0.0,0.0,0.0,0.0,0.0,0.0,0.0,0.0,0.0,0.0,0.0,0.0,0.0,0.0,0.0,0.0,0.0,0.0,0.0,0.0,0.0,0.0,0.0,0.0,0.0,0.0,0.0,0.0,0.0,0.0,0.0,0.0,0.0,0.0,0.0,0.0,0.0,0.0,0.0,0.0,0.0,0.0,0.0,0.0,0.0,2.3178,2.7477,3.1662,3.6081,3.7734,3.8751,3.9439,3.8251,3.5993,3.2423,0.0,0.0,0.0,0.0,0.0,0.0,0.0,0.0,0.0,0.0,0.0,0.0,0.0,0.0,0.0,0.0,0.0,0.0,0.0,0.0,0.0,0.0,0.0,0.0,0.0,0.0,0.0,0.0,0.0,0.0,0.0,0.0,0.0,0.0,0.0,0.0,0.0,0.0,0.0,0.0,0.0,0.0,0.0,0.0,0.0,0.0,0.0,0.0,0.0,0.0,0.0,0.0,0.0,0.0,0.0,0.0,0.0,0.0,0.0,0.0,1.6153,1.4004,0.0,0.0,0.0,0.0,0.0,0.0,0.0,0.0,0.0,0.0,0.0,0.0,0.0,0.0,0.0,0.0,0.0,0.0,0.0,0.0,0.0,0.0,0.0,0.0,0.0,0.0,0.0,0.0,0.0,0.0,0.0,0.0,0.0,0.0,0.0,0.0,0.0,0.0,0.0,0.0,2.3891,2.8203,3.2402,3.6709,3.8422,3.9469,4.0127,3.9771,3.8288,3.5363,3.1691,0.0,0.0,0.0,0.0,0.0,0.0,0.0,0.0,0.0,0.0,0.0,0.0,0.0,0.0,0.0,0.0,0.0,0.0,0.0,0.0,0.0,0.0,0.0,0.0,0.0,0.0,0.0,0.0,0.0,0.0,0.0,0.0,0.0,0.0,0.0,0.0,0.0,0.0,0.0,0.0,0.0,0.0,0.0,0.0,0.0,0.0,0.0,0.0,0.0,0.0,0.0,0.0,0.0,0.0,0.0,0.0,0.0,0.0,0.0,1.9246,1.6967,0.0,0.0,0.0,0.0,0.0,0.0,0.0,0.0,0.0,0.0,0.0,0.0,0.0,0.0,0.0,0.0,0.0,0.0,0.0,0.0,0.0,0.0,0.0,0.0,0.0,0.0,0.0,0.0,0.0,0.0,0.0,0.0,0.0,0.0,0.0,0.0,0.0,0.0,0.0,0.0,2.4578,2.8931,3.2933,3.6948,3.8901,4.0038,4.0367,4.0592,3.9861,3.7723,3.4747,0.0,0.0,0.0,0.0,0.0,0.0,0.0,0.0,0.0,0.0,0.0,0.0,0.0,0.0,0.0,0.0,0.0,0.0,0.0,0.0,0.0,0.0,0.0,0.0,0.0,0.0,0.0,0.0,0.0,0.0,0.0,0.0,0.0,0.0,0.0,0.0,0.0,0.0,0.0,0.0,0.0,0.0,0.0,0.0,0.0,0.0,0.0,0.0,0.0,0.0,0.0,0.0,0.0,2.1255,2.2054,2.2918,2.4418,2.5586,2.6112,2.1909,2.0198,2.0198,1.7677,0.0,0.0,0.0,0.0,0.0,0.0,0.0,0.0,0.0,0.0,0.0,0.0,0.0,0.0,0.0,0.0,0.0,0.0,0.0,0.0,0.0,0.0,1.8508,1.9359,2.0656,2.0744,1.7206,0.0,0.0,0.0,0.0,0.0,0.0,0.0,0.0,0.0,0.0,0.0,2.5491,2.9809,3.3617,3.7007,3.929,4.0576,4.0576,4.1294,4.1205,3.9861,3.7506,3.4698,0.0,0.0,0.0,0.0,0.0,0.0,0.0,0.0,0.0,0.0,0.0,0.0,0.0,0.0,0.0,0.0,0.0,0.0,0.0,0.0,0.0,0.0,0.0,0.0,0.0,0.0,0.0,0.0,0.0,0.0,0.0,0.0,1.8312,1.6278,0.0,0.0,0.0,0.0,0.0,0.0,0.0,0.0,0.0,0.0,0.0,0.0,0.0,2.0737,2.2682,2.2772,2.3221,2.3925,2.4088,2.4477,2.5182,2.5408,2.5905,2.6507,2.5841,0.0,2.2981,2.1436,0.0,0.0,0.0,0.0,0.0,0.0,0.0,0.0,0.0,0.0,0.0,0.0,0.0,0.0,0.0,0.0,0.0,0.0,0.0,0.0,0.0,0.0,2.5713,2.5088,2.5737,2.6198,2.5099,2.1159,1.7596,1.6822,1.5556,1.4199,0.0,0.0,0.0,0.0,0.0,0.0,2.7026,3.1427,3.4847,3.7195,3.9709,4.1265,4.1265,4.2372,4.2761,4.2013,4.0576,3.8471,3.5591,3.1368,0.0,0.0,0.0,0.0,0.0,0.0,0.0,0.0,0.0,0.0,0.0,0.0,0.0,0.0,0.0,0.0,0.0,0.0,0.0,0.0,0.0,0.0,0.0,0.0,0.0,0.0,0.0,0.0,0.0,1.7501,1.9686,1.9177,1.7603,1.6219,0.0,0.0,0.0,0.0,0.0,0.0,0.0,0.0,0.0,2.2334,2.2323,2.3101,2.4717,2.5106,2.5435,2.5734,2.6093,2.6422,2.6722,2.6722,2.6871,2.7141,2.7141,2.6632,2.5704,2.394,2.1932,1.976,0.0,0.0,0.0,0.0,1.6277,1.7836,1.7262,1.7684,1.826,1.6837,0.0,0.0,0.0,0.0,0.0,0.0,0.0,1.5927,2.0395,2.6015,3.0103,2.8629,2.8985,2.9635,2.9337,2.6892,2.3956,2.1256,1.9797,1.86,1.7193,1.6279,0.0,0.0,0.0,2.4352,2.8685,3.2524,3.5538,3.7225,3.9798,4.1384,4.1384,4.2581,4.321,4.291,4.2013,4.0666,3.868,3.5026,3.1013,0.0,0.0,0.0,0.0,0.0,0.0,0.0,0.0,0.0,0.0,0.0,0.0,0.0,0.0,0.0,0.0,0.0,0.0,0.0,0.0,0.0,0.0,0.0,0.0,0.0,0.0,0.0,0.0,1.8406,2.0361,2.11,1.9476,1.8242,0.0,0.0,0.0,0.0,0.0,0.0,2.284,2.3795,2.4328,2.4372,2.4358,2.4926,2.6093,2.6782,2.7111,2.7111,2.7769,2.8008,2.7829,2.7829,2.7739,2.761,2.761,2.761,2.744,2.5747,2.4358,2.3135,2.106,1.9941,1.9471,1.8929,1.9826,2.122,2.0784,2.1857,2.33,2.256,2.2253,2.2141,2.147,0.0,0.0,0.0,0.0,2.2717,2.774,3.1539,3.3737,3.227,3.2375,3.2766,3.2587,3.1779,2.9869,2.5705,2.3952,2.2761,2.1608,2.0645,0.0,2.2236,2.4382,2.7107,3.0746,3.3806,3.6104,3.7524,3.9738,4.1115,4.1115,4.2192,4.2821,4.2821,4.2521,4.1863,4.0696,3.7874,3.4575,3.0896,0.0,0.0,0.0,0.0,0.0,0.0,0.0,0.0,0.0,0.0,0.0,0.0,0.0,0.0,0.0,0.0,0.0,0.0,0.0,0.0,0.0,0.0,0.0,0.0,0.0,0.0,0.0,0.0,0.0,2.1594,2.1545,0.0,0.0,0.0,0.0,2.4406,2.5026,2.506,2.4537,2.5559,2.623,2.6422,2.6452,2.6782,2.752,2.8158,2.8487,2.8517,2.9175,2.9146,2.8547,2.8547,2.8188,2.761,2.761,2.761,2.755,2.6782,2.6093,2.5222,2.302,2.2144,2.2071,2.1647,2.2337,2.3822,2.6236,2.7224,2.7703,3.0111,3.0887,3.0416,2.795,2.4866,0.0,0.0,2.5992,3.0784,3.4178,3.61,3.7184,3.7048,3.6627,3.6058,3.5429,3.525,3.4023,3.0043,2.7637,2.602,2.529,0.0,2.4599,2.6491,2.7558,2.9584,3.3597,3.5484,3.6926,3.8212,3.9619,4.0457,4.0457,4.1085,4.1474,4.1474,4.2043,4.2043,4.1354,3.9801,3.7961,3.5815,3.0895,0.0,0.0,0.0,0.0,0.0,0.0,0.0,0.0,0.0,0.0,0.0,0.0,0.0,0.0,0.0,0.0,0.0,0.0,0.0,0.0,0.0,0.0,0.0,0.0,0.0,0.0,0.0,0.0,2.2293,2.2682,0.0,2.2694,2.2664,2.3269,2.4646,2.5681,2.6334,2.6531,2.7319,2.7981,2.8487,2.8517,2.8637,2.8846,2.9116,2.9235,2.9235,2.9056,2.8816,2.8577,2.8128,2.785,2.761,2.761,2.761,2.756,2.7327,2.7128,2.687,2.6988,2.6996,2.6996,2.6843,2.7055,2.7478,2.7594,2.8713,3.0543,3.3233,3.4053,3.3904,3.2989,3.1893,3.0979,3.1013,3.2338,3.4041,3.5186,3.6432,3.7654,3.8482,3.7835,3.7015,3.6776,3.6417,3.5729,3.4292,3.2706,3.1306,3.0565,2.9799,2.9566,3.0359,3.107,3.2377,3.4797,3.6267,3.7404,3.8302,3.9589,4.0397,4.0397,4.0995,4.1384,4.1384,4.1594,4.1624,4.1384,4.0054,3.8549,3.6832,3.3221,2.9871,0.0,0.0,0.0,0.0,0.0,0.0,0.0,0.0,0.0,0.0,0.0,0.0,0.0,0.0,0.0,0.0,0.0,0.0,0.0,0.0,0.0,0.0,0.0,0.0,0.0,2.0917,2.3071,2.331,2.3775,2.4224,2.4597,2.4567,2.4791,2.5585,2.6632,2.747,2.7889,2.8547,2.9116,2.9564,2.9594,2.9594,2.9594,2.9774,2.9894,2.9894,2.9445,2.9146,2.8906,2.8218,2.7799,2.761,2.761,2.7569,2.7586,2.7623,2.7588,2.7681,2.8571,2.9466,3.0253,3.0231,3.0216,3.0221,3.0279,3.1392,3.3149,3.4942,3.5676,3.5768,3.5552,3.5459,3.5522,3.5523,3.5489,3.548,3.5502,3.6746,3.8266,3.9199,3.8741,3.8093,3.8093,3.7943,3.7793,3.7793,3.6141,3.4584,3.4107,3.3627,3.3357,3.3689,3.4077,3.4916,3.6297,3.7225,3.8003,3.8661,3.9529,3.9978,3.9738,4.0337,4.0606,4.0397,4.0786,4.1055,4.1055,4.0008,3.8949,3.7983,3.4682,3.1423,2.8332,0.0,0.0,0.0,0.0,0.0,0.0,0.0,0.0,0.0,0.0,0.0,0.0,0.0,0.0,0.0,0.0,0.0,0.0,0.0,0.0,0.0,0.0,0.0,2.0677,2.2443,2.3939,2.4582,2.4938,2.5485,2.6542,2.6464,2.6732,2.756,2.8218,2.8607,2.8667,2.9265,2.9624,2.9654,2.9654,2.9654,2.9654,3.0253,3.0522,3.0492,3.0492,3.0133,2.9535,2.8876,2.8218,2.764,2.759,2.7586,2.76,2.7681,2.77,2.7709,2.7709,2.9258,3.1511,3.1486,3.1545,3.202,3.4633,3.5546,3.5543,3.5524,3.5998,3.638,3.5726,3.5545,3.5615,3.5615,3.5644,3.5644,3.5644,3.7535,3.9415,3.9446,3.9474,3.9469,3.9469,3.9978,4.0427,4.0427,3.7853,3.5699,3.5699,3.5669,3.5878,3.6507,3.6596,0.0,3.8302,3.8452,3.8721,3.9409,3.9469,3.92,3.8512,3.908,3.92,3.8482,3.9709,4.0427,4.0427,3.9768,3.9409,3.9379,3.5288,3.1575,2.8253,0.0,0.0,0.0,0.0,0.0,0.0,0.0,0.0,0.0,0.0,0.0,0.0,0.0,0.0,0.0,0.0,0.0,0.0,0.0,0.0,0.0,1.9181,2.1365,2.2054,2.4238,2.5824,2.6033,2.6523,2.6971,2.729,2.726,2.756,2.8278,2.8487,2.8996,2.9924,3.0163,3.0492,3.0971,3.1001,3.1001,3.1001,3.115,3.1001,3.0492,3.0043,2.9505,2.8846,2.8158,2.8038,2.8308,2.7802,2.76,2.774,2.961,3.0458,3.0436,3.0419,3.0862,3.1511,3.1486,3.2705,3.454,3.5245,3.6094,3.6869,3.6873,3.7015,3.7135,3.6948,3.6909,3.7088,3.8069,3.8288,3.8348,3.8322,3.8883,3.9657,4.0656,4.0497,4.0277,4.0756,4.0995,4.1115,4.1115,4.0397,3.9768,3.9768,3.9379,3.911,3.929,3.8901,3.8901,3.9738,3.9858,4.0098,4.0756,4.0846,4.0576,3.9918,4.0457,4.0546,3.9888,4.0636,4.1115,4.1115,4.0008,3.9128,3.8549,3.693,3.5274,0.0,0.0,0.0,0.0,0.0,0.0,0.0,0.0,0.0,0.0,0.0,0.0,0.0,0.0,0.0,0.0,0.0,0.0,0.0,0.0,0.0,0.0,2.1784,2.367,2.4642,2.6033,2.6991,2.6991,2.735,2.761,2.761,2.794,2.8269,2.8577,2.9086,2.9714,3.0462,3.0791,3.112,3.1452,3.1482,3.1482,3.1482,3.1534,3.1174,3.0492,2.9708,2.9079,2.8577,2.8188,2.8218,2.8607,2.8509,2.8444,2.858,3.0633,3.152,3.1528,0.0,0.0,0.0,0.0,3.4173,3.5524,3.5525,3.6686,3.825,3.8266,3.7901,3.7317,3.6813,3.7367,3.8402,3.9164,4.0182,4.0903,4.0364,4.0341,4.0704,4.1489,4.1205,4.0905,4.1294,4.1594,4.1803,4.1803,4.2013,0.0,4.2192,4.1414,4.0816,4.0816,4.0487,4.0367,4.0756,4.0816,4.0965,4.1354,4.1384,4.1115,4.0457,4.0995,0.0,0.0,0.0,4.1265,4.0965,4.0247,0.0,0.0,0.0,3.7734,3.6912,3.6141,0.0,0.0,2.809,2.8306,0.0,0.0,0.0,0.0,0.0,0.0,0.0,0.0,0.0,0.0,0.0,0.0,0.0,0.0,0.0,0.0,2.4477,2.6153,2.741,2.761,2.761,2.761,2.761,2.761,2.761,2.8359,2.8862,2.8809,2.9834,3.0522,3.0612,3.121,0.0,0.0,0.0,3.1482,3.1482,3.1524,3.1132,3.0287,2.9439,2.8892,2.8607,2.8667,2.8757,2.8846,2.9385,2.9669,2.9915,3.102,3.1528,3.1482,3.1482,3.1692,3.2228,3.4634,3.5499,3.5548,3.5852,0.0,0.0,3.9429,3.8572,3.7364,3.6283,3.7546,3.9427,3.9781,4.1498,4.307,4.1923,4.1821,4.1972,4.2138,4.1836,4.1504,4.1594,4.2073,4.2462,4.2462,4.294,4.3329,4.3329,4.2372,4.1594,4.1594,4.1594,4.1594,4.1594,4.1594,4.1594,4.1594,4.1594,0.0,4.0666,4.1235,4.1324,4.0666,4.1235,4.1294,4.0636,4.0636,4.0397,3.9858,3.9858,3.9619,3.917,3.917,3.917,3.908,3.5267,3.4149,0.0,0.0,0.0,0.0,0.0,0.0,0.0,0.0,0.0,0.0,0.0,0.0,0.0,0.0,0.0,2.3789,2.5465,2.6692,2.752,2.761,2.761,2.761,2.761,2.761,2.761,2.8218,2.8989,2.984,3.0248,3.0761,3.13,3.1392,3.1482,3.1482,3.1482,3.1482,3.1482,3.1524,3.0744,2.9228,2.9732,0.0,2.8607,2.9146,2.9654,3.0133,2.9763,3.0179,3.1126,3.139,3.148,3.1482,3.1482,3.2824,3.4821,3.5309,3.5483,3.5818,3.7903,3.8994,3.9429,3.9395,3.92,3.8967,3.8693,3.9032,0.0,4.1956,4.2924,4.3243,4.3015,4.2516,4.2198,4.2908,4.2664,4.2312,4.2851,4.306,4.315,4.315,4.324,4.3329,4.3329,4.312,4.294,4.294,4.294,4.294,4.294,4.294,4.294,4.294,4.294,4.2701,4.2043,4.2581,4.2671,4.2013,4.2581,4.2671,4.2013,4.1983,4.2162,4.2581,4.2581,4.303,4.3958,4.3958,4.3958,4.3868,3.9817,3.8602,0.0,0.0,0.0,0.0,0.0,0.0,0.0,0.0,0.0,0.0,0.0,1.7356,1.9361,0.0,2.331,2.5285,2.6422,2.72,2.758,2.7539,2.7539,2.756,2.761,2.7679,2.7906,2.8562,2.9277,3.0082,3.0562,3.0951,3.1278,3.1307,3.1307,3.1307,3.1336,3.1336,3.1336,3.1468,3.0865,2.9525,2.9798,2.9642,2.9116,2.9744,3.0223,3.0522,3.0503,3.0947,3.1482,3.1482,3.1483,3.1485,3.1485,3.2348,3.3696,3.5027,3.5469,3.5717,3.703,3.8326,3.9404,3.9395,3.9379,3.943,3.9402,4.0278,4.1656,4.294,4.3305,4.3213,4.2954,4.2724,4.2797,4.3187,4.3049,4.294,4.3269,4.3329,4.3329,4.3329,4.3329,4.3329,4.3329,4.3329,4.3329,4.3329,4.3329,4.3329,4.3329,4.3329,4.3329,4.3329,4.3329,4.321,4.288,4.3449,4.3688,4.3359,4.3958,4.4167,4.3838,4.3838,4.3988,4.4317,4.4317,4.4646,4.5304,4.5304,4.5304,4.5244,4.319,4.2544,0.0,0.0,0.0,0.0,0.0,0.0,0.0,1.5619,1.6727,1.7354,1.9091,2.0857,2.2203,2.3805,2.5359,2.6553,2.7181,2.7488,2.7488,2.7335,2.7314,2.7586,2.7667,2.7876,2.8254,2.8971,2.954,3.0015,3.0602,3.0895,3.0895,3.0895,3.0895,3.0925,3.0955,3.1073,3.1279,3.1447,3.1144,3.038,3.0052,2.9869,2.9719,3.0347,3.0645,3.0731,3.13,3.1511,3.1483,3.1483,3.1486,3.1574,3.2109,3.2315,3.2514,3.4707,3.5514,3.5489,3.5481,3.688,3.8722,3.9224,3.9421,3.9521,3.9996,4.1611,4.3275,4.3259,4.3287,4.3223,4.2689,4.294,4.3329,4.3329,4.3329,4.3329,4.3329,4.3329,4.3329,4.3329,4.3329,4.3329,4.3329,4.3329,4.3329,4.3329,4.3329,4.3329,4.3329,4.3329,4.3329,4.3329,4.3329,4.3389,4.3509,4.4137,4.4496,4.4496,4.5005,4.5304,4.5304,4.5304,4.5364,4.5484,4.5484,4.5574,4.5693,4.5693,4.5753,4.5873,4.5873,4.5723,1.9692,1.9253,1.9106,1.8748,1.81,1.7486,0.0,1.838,1.945,2.0139,2.1814,2.358,2.4926,2.5759,2.6436,2.7179,2.7152,2.7055,2.7055,2.6922,2.6992,2.7603,2.793,2.8095,2.8302,2.9053,2.9668,2.99,3.0098,3.0266,3.0294,3.0294,3.0266,3.0211,3.0211,3.0626,3.1426,3.1485,3.1338,3.0979,3.0954,3.0689,3.0238,3.0919,3.1304,3.1362,3.1452,3.1485,3.1486,3.1486,3.1514,3.1743,3.4145,3.5057,3.5118,3.5392,3.5503,3.5514,3.5489,3.5672,3.632,3.8662,3.9421,3.9802,4.2168,4.3061,4.3301,4.3337,4.3349,4.3269,4.324,4.3269,4.3329,4.3329,4.3329,4.3329,4.3329,4.3329,4.3329,4.3329,4.3329,4.3329,4.3329,4.3329,4.3329,4.3329,4.3329,4.3329,4.3329,4.3329,4.3329,4.3329,4.3329,4.3569,4.4167,4.4796,4.5185,4.5185,4.5244,4.5304,4.5304,4.5304,4.5574,4.6202,4.6202,4.6501,4.707,4.707,4.7369,4.7938,4.7938,4.7339,2.3076,2.2385,2.2054,2.1589,2.1019,2.0574,2.0721,2.1113,2.1605,2.2263,2.334,2.4358,2.4881,2.5771,2.6476,2.6692,2.6762,2.6817,2.6712,2.6418,2.6432,2.7058,2.7371,2.7883,2.8684,2.8913,2.9192,2.9497,2.9538,2.9526,2.9554,2.9554,2.9526,2.956,2.9718,3.0102,3.0711,3.0449,3.1079,3.2367,3.1297,3.0802,3.0837,3.1131,3.1336,3.1482,3.1514,3.1486,3.1604,3.3216,3.3817,3.3931,3.5087,3.548,3.5503,3.5503,3.5529,3.5519,3.5508,3.5473,3.5957,3.856,3.9373,3.9906,4.2528,4.3275,4.3301,4.3265,4.3289,4.3329,4.3329,4.3329,4.3329,4.3329,4.3329,4.3329,4.3329,4.3329,4.3329,4.3329,4.3329,4.3329,4.3329,4.3329,4.3329,4.3329,4.3329,4.3329,4.3329,4.3329,4.3479,4.3868,4.3898,4.4167,4.4825,4.5514,4.5903,4.5903,4.6262,4.6471,4.6471,4.6471,4.6591,4.689,4.7279,4.7608,4.7878,4.8267,4.8596,4.8865,4.8865,4.8566,2.567,2.5042,2.4574,2.3815,2.3305,2.3002,2.3132,2.3088,2.3113,2.352,2.4104,2.4537,2.4537,2.5349,2.5953,2.5979,2.6,2.603,2.6068,2.591,2.5965,2.6547,2.6919,2.7522,2.8647,2.858,2.865,2.8876,2.8766,2.8638,2.8638,2.8638,2.8702,2.8766,2.9096,2.95,2.9886,2.9941,3.0807,3.2413,3.1696,3.1219,3.1032,3.1279,3.1396,3.1485,3.1516,3.19,3.2765,3.4729,3.552,3.551,3.551,3.5503,3.5519,3.5514,3.5478,3.5478,3.5478,3.5503,3.5908,3.853,3.9414,3.9713,4.1667,4.2259,4.2376,4.3136,4.3331,4.3277,4.3259,4.3289,4.3319,4.3299,4.3329,4.3329,4.3329,4.3329,4.3329,4.3329,4.3329,4.3329,4.3329,4.3479,4.3599,4.3599,4.3748,4.3748,4.3389,4.3479,4.3778,4.4257,4.4646,4.5065,4.5544,4.6202,4.6591,4.6591,4.704,4.7309,4.7309,4.7309,4.7399,4.7578,4.8027,4.8386,4.8566,4.9045,4.9374,4.9523,4.9523,4.9643,2.7535,2.7367,2.715,2.5766,2.5073,2.4592,2.4173,2.3921,2.3709,2.3653,2.4089,2.4476,2.4476,2.4634,2.4854,2.5254,2.4794,2.4532,2.4966,2.5275,2.5628,2.6249,2.6675,2.7167,2.7776,2.813,2.8195,2.8026,2.7723,2.7523,2.7523,2.7523,2.7656,2.7855,2.8317,2.889,2.9363,3.0384,3.0659,3.0336,3.2283,3.2285,3.0639,3.1247,3.1516,3.1516,3.1479,3.2966,3.5362,3.5485,3.5477,3.5489,3.5489,3.5489,3.5484,3.5525,3.5481,3.5481,3.5481,3.5497,3.5921,3.8552,3.9421,3.9387,3.9491,3.9475,4.0081,4.2637,4.329,4.3275,4.3317,4.3301,4.3283,4.3269,4.3329,4.3329,4.3329,4.3329,4.3329,4.3329,4.3329,4.3329,4.3329,4.3868,4.4287,4.4287,4.4825,4.4766,4.3509,4.3898,4.4287,4.4317,4.5484,4.6262,4.6292,4.689,4.7279,4.7279,4.7309,4.7309,4.7309,4.7309,4.7608,4.8237,4.8267,4.8596,4.9224,4.9254,4.9583,5.0212,5.0212,5.0541,2.9047,2.8835,2.8376,2.7514,2.643,2.5475,2.5049,2.4371,2.3739,2.3653,2.3374,2.3169,2.3125,2.3531,2.3835,2.3787,2.4558,2.5199,2.5271,2.5387,2.5657,2.6321,2.6362,2.6634,2.7229,2.7456,2.759,2.7523,2.7348,2.7146,2.7146,2.7146,2.7214,2.7281,2.7962,2.8525,2.9083,2.9574,3.0103,3.0717,3.1244,3.1289,3.0977,3.1307,3.1485,3.1599,3.3389,3.4691,3.5516,3.5473,3.5494,3.5519,3.5519,3.5478,3.5525,3.5481,3.6641,3.8052,3.8077,3.8121,3.8232,3.9094,3.9373,3.9414,3.9414,3.9372,3.9624,4.0502,4.0696,4.0694,4.0707,4.1352,4.2166,4.2551,4.2671,4.2791,4.324,4.3329,4.3329,4.3329,4.3329,4.3479,4.3898,4.4167,4.4466,4.4915,4.5155,4.5125,4.4706,4.4825,4.5125,4.5603,4.6052,4.6501,4.695,4.7189,4.7309,4.7309,4.7309,4.7309,4.7309,4.7728,4.8057,4.8297,4.9134,4.9703,4.9912,5.0331,5.069,5.09,5.09,5.102,2.9951,2.973,2.9372,2.8505,2.7492,2.6468,2.579,2.5006,2.4359,2.4187,2.346,2.2816,2.3009,2.3034,2.3091,2.3234,2.4088,2.4839,2.5136,2.5306,2.5535,2.5983,2.6079,2.6333,2.6782,2.6943,2.6985,2.7053,2.6943,2.6807,2.6807,2.6807,2.6909,2.7112,2.7787,2.8421,2.8984,2.946,3.0428,3.1826,3.1216,3.1054,3.127,3.2374,3.2972,3.2995,3.4715,3.5477,3.5507,3.5494,3.5519,3.5519,3.5478,3.5495,3.56,3.6514,3.7992,3.9385,3.9412,3.9395,3.9425,3.9425,3.9403,3.9409,3.9409,3.9384,3.9387,3.9387,3.9432,3.9431,3.937,4.0084,4.0845,4.1637,4.1923,4.2192,4.2851,4.3,4.306,4.3299,4.3509,4.3808,4.4257,4.4706,4.5244,4.5903,4.6022,4.5843,4.5364,4.5514,4.5843,4.6262,4.6531,4.686,4.7279,4.7309,4.7309,4.7309,4.7309,4.7429,4.7638,4.8057,4.8506,4.8985,4.9823,5.0361,5.0601,5.102,5.1229,5.1229,5.1229,5.1229,3.0237,3.0249,3.0162,2.8929,2.8306,2.764,2.6436,2.5832,2.5536,2.5308,2.4176,2.3408,2.3965,2.311,2.2603,2.3473,2.345,2.3638,2.4682,2.4979,2.5216,2.5326,2.5865,2.6283,2.6465,2.6533,2.6533,2.6645,2.6602,2.6533,2.6559,2.6559,2.6766,2.7293,2.7871,2.8398,2.8925,3.0086,3.1529,3.326,3.2227,3.1682,3.1762,3.4385,3.5516,3.5483,3.5499,3.5519,3.5519,3.5519,3.5519,3.5579,3.5555,3.557,3.603,3.8451,3.9415,3.9415,3.9415,3.9384,3.9409,3.9409,3.9409,3.9409,3.9409,3.9409,3.9409,3.9409,3.9409,3.9397,3.9372,3.9432,3.961,4.0426,4.0964,4.1474,4.2162,4.2419,4.2551,4.315,4.3868,4.4377,4.4407,4.5514,4.6591,4.7219,4.7309,4.683,4.5574,4.5963,4.6381,4.6381,4.692,4.7309,4.7309,4.7309,4.7309,4.7309,4.7339,4.7638,4.8267,4.8356,4.8985,5.0212,5.0272,5.0601,5.1229,5.1229,5.1229,5.1229,5.1229,5.1229,3.122,3.1315,3.1049,3.0381,2.9516,2.8641,2.7987,2.7158,2.6467,2.6161,2.4334,2.2859,2.32,2.1983,2.1237,2.2113,2.3097,2.4004,2.4732,2.5326,2.5783,2.5921,2.6114,2.6283,2.6465,2.6533,2.6533,2.6533,2.6533,2.664,2.7042,2.7067,2.7318,2.7871,2.8423,2.8775,2.8925,3.0537,3.2082,3.3331,3.4105,3.451,3.4475,3.5178,3.551,3.5529,3.5459,3.5519,3.5519,3.5519,3.5914,3.6394,3.5763,3.6701,3.8482,3.9134,3.9395,3.9391,3.9391,3.9421,3.9409,3.9409,3.9409,3.9409,3.9409,3.9409,3.9409,3.9409,3.9409,3.9439,3.9427,3.9384,3.9473,3.9639,3.9787,4.0263,4.1414,4.2013,4.2402,4.2581,4.3928,4.5214,4.5723,4.6501,4.71,4.7279,4.7309,4.7189,4.683,4.695,4.707,4.707,4.7219,4.7309,4.7309,4.7309,4.7309,4.7309,4.7758,4.8117,4.8267,4.9224,4.9883,5.0242,5.072,5.105,5.1229,5.1229,5.1229,5.1229,5.1229,5.1229,3.1558,3.1579,3.1351,3.0998,3.0342,2.9552,2.86,2.7772,2.6947,2.602,2.4131,2.276,2.3025,2.1861,2.1345,2.2724,2.3508,2.433,2.5253,2.5586,2.584,2.605,2.605,2.6188,2.6465,2.6533,2.6634,2.6791,2.6816,2.6942,2.7268,2.7519,2.7968,2.8596,2.8899,2.9401,3.0106,3.1282,3.2286,3.3043,3.4706,3.5478,3.5507,3.5507,3.5469,3.5519,3.5519,3.5519,3.5519,3.5818,3.6304,3.6723,3.6446,3.7575,3.9415,3.9425,3.9433,3.9409,3.9409,3.9409,3.9409,3.9409,3.9409,3.9409,3.9409,3.9409,3.9409,3.9409,3.9409,3.9409,3.9409,3.9409,3.9397,3.94,3.943,3.9668,4.0756,4.1235,4.1743,4.2611,4.4137,4.5514,4.6202,4.686,4.7309,4.7309,4.7309,4.7309,4.7309,4.7309,4.7309,4.7309,4.7309,4.7309,4.7309,4.7578,4.7728,4.7728,4.8356,4.8835,4.9134,4.9853,5.0361,5.0661,5.102,5.1229,5.1229,5.1229,5.1229,5.1229,5.1229,5.1379,3.15,3.1389,3.1274,3.1038,3.0838,3.0301,2.8708,2.7988,2.717,2.5584,2.3902,2.2806,2.3171,2.2243,2.2061,2.3979,2.4183,2.457,2.592,2.5807,2.5673,2.5955,2.598,2.6119,2.6465,2.6533,2.6691,2.7243,2.7344,2.7419,2.7494,2.7946,2.8596,2.9376,2.9476,3.0229,3.169,3.2046,3.2372,3.2812,3.4534,3.54,3.5519,3.5519,3.5519,3.5519,3.5519,3.5579,3.5824,3.6297,3.6723,3.7023,3.7278,3.8232,3.9436,3.9391,3.9409,3.9409,3.9409,3.9409,3.9409,3.9409,3.9409,3.9409,3.9409,3.9409,3.9409,3.9409,3.9409,3.9409,3.9409,3.9409,3.9409,3.9409,3.9409,3.9589,4.0157,4.0397,4.1085,4.297,4.4317,4.5394,4.6082,4.6741,4.7189,4.7189,4.7249,4.7339,4.7429,4.7429,4.7429,4.7429,4.7519,4.7578,4.7578,4.8087,4.8416,4.8416,4.9045,4.9643,5.0212,5.0331,5.0631,5.1199,5.1229,5.1229,5.1229,5.1229,5.1229,5.1229,5.1319,5.1648,3.1351,3.1312,3.1274,3.1038,3.0952,3.0556,2.9457,2.8476,2.7502,2.631,2.399,2.2415,2.3241,2.201,2.1513,2.328,2.3781,2.4382,2.546,2.5593,2.571,2.6227,2.6258,2.6258,2.6465,2.6533,2.6691,2.7243,2.7695,2.8172,2.8624,2.8874,2.9551,3.0667,3.079,3.1262,3.2273,3.2461,3.2765,3.3254,3.41,3.4935,3.5519,3.5519,3.5519,3.5519,3.5519,3.6099,3.708,3.6857,3.7263,3.8063,3.7604,3.821,3.9421,3.9409,3.9409,3.9409,3.9409,3.9409,3.9409,3.9409,3.9409,3.9409,3.9409,3.9409,3.9409,3.9409,3.9409,3.9409,3.9409,3.9409,3.9409,3.9409,3.9409,3.9439,3.9559,4.0457,4.1624,4.306,4.3958,4.4706,4.5364,4.6052,4.6501,4.6501,4.695,4.7489,4.8057,4.8117,4.8117,4.8117,4.8596,4.8925,4.8925,4.9045,4.9105,4.9105,4.9703,5.0122,5.0242,5.075,5.1109,5.1229,5.1229,5.1229,5.1229,5.1229,5.1229,5.1229,5.1768,5.2097,3.1351,3.1278,3.124,3.1117,3.0992,3.057,2.9315,2.8207,2.6945,2.5185,2.3154,2.1766,2.2044,2.1727,2.184,2.3047,2.377,2.462,2.5686,2.5563,2.575,2.6587,2.644,2.6371,2.6577,2.6533,2.6816,2.7645,2.7946,2.8348,2.9025,2.9854,3.0455,3.097,3.1379,3.1717,3.1944,3.2692,3.3225,3.3587,3.4317,3.4978,3.5519,3.5519,3.5519,3.5519,3.5519,3.622,3.7419,3.7466,3.7841,3.8392,3.843,3.8817,3.9409,3.9409,3.9409,3.9409,3.9409,3.9409,3.9409,3.9409,3.9409,3.9409,3.9409,3.9409,3.9409,3.9409,3.9409,3.9409,3.9409,3.9409,3.9409,3.9409,3.9409,3.9529,3.9858,4.0696,4.1654,4.2641,4.3629,4.4407,4.4736,4.5334,4.5783,4.5783,4.6352,4.704,4.7698,4.8386,4.8805,4.8805,4.9075,4.9254,4.9254,4.9583,4.9763,4.9763,5.0391,5.075,5.075,5.105,5.1229,5.1229,5.1229,5.1229,5.1229,5.1229,5.1379,5.1738,5.2067,5.2576,3.1355,3.1278,3.1206,3.1196,3.1072,3.0543,2.9068,2.7769,2.6213,2.3974,2.2293,2.1197,2.0983,2.1425,2.2062,2.2772,2.3644,2.4531,2.5647,2.5616,2.5844,2.6852,2.668,2.6552,2.6714,2.6703,2.7112,2.8094,2.8417,2.8867,2.9576,3.0607,3.1242,3.1189,3.1751,3.1977,3.2074,3.2926,3.3609,3.4109,3.4617,3.5109,3.5519,3.5519,3.5519,3.5519,3.5514,3.6244,3.7406,3.8069,3.8482,3.8661,3.92,3.9409,3.9409,3.9409,3.9409,3.9409,3.9409,3.9409,3.9409,3.9409,3.9409,3.9409,3.9409,3.9409,3.9409,3.9409,3.9409,3.9409,3.9409,3.9409,3.9409,3.9409,3.9529,3.9768,4.0277,4.1025,4.1743,4.2252,4.3299,4.4107,4.4107,4.4646,4.5095,4.5095,4.5783,4.6561,4.7219,4.8446,4.9314,4.9464,4.9613,4.9673,4.9673,5.0152,5.0451,5.0451,5.093,5.1229,5.1229,5.1229,5.1229,5.1229,5.1229,5.1229,5.1229,5.1229,5.1558,5.2187,5.2336,5.3054,3.1329,3.1389,3.1274,3.123,3.1112,3.0589,2.911,2.7484,2.5768,2.3947,2.2047,2.0743,2.1033,2.1198,2.1462,2.2105,2.2948,2.3815,2.4771,2.5377,2.5955,2.6801,2.6919,2.6918,2.6714,2.7056,2.7515,2.8337,2.943,3.0341,3.0794,3.0891,3.1314,3.2165,3.2009,3.2413,3.3521,3.3274,3.3667,3.483,3.4889,3.5109,3.5519,3.5519,3.5519,3.5519,3.5495,3.6246,3.7533,3.8732,3.9264,3.932,3.9409,3.9409,3.9409,3.9409,3.9409,3.9409,3.9409,3.9409,3.9409,3.9409,3.9409,3.9409,3.9409,3.9409,3.9409,3.9409,3.9409,3.9409,3.9409,3.9409,3.9409,3.9409,3.9888,4.0337,4.0397,4.1384,4.2359,4.2419,4.294,4.3419,4.3419,4.3958,4.4407,4.4407,4.5484,4.6561,4.7219,4.8446,4.9494,5.0092,5.069,5.105,5.105,5.1079,5.1139,5.1139,5.1199,5.1229,5.1229,5.1229,5.1229,5.1229,5.1229,5.1229,5.1229,5.1229,5.1558,5.2217,5.2815,5.3503,3.1773,3.162,3.1466,3.1312,3.1117,3.0628,2.9147,2.7451,2.5704,2.4081,2.2148,2.0791,2.0733,2.1546,2.2003,2.1376,2.2688,2.399,2.4532,2.4855,2.5543,2.6945,2.7019,2.6935,2.6804,2.7319,2.7991,2.8841,2.9987,3.0753,3.0902,3.1103,3.1344,3.1639,3.2205,3.2679,3.2874,3.3495,3.3849,3.409,3.4872,3.5549,3.6118,3.5868,3.5653,3.5503,3.5472,3.6656,3.8645,3.9213,3.9354,3.9409,3.9409,3.9409,3.9409,3.9409,3.9409,3.9409,3.9409,3.9409,3.9409,3.9409,3.9409,3.9409,3.9409,3.9409,3.9409,3.9409,3.9409,3.9409,3.9409,3.9409,3.9529,3.9918,4.0217,4.0606,4.1414,4.1983,4.2491,4.288,4.315,4.3329,4.3329,4.3539,4.3718,4.3718,4.4526,4.5484,4.6561,4.7848,4.9075,5.0122,5.084,5.1229,5.1229,5.1229,5.1229,5.1229,5.1229,5.1229,5.1229,5.1229,5.1229,5.1229,5.1229,5.1229,5.1229,5.1618,5.2157,5.2815,5.3473,5.4162,3.1952,3.1877,3.1654,3.1428,3.1065,3.0437,2.9151,2.7391,2.5611,2.4149,2.2346,2.0926,2.0563,2.1578,2.207,2.0971,2.2574,2.4024,2.4134,2.4611,2.5294,2.6382,2.6749,2.6907,2.6844,2.7893,2.8874,2.9478,3.0508,3.098,3.062,3.1047,3.1368,3.1662,3.239,3.2818,3.2943,3.3627,3.4044,3.4129,3.5066,3.5804,3.6338,3.6091,3.5879,3.5667,3.5669,3.7074,3.9425,3.9434,3.9384,3.9379,3.9409,3.9409,3.9409,3.9409,3.9409,3.9409,3.9409,3.9409,3.9409,3.9409,3.9409,3.9409,3.9409,3.9409,3.9409,3.9409,3.9409,3.9409,3.9409,3.9559,3.9828,4.0277,4.0696,4.1235,4.2162,4.2521,4.2791,4.324,4.3329,4.3329,4.3329,4.3329,4.3329,4.3329,4.3898,4.4736,4.5873,4.7339,4.8716,4.9823,5.072,5.1229,5.1229,5.1229,5.1229,5.1229,5.1229,5.1229,5.1229,5.1229,5.1229,5.1229,5.1229,5.1229,5.1229,5.1887,5.2546,5.3204,5.3892,5.4551,3.1771,3.2091,3.1839,3.1576,3.0878,2.9983,2.9197,2.7164,2.5211,2.4214,2.2603,2.1214,2.0697,2.1054,2.1306,2.1044,2.2596,2.3726,2.3422,2.4732,2.5523,2.5057,2.6157,2.6816,2.6607,2.8861,3.0337,3.031,3.1121,3.114,3.014,3.0687,3.1513,3.2616,3.2461,3.2972,3.4442,3.3832,3.4188,3.5489,3.5489,3.5679,3.5997,3.6004,3.5976,3.5978,3.5979,3.7268,3.9411,3.9395,3.9373,3.9373,3.9379,3.9409,3.9409,3.9409,3.9409,3.9409,3.9409,3.9409,3.9409,3.9409,3.9409,3.9409,3.9409,3.9409,3.9409,3.9409,3.9409,3.9409,3.9409,3.9888,4.0397,4.0397,4.1384,4.2342,4.2372,4.288,4.3329,4.3329,4.3329,4.3329,4.3329,4.3329,4.3329,4.3329,4.3898,4.4556,4.5214,4.704,4.8536,4.9194,5.0451,5.1229,5.1229,5.1229,5.1229,5.1229,5.1229,5.1229,5.1229,5.1229,5.1229,5.1229,5.1229,5.1229,5.1229,5.1887,5.2546,5.3204,5.3892,5.4551,3.0024,3.0462,3.0523,3.0248,2.99,2.9245,2.7879,2.6521,2.5173,2.3773,2.2493,2.1495,2.1151,2.1431,2.1784,2.2034,2.3111,2.4018,2.4415,2.4993,2.5482,2.5691,2.686,2.8079,2.9426,3.0477,3.1121,3.1188,3.1781,3.1714,3.0626,3.0984,3.1575,3.2402,3.2883,3.3543,3.4472,3.4767,3.5096,3.5519,3.5519,3.5808,3.6316,3.635,3.6445,3.6693,3.6682,3.7977,4.0181,4.0155,3.9829,3.9446,3.9414,3.9433,3.9361,3.9379,3.9409,3.9529,4.0467,4.0781,4.0618,3.9712,3.9387,3.9357,3.9397,3.9409,3.9409,3.9409,3.9409,3.9529,3.9978,4.0247,4.0636,4.1534,4.2043,4.2491,4.294,4.318,4.3329,4.3329,4.3329,4.3329,4.3329,4.3329,4.3329,4.3329,4.3898,4.4556,4.5214,4.704,4.8536,4.9194,5.0451,5.1229,5.1229,5.1229,5.1229,5.1229,5.1229,5.1229,5.1229,5.1229,5.1229,5.1229,5.1229,5.1229,5.1229,5.2336,5.3443,5.4551,5.479,5.4999,2.8631,2.9147,2.9202,2.8856,2.8453,2.7841,2.6687,2.5603,2.4523,2.3429,2.2682,2.2038,2.1466,2.1922,2.248,2.2713,2.3809,2.4725,2.5142,2.556,2.6198,2.7071,2.7787,2.9223,3.166,3.2085,3.2282,3.2413,3.26,3.2332,3.1426,3.1605,3.208,3.2705,3.3214,3.3933,3.4861,3.528,3.5519,3.5519,3.5519,3.5748,3.6133,3.6383,3.66,3.6816,3.7062,3.8618,0.0,4.0913,4.0501,3.9817,3.9809,3.9666,3.9373,3.9379,3.9409,3.9559,4.0708,4.1113,4.0919,4.004,3.9565,3.943,3.9397,3.9409,3.9499,4.0034,4.0154,4.0274,4.0636,4.0935,4.1354,4.2162,4.2551,4.2851,4.324,4.3329,4.3329,4.3329,4.3329,4.3329,4.3329,4.3329,4.3419,4.3658,4.4047,4.4736,4.5903,4.7369,4.8626,4.9523,5.0601,5.1229,5.1229,5.1229,5.1229,5.1229,5.1229,5.1229,5.1229,5.1229,5.1229,5.1229,5.1229,5.1229,5.1229,5.2546,5.3862,5.5179,5.5179,5.5179,0.0,2.7987,2.7875,2.7377,2.6705,2.6036,2.563,2.4479,0.0,2.3283,2.3103,2.272,2.1716,2.2508,2.3307,2.3127,2.4579,2.5686,2.561,2.6504,2.764,2.8866,2.9078,3.0309,3.3245,3.3638,3.3768,3.3768,3.3465,3.303,3.2406,3.2467,3.2886,3.3544,3.3574,3.4203,3.5489,3.5519,3.5519,3.5519,3.5519,3.5499,3.5543,3.6167,3.6477,3.6631,3.7281,3.9157,4.1693,4.1606,4.1162,4.047,4.0426,3.999,3.9373,3.9379,3.9409,3.9529,4.0381,4.0561,4.0397,4.0397,3.9948,3.9439,3.9499,3.9559,3.9944,4.0992,4.1368,4.1489,4.146,4.1893,4.2372,4.2402,4.288,4.3329,4.3329,4.3329,4.3329,4.3329,4.3329,4.3329,4.3329,4.3359,4.3599,4.4227,4.4436,4.5214,4.707,4.7967,4.8895,5.0122,5.084,5.1229,5.1229,5.1229,5.1229,5.1229,5.1229,5.1229,5.1229,5.1229,5.1229,5.1229,5.1259,5.1319,5.1379,5.2636,5.3922,5.5179,5.5179,5.5179,2.3547,0.0,2.6473,2.6109,2.5833,2.5415,0.0,2.3904,2.3437,2.2665,2.2916,2.2932,2.2045,2.2894,2.3882,2.4265,2.485,2.5611,2.6672,2.7845,2.9,2.9993,3.0981,3.2106,3.375,3.4026,3.4061,3.4061,3.4133,3.3901,3.3244,3.3275,3.3574,3.4233,3.4233,3.4651,3.5489,3.5519,3.5519,3.5519,3.5519,3.5469,3.5516,3.5917,3.6537,3.7281,3.7934,3.9753,4.2361,4.1799,4.1174,4.0454,3.9899,3.9556,3.9425,3.9421,3.9409,3.9529,4.0187,4.0427,4.0397,4.0397,3.9948,3.9529,4.0201,4.1291,4.2206,4.1113,4.134,4.1881,4.2119,4.2252,4.2491,4.3,4.324,4.3329,4.3329,4.3329,4.3329,4.3329,4.3329,4.3329,4.3329,4.3748,4.4137,4.4287,4.5633,4.677,4.7249,4.8745,4.9883,5.0212,5.084,5.1229,5.1229,5.1229,5.1229,5.1229,5.1229,5.1229,5.1229,5.1229,5.1229,5.1229,5.1708,5.2217,5.2725,5.3563,5.4401,5.5179,5.5179,5.5179,2.1936,2.3386,2.4554,2.4562,2.4544,2.4286,2.3446,2.3206,2.3021,2.2423,2.2844,2.3156,2.266,2.315,2.3918,2.4809,2.526,2.6213,2.8247,2.9325,3.0216,3.1238,3.2246,3.3276,3.4415,3.4598,3.4718,3.4891,3.4685,3.4448,3.3963,3.4233,3.4442,3.4472,3.537,3.5729,3.5519,3.5519,3.5519,3.5519,3.5519,3.5499,3.5543,3.6037,3.7402,3.9408,3.9754,4.0765,4.2062,4.1055,4.0331,3.9994,3.9728,3.9516,3.9384,3.9421,3.9409,3.9529,4.0157,4.0397,4.0397,4.0397,4.0187,4.0081,4.0471,4.2138,4.3625,4.2274,4.2258,4.265,4.2809,4.2791,4.291,4.324,4.3329,4.3329,4.3329,4.3329,4.3329,4.3329,4.3329,4.3329,4.3329,4.3868,4.4407,4.4706,4.6202,4.7519,4.8117,4.9404,5.0361,5.0661,5.102,5.1229,5.1229,5.1229,5.1229,5.1229,5.1229,5.1229,5.1229,5.1229,5.1349,5.1648,5.2007,5.2665,5.3653,5.4012,5.4551,5.5179,5.5179,5.5179,2.1476,2.21,2.2729,2.3455,2.3495,2.3259,2.2989,2.2771,2.2596,2.2349,2.2941,2.3485,2.3351,2.3677,2.4348,2.5413,2.6319,2.7809,3.0592,3.1187,3.1758,3.2857,3.3604,3.4442,3.5401,3.5462,3.5553,3.5785,3.5392,3.5024,3.4835,3.5494,3.5519,3.4951,3.6537,3.6896,3.5818,3.5574,3.5484,3.5519,3.5484,3.5489,3.5529,3.6054,3.8203,4.1466,4.1403,4.1396,4.118,3.9886,3.9421,3.9455,3.9809,3.9696,3.9373,3.9379,3.9409,3.9499,4.0068,4.0247,4.0277,4.0367,4.0531,4.0651,4.0786,4.2573,4.4327,4.3814,4.3585,4.3645,4.3648,4.3569,4.3479,4.3479,4.3389,4.3329,4.3329,4.3329,4.3329,4.3329,4.3419,4.3479,4.3479,4.4107,4.4855,4.5514,4.6741,4.8057,4.9254,4.9972,5.0601,5.1169,5.1229,5.1229,5.1229,5.1229,5.1229,5.1229,5.1229,5.1229,5.1229,5.1319,5.1618,5.2187,5.2396,5.3054,5.4221,5.4311,5.464,5.5179,5.5179,5.5179,2.1312,2.177,2.2318,2.418,2.4082,2.3636,2.3909,2.3328,2.2729,2.2515,2.3551,2.43,2.36,2.5441,2.7128,2.7295,2.9158,3.1682,3.4529,3.4349,3.4406,3.5628,3.615,3.6471,3.6597,3.6538,3.6415,3.6352,3.6654,3.6706,3.6345,3.6977,3.7211,3.6956,3.7255,3.7315,3.7135,3.6067,3.5532,3.5519,3.5466,3.5525,3.5502,3.56,3.7466,4.0645,4.0645,4.0313,3.9711,3.952,3.9404,3.9405,3.9444,3.9474,3.9373,3.9379,3.9409,3.9439,3.9529,3.9559,3.9679,4.0217,4.0427,4.0726,4.2402,4.315,4.3738,4.4728,4.4997,4.5027,4.4975,4.4586,4.4167,4.4167,4.3748,4.3329,4.3329,4.3329,4.3329,4.3329,4.3778,4.4167,4.4167,4.5185,4.6232,4.689,4.8117,4.9224,5.0002,5.0661,5.1109,5.1199,5.1229,5.1229,5.1229,5.1229,5.1229,5.1229,5.1229,5.1229,5.1229,5.1738,5.2097,5.2187,5.3324,5.4012,5.4221,5.476,5.5089,5.5179,5.5179,5.5179,2.1323,2.1748,2.2282,2.4538,2.4368,2.3679,2.3707,2.3673,2.3554,2.3396,2.4178,2.4913,2.4923,2.6616,2.8694,3.073,3.1489,3.2619,3.4967,3.5266,3.5558,3.6454,3.703,3.7246,3.7106,3.708,3.7006,3.6966,3.7437,3.7589,3.7269,3.8116,3.8476,3.791,3.8576,3.8469,3.7571,3.7601,3.6888,3.5473,3.5524,3.6259,3.7631,3.7595,3.8652,4.0466,4.0091,3.9758,3.9414,3.9405,3.9395,3.9403,3.9391,3.9391,3.9421,3.9409,3.9409,3.9409,3.9409,3.9409,3.9529,4.0187,4.0636,4.1235,4.2851,4.3838,4.4586,4.5574,4.5574,4.5304,4.5304,4.5065,4.4855,4.4855,4.4616,4.4377,4.4377,4.4377,4.4377,4.4377,4.4646,4.4975,4.5334,4.6202,4.707,4.7728,4.8955,4.9912,5.0182,5.081,5.1229,5.1229,5.1229,5.1229,5.1229,5.1229,5.1229,5.1229,5.1229,5.1379,5.1738,5.2037,5.2546,5.3264,5.3892,5.4371,5.473,5.5029,5.5179,5.5179,5.5179,5.5179,2.12,2.1668,2.226,2.4241,2.4221,2.3768,2.3898,2.418,2.4408,2.4454,2.5143,2.5895,2.6398,2.7977,3.0236,3.3298,3.3415,3.365,3.5338,3.6042,3.662,3.7294,3.7768,3.799,3.7775,3.7753,3.7769,3.7871,3.8423,3.8621,3.834,3.9392,3.9694,3.8934,3.9818,3.9742,3.8364,3.9213,3.8442,3.5977,3.6212,3.7445,3.9414,3.9998,4.0613,4.1096,4.057,4.0171,3.9964,3.9793,3.9703,3.9619,3.9469,3.9409,3.9409,3.9409,3.9409,3.9439,3.9589,3.9649,3.9798,4.0606,4.1294,4.2073,4.3389,4.4616,4.5663,4.6352,4.6172,4.5753,4.5753,4.5633,4.5544,4.5544,4.5394,4.5304,4.5304,4.5304,4.5334,4.5514,4.5663,4.5992,4.6651,4.7339,4.7997,4.8656,4.9613,5.0301,5.0451,5.09,5.1229,5.1229,5.1229,5.1229,5.1229,5.1229,5.1289,5.1439,5.1439,5.1678,5.2187,5.2516,5.3144,5.4192,5.4371,5.47,5.5179,5.5179,5.5179,5.5179,5.5179,5.5179,2.0581,2.1279,2.2002,2.285,2.3426,2.4151,2.5517,2.5171,2.4775,2.5435,2.6702,2.7683,2.7507,3.011,3.2588,3.3495,3.5115,3.6552,3.7379,3.792,3.8502,3.9182,3.9176,3.9069,3.9069,3.8941,3.9018,3.9422,3.9962,4.028,4.0293,4.1018,4.1264,4.08,4.0789,4.0585,4.0255,4.0477,3.9463,3.7286,3.8508,3.9235,3.9505,4.191,4.3074,4.3104,4.3026,4.2528,4.1761,4.0902,4.0528,4.0277,3.9649,3.9409,3.9409,3.9409,3.9409,3.9499,4.0127,4.0337,4.0546,4.1803,4.2671,4.3449,4.4766,4.5663,4.6381,4.704,4.7189,4.716,4.716,4.6711,4.6262,4.6262,4.5753,4.5304,4.5304,4.5304,4.5484,4.6142,4.6741,4.7369,4.8027,4.8686,4.9344,5.0002,5.0182,5.0451,5.1079,5.1199,5.1229,5.1229,5.1229,5.1229,5.1229,5.1229,5.1468,5.2097,5.2127,5.2157,5.2187,5.3414,5.4102,5.4221,5.482,5.5149,5.5179,5.5179,5.5179,5.5179,5.5179,5.5179,2.0596,2.1306,2.2033,2.2795,2.3836,2.4996,2.5955,2.626,2.6837,2.8675,2.9394,2.9852,3.0304,3.1737,3.3117,3.41,3.5667,3.6996,3.7691,3.8385,3.9076,3.9817,3.9799,3.9747,3.9644,3.9573,3.9768,4.0194,4.0696,4.1187,4.1606,4.2197,4.2396,4.1981,4.1787,4.1614,4.1441,4.1269,4.0788,3.9892,4.1189,4.1851,4.182,4.2864,4.3334,4.3253,4.335,4.2803,4.194,4.1415,4.107,4.0995,4.0726,4.0636,4.0636,4.0636,4.0636,4.0666,4.0935,4.0995,4.1235,4.2551,4.315,4.3688,4.5424,4.6112,4.6471,4.713,4.7309,4.7309,4.7309,4.713,4.692,4.692,4.6741,4.6651,4.707,4.716,4.7339,4.8027,4.8356,4.8745,4.9374,4.9703,5.0092,5.075,5.084,5.093,5.1199,5.1229,5.1229,5.1229,5.1229,5.1229,5.1229,5.1229,5.1498,5.2157,5.2187,5.2576,5.3414,5.3952,5.4401,5.482,5.5059,5.5179,5.5179,5.5179,5.5179,5.5179,5.5179,5.5179,2.063,2.1331,2.214,2.3107,2.4354,2.5779,2.7543,2.8069,2.8857,3.1074,3.1771,3.2127,3.2579,3.3066,3.38,3.4942,3.6061,3.7157,3.8125,3.887,3.9512,4.002,4.0087,4.0087,3.9986,4.0171,4.0505,4.103,4.1622,4.2185,4.2741,4.3152,4.3235,4.2896,4.271,4.2527,4.2501,4.2271,4.1935,4.1565,4.2773,4.332,4.3265,4.3265,4.3307,4.3329,4.3277,4.2977,4.2384,4.1923,4.1564,4.1384,4.1384,4.1384,4.1384,4.1384,4.1384,4.1414,4.1624,4.1683,4.1923,4.321,4.3808,4.4287,4.5843,4.6471,4.6741,4.7189,4.7309,4.7309,4.7309,4.7309,4.7309,4.7309,4.7309,4.7489,4.8147,4.8297,4.8536,4.9404,4.9583,4.9793,5.0421,5.0541,5.069,5.1139,5.1229,5.1229,5.1229,5.1229,5.1229,5.1229,5.1229,5.1229,5.1229,5.1409,5.1798,5.2456,5.2725,5.3234,5.4162,5.4401,5.473,5.5179,5.5179,5.5179,5.5179,5.5179,5.5179,5.5179,5.5179,5.5179,2.0658,2.1346,2.2288,2.3823,2.4814,2.6486,3.0503,3.0698,3.0451,3.2119,3.356,3.4371,3.4013,3.4234,3.484,3.595,3.6546,3.742,3.8768,3.9614,4.0087,4.0087,4.0087,4.0087,4.0087,4.0764,4.1456,4.2072,4.2812,4.335,4.3798,4.3831,4.3772,4.3621,4.3295,4.3287,4.3719,4.3667,4.3028,4.1954,4.2877,4.3287,4.3329,4.3329,4.3329,4.3329,4.3329,4.3329,4.3269,4.2641,4.1983,4.1384,4.1414,4.1414,4.1414,4.1414,4.1414,4.1504,4.2132,4.2372,4.2581,4.3898,4.4766,4.5424,4.6112,4.68,4.7309,4.7309,4.7309,4.7309,4.7309,4.7309,4.7309,4.7309,4.7309,4.7489,4.8147,4.8297,4.8686,5.0002,5.0242,5.0451,5.1109,5.1229,5.1229,5.1229,5.1229,5.1229,5.1229,5.1229,5.1229,5.1229,5.1229,5.1229,5.1229,5.1828,5.2486,5.3144,5.3832,5.4221,5.4221,5.485,5.5179,5.5179,5.5179,5.5179,5.5179,5.5179,5.5179,5.5179,5.5179,5.5179,2.0862,2.2641,2.4598,2.4926,2.6502,2.8705,3.1568,3.1579,3.1748,3.4438,3.5715,3.6041,3.5106,3.5261,3.57,3.6271,3.7168,3.8138,3.9016,3.9664,4.0087,4.0087,4.0087,4.029,4.0832,4.1068,4.1659,4.2942,4.3247,4.363,4.435,4.4384,4.427,4.4121,4.4238,4.4504,4.4755,4.4709,4.4566,4.4247,4.4192,4.3898,4.3334,4.3334,4.3593,4.4189,4.4189,4.4112,4.3957,4.3542,4.3205,4.3025,4.2839,4.2761,4.2761,4.2761,4.2761,4.2791,4.297,4.3359,4.3868,4.4736,4.5454,4.6142,4.68,4.716,4.7309,4.7309,4.7309,4.7309,4.7309,4.7309,4.7309,4.7309,4.7668,4.8177,4.8835,4.9344,4.9912,5.075,5.093,5.099,5.1199,5.1229,5.1229,5.1229,5.1229,5.1229,5.1229,5.1229,5.1229,5.1229,5.1229,5.1409,5.1858,5.2097,5.2695,5.3832,5.4102,5.4431,5.488,5.5089,5.5179,5.5179,5.5179,5.5179,5.5179,5.5179,5.5179,5.5179,5.5179,5.5179,2.1891,2.3747,2.5783,2.6254,2.7721,2.9756,3.2449,3.344,3.4357,3.6245,3.7186,3.7289,3.62,3.6327,3.6814,3.7463,3.8061,3.8745,3.9569,3.9966,4.0188,4.0138,4.0358,4.0696,4.117,4.1745,4.2455,4.3335,4.3707,4.4079,4.4553,4.4587,4.4553,4.444,4.4825,4.5263,4.5623,4.5767,4.585,4.5853,4.5437,4.5088,4.4705,4.444,4.4675,4.5228,4.4861,4.4572,4.4343,4.3988,4.3754,4.3675,4.3518,4.3438,4.3518,4.3566,4.3566,4.3596,4.3518,4.3858,4.4488,4.5065,4.5753,4.6441,4.71,4.7309,4.7309,4.7309,4.7309,4.7309,4.7309,4.7309,4.7309,4.7309,4.7818,4.8476,4.9134,4.9763,5.0421,5.1079,5.1229,5.1229,5.1229,5.1229,5.1229,5.1229,5.1229,5.1229,5.1229,5.1229,5.1229,5.1229,5.1229,5.1498,5.2127,5.2426,5.3054,5.4132,5.4461,5.479,5.5179,5.5179,5.5179,5.5179,5.5179,5.5179,5.5179,5.5179,5.5179,5.5179,5.5179,5.5179,2.3338,2.4816,2.6488,2.7811,2.8942,3.0465,3.3283,3.5826,3.7588,3.7588,3.8077,3.8214,3.7301,3.75,3.8185,3.92,3.9138,3.9306,4.0377,4.0387,4.0238,4.0138,4.073,4.1238,4.1305,4.2591,4.3436,4.3504,4.4181,4.4587,4.4587,4.4587,4.4621,4.4688,4.5192,4.5816,4.6374,4.6799,4.701,4.7012,4.6649,4.668,4.7041,4.6247,4.6129,4.6392,4.5403,4.4918,4.4723,4.4266,4.3988,4.3754,4.3754,4.3754,4.3832,4.3988,4.4065,4.4065,4.3832,4.4206,4.482,4.5259,4.5813,4.6531,4.713,4.7309,4.7309,4.7309,4.7309,4.7309,4.7309,4.7309,4.7309,4.7369,4.7908,4.8566,4.9224,4.9853,5.0511,5.1109,5.1229,5.1229,5.1229,5.1229,5.1229,5.1229,5.1229,5.1229,5.1229,5.1229,5.1229,5.1229,5.1259,5.1558,5.2247,5.2905,5.3563,5.4251,5.485,5.5179,5.5179,5.5179,5.5179,5.5179,5.5179,5.5179,5.5179,5.5179,5.5179,5.5179,5.5179,5.5179,2.4152,2.6601,2.897,2.9795,3.2453,3.4806,3.4761,3.667,3.8432,3.8432,3.848,3.8606,3.8951,3.8934,3.9301,4.0495,4.025,4.0085,4.0651,4.0451,4.0238,4.0138,4.073,4.1441,4.2016,4.2861,4.3673,4.4282,4.4485,4.4587,4.4587,4.4587,4.4857,4.5466,4.5967,4.6555,4.7328,4.7691,4.803,4.8131,4.7803,4.8001,4.853,4.7235,4.7062,4.759,4.6749,4.6198,4.5873,4.5184,4.4692,4.4343,4.422,4.4297,4.4419,4.4419,4.4572,4.4617,4.4266,4.4904,4.594,4.5849,4.6531,4.7357,4.7508,4.7482,4.7309,4.7309,4.7309,4.7309,4.7309,4.7309,4.7429,4.7967,4.8566,4.9224,4.9883,5.0541,5.105,5.1199,5.1229,5.1229,5.1229,5.1229,5.1229,5.1229,5.1229,5.1229,5.1229,5.1229,5.1229,5.1229,5.1678,5.2247,5.2905,5.3593,5.4281,5.494,5.5119,5.5179,5.5179,5.5179,5.5179,5.5179,5.5179,5.5179,5.5179,5.5179,5.5179,5.5179,5.5179,5.5179,2.3929,2.6654,2.9645,3.1837,3.4476,3.6325,3.5772,3.7279,3.875,3.8689,3.8951,3.9292,3.9634,4.0156,4.0709,4.1163,4.1227,4.1113,4.1001,4.0707,4.0554,4.0814,4.1426,4.2121,4.2901,4.3593,4.4147,4.4553,4.4587,4.4587,4.4587,4.4598,4.4811,4.5183,4.6111,4.6791,4.7194,4.814,4.8644,4.8744,4.855,4.8651,4.9013,4.8265,4.8001,4.8067,4.7403,4.6929,4.6512,4.5841,4.5332,4.4993,4.4993,4.5067,4.5142,4.5363,4.5437,4.5332,4.5067,4.5742,4.6683,4.6333,4.6924,4.7794,4.7624,4.7482,4.7309,4.7309,4.7309,4.7309,4.7309,4.7549,4.7938,4.8596,4.9015,4.9464,5.0092,5.075,5.1229,5.1229,5.1229,5.1229,5.1229,5.1229,5.1229,5.1229,5.1229,5.1229,5.1229,5.1229,5.1349,5.1648,5.2007,5.2606,5.3593,5.4012,5.4491,5.5149,5.5179,5.5179,5.5179,5.5179,5.5179,5.5179,5.5179,5.5179,5.5179,5.5179,5.5179,5.5179,5.5179,5.5179,2.3324,2.6384,2.9901,3.3455,3.5504,3.6636,3.662,3.7771,3.881,3.8719,3.935,3.9905,4.0024,4.1131,4.1977,4.1717,4.2016,4.203,4.1391,4.1105,4.1133,4.1694,4.2347,4.2993,4.3605,4.4279,4.4643,4.4587,4.4564,4.4598,4.4632,4.4596,4.4682,4.4976,4.6152,4.6891,4.7188,4.8416,4.9018,4.9018,4.9018,4.9018,4.9018,4.8983,4.8759,4.8362,4.7869,4.7404,4.6997,4.648,4.5985,4.5624,4.5841,4.5913,4.5985,4.6301,4.634,4.623,4.6072,4.6665,4.7387,4.7012,4.7507,4.8133,4.788,4.7624,4.7482,4.7482,4.7482,4.7538,4.7538,4.7962,4.8623,4.9284,4.9524,4.9704,5.0272,5.084,5.1229,5.1229,5.1229,5.1229,5.1229,5.1229,5.1229,5.1229,5.1229,5.1229,5.1229,5.1319,5.1588,5.2127,5.2426,5.2995,5.4132,5.4311,5.461,5.5149,5.5179,5.5179,5.5179,5.5179,5.5179,5.5179,5.5179,5.5179,5.5179,5.5179,5.5179,5.5179,5.5179,5.5179,2.3084,2.7279,3.1462,3.3966,3.5661,3.6905,3.7405,3.8206,3.881,3.8719,3.935,4.012,4.0785,4.1599,4.2302,4.2777,4.258,4.221,4.178,4.1985,4.2181,4.2265,4.3202,4.382,4.3613,4.432,4.471,4.4632,4.4596,4.4615,4.4599,4.4574,4.5169,4.6455,4.669,4.7389,4.8686,4.8917,4.9018,4.9018,4.9018,4.9018,4.9018,4.9024,4.8962,4.8894,4.8707,4.8292,4.7737,4.7404,4.6929,4.6442,4.662,4.6759,4.6896,4.6965,4.7134,4.7232,4.7361,4.7886,4.8509,4.8541,4.8764,4.8984,4.8604,4.8301,4.8218,4.8218,4.8301,4.8469,4.8469,4.8791,4.9377,4.9961,5.0304,5.0547,5.093,5.1169,5.1229,5.1229,5.1229,5.1229,5.1229,5.1229,5.1229,5.1229,5.1229,5.1229,5.1229,5.1708,5.2097,5.2187,5.3234,5.4012,5.4192,5.473,5.5089,5.5179,5.5179,5.5179,5.5179,5.5179,5.5179,5.5179,5.5179,5.5179,5.5179,5.5179,5.5179,5.5179,5.5179,5.5179,2.2815,2.7561,3.1743,3.362,3.5571,3.7178,3.775,3.8414,3.901,3.9369,4.0042,4.0671,4.1038,4.2106,4.2955,4.3069,4.2917,4.2606,4.2002,4.2018,4.2391,4.3006,4.3519,4.4009,4.4577,4.4667,4.4665,4.4609,4.6157,4.7063,4.7048,4.7031,4.8098,5.0496,5.0509,5.0051,4.9029,4.9029,4.8962,4.9018,4.9018,4.9018,4.9018,4.9018,4.9018,4.8984,4.8832,4.858,4.8227,4.7968,4.7671,4.7437,4.7538,4.7671,4.7737,4.7869,4.7869,4.7935,4.8427,4.8907,4.9271,4.947,4.9642,4.971,4.9259,4.9015,4.8821,4.8821,4.8821,4.8903,4.8903,4.9708,5.0491,5.066,5.126,5.1759,5.1604,5.1386,5.1229,5.1229,5.1229,5.1229,5.1229,5.1229,5.1229,5.1229,5.1229,5.1349,5.1708,5.2007,5.2486,5.3234,5.3862,5.4371,5.473,5.5029,5.5179,5.5179,5.5179,5.5179,5.5179,5.5179,5.5179,5.5179,5.5179,5.5179,5.5179,5.5179,5.5179,5.5179,5.5179,5.5179,2.1944,2.6392,3.0327,3.2281,3.4567,3.6556,3.7542,3.842,3.9266,3.9902,4.0919,4.1699,4.1699,4.2873,4.3721,4.3506,4.3613,4.3457,4.2798,4.2803,4.3262,4.4402,4.4786,4.5102,4.5581,4.5142,4.5145,4.592,4.7843,4.8963,4.9026,4.9718,5.1165,5.346,5.3479,5.2443,5.0173,4.9375,4.9039,4.9029,4.8962,4.9024,4.9024,4.9018,4.9018,4.8984,4.8894,4.8769,4.8547,4.842,4.8227,4.8131,4.8292,4.8356,4.8356,4.8483,4.8483,4.8489,4.9326,4.9758,4.9941,5.0431,5.0532,5.0493,5.0058,4.9789,4.9678,4.9678,4.9757,4.9868,5.0058,5.0925,5.182,5.1759,5.2386,5.2726,5.2033,5.1572,5.1293,5.1293,5.1293,5.1293,5.1323,5.1263,5.1263,5.1293,5.1409,5.1708,5.2252,5.2516,5.3084,5.4102,5.4371,5.467,5.5149,5.5179,5.5179,5.5179,5.5179,5.5179,5.5179,5.5179,5.5179,5.5179,5.5179,5.5179,5.5179,5.5179,5.5179,5.5179,5.5179,5.5179,2.0012,2.2992,2.6376,2.9532,3.2112,3.4434,3.6573,3.8152,3.9342,3.9956,4.1862,4.3453,4.3385,4.4085,4.46,4.4528,4.5039,4.5251,4.4654,4.506,4.5825,4.6963,4.8079,4.808,4.633,4.5683,4.6568,4.9486,4.9262,4.9021,4.9025,5.1706,5.3363,5.3479,5.3494,5.34,5.3297,5.0416,4.8988,4.8988,4.8979,4.9005,4.9005,4.9024,4.9018,4.9018,4.8984,4.8894,4.8769,4.8769,4.8644,4.8483,4.8707,4.8769,4.8769,4.8769,4.8769,4.8908,5.0223,5.0627,5.0794,5.1636,5.1736,5.1475,5.0951,5.0876,5.1027,5.1027,5.1252,5.1712,5.2441,5.2888,5.3244,5.368,5.3756,5.3258,5.1941,5.1572,5.1572,5.1572,5.1604,5.1666,5.1665,5.1421,5.1269,5.1665,5.2107,5.2492,5.2532,5.3421,5.4132,5.4192,5.476,5.5149,5.5179,5.5179,5.5179,5.5179,5.5179,5.5179,5.5179,5.5179,5.5179,5.5179,5.5179,5.5179,5.5179,5.5179,5.5179,5.5179,5.5179,5.5179,1.861,2.161,2.4992,2.6595,2.965,3.2678,3.449,3.637,3.8264,3.9937,4.1274,4.2627,4.4078,4.4965,4.5443,4.5407,4.5552,4.5988,4.6782,4.6142,4.6964,5.0649,5.1185,5.0994,5.0294,4.9763,4.9902,5.1016,5.0215,4.9608,4.9633,5.2062,5.3501,5.3464,5.3505,5.3508,5.3508,5.179,5.1251,5.1854,5.1915,5.0841,4.9005,4.9001,4.8996,4.9018,4.9018,4.8956,4.8956,4.8956,4.8894,4.8798,4.8894,4.8956,4.8956,4.8956,4.926,4.9801,5.0686,5.1294,5.1732,5.236,5.2449,5.2203,5.1842,5.1769,5.1875,5.1875,5.1948,5.2257,5.295,5.3634,5.4262,5.489,5.4608,5.3954,5.3315,5.2726,5.2306,5.2306,5.2457,5.2457,5.2033,5.2063,5.2033,5.188,5.2823,5.3678,5.407,5.4648,5.5292,5.5523,5.5797,5.575,5.5481,5.5481,5.5381,5.5179,5.5179,5.5179,5.5179,5.5179,5.5179,5.5179,5.5179,5.5179,5.5179,5.5179,5.5179,5.5179,5.5179,5.5179,1.7427,1.9939,2.2745,2.378,2.6941,3.0223,3.2053,3.4471,3.6934,3.9223,4.1101,4.2885,4.4583,4.5989,4.6728,4.6323,4.6432,4.7091,4.8404,4.7882,4.8607,5.1974,5.2594,5.2717,5.2712,5.239,5.2148,5.2019,5.1547,5.122,5.1072,5.2874,5.3839,5.3543,5.3513,5.3515,5.3515,5.2838,5.2836,5.3543,5.354,5.2425,5.0511,4.9472,4.9102,4.9357,4.912,4.9018,4.9018,4.9018,4.9018,4.9018,4.9018,4.9018,4.9052,4.9289,4.9661,5.0236,5.1251,5.1862,5.2269,5.2806,5.2903,5.2731,5.252,5.252,5.259,5.259,5.2861,5.3194,5.4,5.4789,5.5563,5.5982,5.5539,5.4934,5.4736,5.3836,5.317,5.317,5.3103,5.304,5.2905,5.3237,5.3476,5.3233,5.4598,5.5688,5.5627,5.5935,5.6367,5.6638,5.6603,5.6409,5.6145,5.6047,5.5849,5.5581,5.5551,5.5481,5.5381,5.528,5.528,5.5179,5.5179,5.5179,5.5179,5.5179,5.5179,5.5179,5.5179,5.5179,0.0,0.0,0.0,2.1107,2.3993,2.7044,2.9456,3.253,3.5493,3.7699,4.1424,4.4461,4.5041,4.712,4.8419,4.7316,4.7792,4.86,4.9481,5.0288,5.0794,5.0884,5.2242,5.3193,5.3235,5.319,5.3007,5.2569,5.3462,5.3832,5.3303,5.4231,5.4482,5.3783,5.3618,5.3484,5.3484,5.3518,5.3518,5.3484,5.3515,5.3445,5.3343,5.0409,4.9405,5.0067,4.9323,4.9018,4.9018,4.9018,4.9018,4.9018,4.9018,4.9018,4.9086,4.983,5.0101,5.0338,5.1792,5.2334,5.2469,5.3011,5.3179,5.3179,5.2972,5.3041,5.3179,5.3179,5.3855,5.4769,5.5547,5.6511,5.7214,5.6834,5.6492,5.6257,5.61,5.5017,5.4062,5.4062,5.3735,5.3629,5.4062,5.4889,5.5453,5.5522,5.756,5.8563,5.7222,5.7275,5.7527,5.7433,5.7244,5.718,5.7084,5.6892,5.6603,5.6311,5.6311,5.6145,5.5681,5.5581,5.5481,5.5179,5.5179,5.5179,5.5179,5.5179,5.5179,5.5179,5.5179,5.5179,1.5691,0.0,0.0,0.0,0.0,0.0,2.7083,3.0963,3.4843,3.7158,4.0863,4.424,4.6015,4.7341,4.8211,4.8342,4.8458,4.8934,5.0251,5.0655,5.1202,5.2407,5.292,5.3213,5.3193,5.3193,5.3134,5.3007,5.4026,5.4885,5.5473,5.5027,5.4586,5.4076,5.3915,5.3883,5.3883,5.3717,5.3617,5.3482,5.3516,5.3111,5.2334,5.0818,5.0109,5.0067,4.9323,4.9018,4.9018,4.9018,4.9018,4.9018,4.9018,4.9018,4.9086,4.983,5.0439,5.1048,5.1961,5.2672,5.3213,5.3349,5.3416,5.3416,5.3348,5.3348,5.3416,5.3416,5.3957,5.4871,5.619,5.6954,5.7514,5.7364,5.7063,5.6801,5.6757,5.6414,5.5988,5.5507,5.5458,5.5553,5.5588,5.5783,5.6809,5.9529,6.0523,6.067,5.9952,5.9599,5.9323,5.9056,5.8966,5.8637,5.7933,5.784,5.7621,5.7149,5.6988,5.67,5.6439,5.6244,5.5948,5.5481,5.5481,5.5381,5.5179,5.5179,5.5179,5.5179,5.5179,5.5179,1.6481,1.7449,1.86,1.9029,0.0,0.0,2.5129,2.8806,3.256,3.4923,3.8664,4.2229,4.4465,4.581,4.6885,4.7895,4.8181,4.8825,5.0376,5.0701,5.1434,5.2978,5.3193,5.3182,5.3213,5.3213,5.3163,5.3215,5.4355,5.5437,5.6277,5.5543,5.4896,5.4523,5.4303,5.4175,5.4175,5.411,5.3977,5.3775,5.3713,5.3443,5.3,5.1383,5.0642,5.0634,4.952,4.9018,4.9018,4.9018,4.9018,4.9018,4.9018,4.9187,4.956,5.0304,5.1048,5.1792,5.2536,5.3112,5.3518,5.3518,5.3518,5.3518,5.3518,5.3518,5.3551,5.3856,5.4702,5.5784,5.6968,5.7504,5.7735,5.7735,5.7514,5.7364,5.7364,5.7364,5.7214,5.6569,5.6603,5.6757,5.6757,5.7288,5.8719,6.1535,6.179,6.1547,6.1268,6.082,6.0482,6.0194,6.0141,5.9794,5.9266,5.9177,5.8908,5.8332,5.824,5.7902,5.737,5.7084,5.67,5.6244,5.6145,5.5948,5.5651,5.5381,5.5179,5.5179,5.5179,5.5179,1.8125,1.8785,1.9441,1.9341,2.0628,0.0,2.3519,2.6496,2.9598,3.1766,3.5581,3.9183,4.1283,4.305,4.4662,4.6055,4.6982,4.8109,4.9896,5.0377,5.1219,5.2994,5.3203,5.3188,5.3225,5.3225,5.3219,5.3207,5.4464,5.5499,5.6206,5.5794,5.5402,5.5174,5.4807,5.4683,5.4683,5.462,5.4454,5.4218,5.4058,5.4132,5.4471,5.2072,5.1167,5.1469,4.9786,4.9046,4.9018,4.9018,4.8984,4.9018,4.9086,4.9526,5.0202,5.1014,5.1758,5.2435,5.3213,5.3518,5.3518,5.3518,5.3518,5.3518,5.3518,5.3518,5.3687,5.4499,5.5716,5.6968,5.7712,5.7881,5.7881,5.7881,5.7881,5.7881,5.7881,5.7881,5.7735,5.7214,5.7356,5.7573,5.7648,5.8976,6.0545,6.2042,6.1917,6.1628,6.1628,6.135,6.1152,6.1069,6.0936,6.0802,6.0802,6.06,6.0226,5.9762,5.9674,5.9355,5.8487,5.818,5.7715,5.718,5.6892,5.67,5.6409,5.5651,5.528,5.528,5.528,5.528,1.8864,1.9687,2.0346,2.0259,2.1567,0.0,2.2283,2.5321,2.8531,2.9548,3.3652,3.7326,3.8309,3.981,4.1228,4.2162,4.3466,4.5463,4.863,4.9049,5.0079,5.2847,5.3171,5.3198,5.3188,5.3225,5.3225,5.3182,5.4473,5.5425,5.5908,5.6116,5.6146,5.5901,5.5729,5.5613,5.5613,5.5343,5.5224,5.5154,5.4852,5.4641,5.4586,5.2743,5.1905,5.1843,5.0154,4.929,4.9168,4.9168,4.9107,4.9052,4.9661,4.9965,5.0236,5.1589,5.2198,5.2435,5.3213,5.3518,5.3518,5.3518,5.3518,5.3518,5.3518,5.3518,5.3788,5.5108,5.6122,5.6968,5.7712,5.7881,5.7881,5.7881,5.7881,5.7881,5.7881,5.7881,5.7881,5.7735,5.7769,5.8011,5.8619,5.916,6.0013,6.1332,6.193,6.2223,6.2223,6.2144,6.203,6.1837,6.1756,6.1595,6.1301,6.1219,6.102,6.0736,6.06,6.0259,5.9619,5.9443,5.8908,5.8026,5.7527,5.7244,5.7149,5.6506,5.6047,5.588,5.588,5.588,2.1082,2.152,2.1836,2.1794,2.2135,0.0,0.0,2.3997,2.6204,2.6525,2.9621,3.262,3.3731,3.4601,3.5827,3.7871,3.9523,4.1888,4.5641,4.7639,4.9266,5.0602,5.219,5.3182,5.3212,5.3208,5.3198,5.3188,5.4115,5.5093,5.6055,5.6602,5.674,5.6564,5.6366,5.6311,5.6311,5.6111,5.6055,5.6055,5.5716,5.5519,5.5367,5.3533,5.2542,5.2235,5.0538,4.9708,4.9471,4.9471,4.9589,4.9841,4.9994,5.0304,5.0777,5.1894,5.257,5.2976,5.3382,5.3518,5.3518,5.3518,5.3518,5.3518,5.3518,5.4025,5.4769,5.5513,5.6494,5.7442,5.778,5.7881,5.7881,5.7881,5.7881,5.7881,5.7881,5.7881,5.7881,5.7881,5.8186,5.8558,5.8964,5.9438,6.0114,6.1129,6.1907,6.2381,6.2381,6.2381,6.2381,6.2189,6.2189,6.211,6.1904,6.1904,6.179,6.1513,6.1432,6.1185,6.0685,6.0397,5.9968,5.9266,5.8966,5.8696,5.8514,5.8148,5.7496,5.67,5.6634,5.6537,2.3522,2.3458,2.3389,2.3554,2.2693,2.1749,0.0,0.0,0.0,2.335,2.5271,2.7382,2.8845,2.9243,3.0331,3.3302,3.5119,3.7375,4.0802,4.4334,4.6824,4.7396,5.034,5.2344,5.2266,5.2259,5.225,5.227,5.3366,5.4517,5.5696,5.6588,5.7094,5.7087,5.6948,5.6861,5.6861,5.6845,5.6809,5.6809,5.6582,5.6366,5.6166,5.4217,5.3176,5.2822,5.1081,5.0194,4.9942,4.9942,5.0273,5.072,5.0487,5.0841,5.1586,5.2332,5.2942,5.3518,5.3518,5.3518,5.3518,5.3518,5.3518,5.3518,5.3687,5.4634,5.575,5.5886,5.6867,5.7881,5.7881,5.7881,5.7881,5.7881,5.7881,5.7881,5.7881,5.7881,5.7881,5.7881,5.849,5.9066,5.9201,5.9844,6.0588,6.14,6.2009,6.2381,6.2381,6.2381,6.2381,6.2381,6.2381,6.2381,6.2381,6.2381,6.2302,6.2076,6.2076,6.1917,6.1547,6.1268,6.0903,6.0482,6.0482,6.0226,5.9849,5.9849,5.9145,5.7715,5.7527,5.7464,2.5099,2.4794,2.4432,2.5217,2.3588,2.1601,2.0813,0.0,1.9987,2.0653,0.0,2.3736,2.4636,0.0,0.0,2.8418,3.0087,3.1632,3.3104,3.6176,3.9823,4.3983,4.7388,4.9259,4.89,4.8864,4.8862,4.8857,5.1621,5.3309,5.3376,5.5496,5.6937,5.7534,5.7486,5.7486,5.7486,5.7388,5.7338,5.7338,5.7188,5.6984,5.6688,5.4916,5.3939,5.3602,5.1847,5.0929,5.0694,5.0694,5.0871,5.1232,5.1439,5.1877,5.2496,5.3243,5.3516,5.3518,5.3518,5.3518,5.3518,5.3518,5.3518,5.3619,5.4262,5.504,5.5852,5.6494,5.7273,5.7881,5.7881,5.7881,5.7881,5.7881,5.7881,5.7881,5.7881,5.7881,5.7881,5.7881,5.849,5.9235,5.9877,6.0655,6.1434,6.2144,6.2347,6.2381,6.2381,6.2381,6.2381,6.2381,6.2381,6.2381,6.2381,6.2381,6.2381,6.2381,6.2381,6.2189,6.1917,6.1547,6.1301,6.1301,6.102,6.0903,6.082,6.082,6.0108,5.8728,5.876,5.8578,2.7058,2.6412,2.5788,2.5665,2.3693,2.144,2.0117,1.9525,1.9192,1.8974,0.0,0.0,0.0,0.0,0.0,0.0,2.5928,2.7324,2.9308,3.1131,3.3539,3.6916,4.0985,4.4841,4.8327,4.6768,4.477,4.2849,4.7462,5.0735,5.1674,5.4899,5.6878,5.7161,5.7601,5.7857,5.7857,5.781,5.7763,5.7763,5.7583,5.7437,5.7202,5.5473,5.4503,5.4143,5.248,5.1601,5.1244,5.1244,5.1776,5.2572,5.2637,5.2753,5.2955,5.3642,5.3783,5.3618,5.3484,5.3518,5.3518,5.3518,5.3788,5.4194,5.4499,5.5412,5.6393,5.6697,5.734,5.7881,5.7881,5.7881,5.7881,5.7881,5.7881,5.7881,5.7881,5.7881,5.8017,5.8457,5.9133,5.9877,6.0655,6.1095,6.1535,6.2279,6.2381,6.2381,6.2381,6.2381,6.2381,6.2381,6.2381,6.2381,6.2381,6.2381,6.2381,6.2381,6.2381,6.2381,6.2268,6.203,6.1984,6.1984,6.187,6.1756,6.1561,6.1561,6.1235,6.0482,6.0001,5.9772,2.9928,2.8853,2.7699,2.7099,2.4368,2.1466,2.0266,1.9258,1.8584,1.862,1.9614,0.0,0.0,0.0,2.15,2.2692,0.0,2.3975,2.5851,2.6354,2.775,3.1053,3.4701,3.9051,4.4476,4.2557,4.0,3.7649,4.2554,4.6985,4.9963,5.4038,5.6536,5.7132,5.7712,5.7997,5.7997,5.7997,5.7997,5.7997,5.7904,5.781,5.7594,5.5895,5.4989,5.4641,5.3049,5.2185,5.1884,5.2099,5.2809,5.3798,5.3885,5.395,5.3975,5.4224,5.411,5.3915,5.3717,5.3685,5.3618,5.3618,5.4127,5.4703,5.4906,5.5854,5.6833,5.7036,5.7476,5.7881,5.7881,5.7881,5.7881,5.7881,5.7881,5.7881,5.7881,5.8051,5.8355,5.8896,5.9776,6.0622,6.1197,6.1467,6.1772,6.2313,6.2381,6.2381,6.2381,6.2381,6.2381,6.2381,6.2381,6.2381,6.2381,6.2381,6.2381,6.2381,6.2381,6.2381,6.2381,6.2381,6.2381,6.2381,6.2381,6.2302,6.2076,6.2076,6.203,6.187,6.1136,6.0717,3.4079,3.2318,3.0479,3.0459,2.6067,2.1801,2.1733,1.9174,1.7461,1.9917,2.0459,2.0991,2.2613,2.2902,2.2915,2.2895,2.2217,0.0,0.0,2.102,2.2518,2.8061,2.9588,3.1507,3.4717,3.4711,3.4481,3.4337,3.7244,4.175,4.8053,5.2504,5.5852,5.7899,5.7978,5.7997,5.7997,5.7997,5.7997,5.7997,5.7997,5.795,5.7737,5.6127,5.5304,5.5103,5.3453,5.2717,5.2618,5.338,5.4037,5.4625,5.523,5.5812,5.6111,5.5259,5.4745,5.4431,5.4269,5.4076,5.398,5.398,5.4326,5.4941,5.5723,5.6365,5.6934,5.7645,5.7881,5.7881,5.7881,5.7881,5.7881,5.7881,5.7881,5.7881,5.7881,5.8457,5.8998,5.9032,6.0216,6.1264,6.1298,6.1873,6.2347,6.2381,6.2381,6.2381,6.2381,6.2381,6.2381,6.2381,6.2381,6.2381,6.2381,6.2381,6.2381,6.2381,6.2381,6.2381,6.2381,6.2381,6.2381,6.2381,6.2381,6.2381,6.2381,6.2381,6.2381,6.2381,6.187,6.1547,3.6922,3.4943,3.2789,3.1661,2.7782,2.3975,2.2898,2.1319,2.0664,2.2656,2.3549,2.428,2.5442,2.5191,2.439,2.3232,2.1799,2.0598,0.0,1.9619,2.0334,2.2814,0.0,0.0,0.0,3.1504,3.2225,3.4303,3.7264,4.0785,4.4893,4.9958,5.4002,5.6853,5.7087,5.7446,5.7997,5.7997,5.7997,5.7997,5.7997,5.774,5.7107,5.6043,5.5192,5.4598,5.3536,5.331,5.3653,5.3945,5.4729,5.5789,5.5934,5.6364,5.674,5.5808,5.5284,5.5044,5.4738,5.4586,5.4563,5.5046,5.5541,5.6064,5.6713,5.7323,5.7722,5.7887,5.7881,5.7881,5.7881,5.7881,5.7881,5.7881,5.7881,5.8017,5.8524,5.8829,5.9302,6.0317,6.096,6.1467,6.1941,6.2212,6.2381,6.2381,6.2381,6.2381,6.2381,6.2381,6.2381,6.2381,6.2381,6.2381,6.2381,6.2381,6.2381,6.2381,6.2381,6.2381,6.2381,6.2381,6.2381,6.2381,6.2381,6.2381,6.2381,6.2381,6.2381,6.2381,6.2223,6.203,3.9961,3.8204,3.6203,3.4847,3.1322,2.7926,2.693,2.5601,2.503,2.6793,2.7343,2.7694,2.8235,2.7407,2.5949,2.3901,2.1815,1.9803,0.0,1.8225,1.8982,0.0,0.0,0.0,0.0,0.0,3.1299,3.4473,3.7431,4.0388,4.3348,4.9007,5.2872,5.4381,5.5558,5.647,5.7242,5.7242,5.7537,5.8088,5.7749,5.7344,5.6785,5.5684,5.4876,5.4363,5.3555,5.3622,5.4269,5.4561,5.5395,5.6556,5.6708,5.7049,5.7289,5.6438,5.5943,5.5694,5.5484,5.5459,5.5628,5.6055,5.6675,5.7285,5.7669,5.8084,5.8456,5.8243,5.8171,5.8171,5.8027,5.8027,5.7954,5.7881,5.8084,5.8423,5.8896,5.9438,6.0114,6.1129,6.1501,6.1839,6.2313,6.2381,6.2381,6.2381,6.2381,6.2381,6.2381,6.2381,6.2381,6.2381,6.2381,6.2381,6.2381,6.2381,6.2381,6.2381,6.2381,6.2381,6.2381,6.2381,6.2381,6.2381,6.2381,6.2381,6.2381,6.2381,6.2381,6.2381,6.2381,6.2302]},{"header":{"parameterUnit":"m.s-1","parameterCategory":1,"la1":30.6,"la2":29.2853,"lo1":-89.7004,"lo2":-87.6739,"dx":0.0162,"dy":0.0183,"nx":112,"ny":82,"refTime":"2023-01-05T18:00:00:Z","depth":0,"parameterNumber":3,"parameterNumberName":"V-component_of_WINDS"},"data":[0.0,0.0,0.0,0.0,0.0,0.0,0.0,0.0,0.0,0.0,0.0,0.0,0.0,0.0,0.0,0.0,0.0,0.0,0.0,0.0,0.0,0.0,0.0,0.0,0.0,0.0,0.0,0.0,0.0,0.0,0.0,0.0,0.0,0.0,0.0,0.0,0.0,0.0,0.0,0.0,0.0,0.0,0.0,0.0,0.0,0.0,0.0,0.0,0.0,0.0,0.0,0.0,0.0,0.0,0.0,0.0,0.0,0.0,0.0,0.0,0.0,0.0,0.0,0.0,0.0,0.0,0.0,0.0,0.0,0.0,0.0,0.0,0.0,0.0,0.0,0.0,0.0,0.0,0.0,0.0,0.0,0.0,0.0,0.0,0.0,0.0,0.0,0.0,0.0,0.0,-1.911,-2.416,-2.8809,-3.1839,-3.2587,-3.0308,-2.75,-2.4442,0.0,0.0,0.0,0.0,0.0,0.0,0.0,0.0,0.0,0.0,0.0,0.0,0.0,0.0,0.0,0.0,0.0,0.0,0.0,0.0,0.0,0.0,0.0,0.0,0.0,0.0,0.0,0.0,0.0,0.0,0.0,0.0,0.0,0.0,0.0,0.0,0.0,0.0,0.0,0.0,0.0,0.0,0.0,0.0,0.0,0.0,0.0,0.0,0.0,0.0,0.0,0.0,0.0,0.0,0.0,0.0,0.0,0.0,0.0,0.0,0.0,0.0,0.0,0.0,0.0,0.0,0.0,0.0,0.0,0.0,0.0,0.0,0.0,0.0,0.0,0.0,0.0,0.0,0.0,0.0,0.0,0.0,0.0,0.0,0.0,0.0,0.0,0.0,0.0,0.0,0.0,0.0,0.0,0.0,0.0,0.0,0.0,0.0,0.0,0.0,0.0,0.0,0.0,0.0,-2.1075,-2.8,-3.0402,-3.2018,-3.3245,-3.0941,-2.8299,-2.5588,0.0,0.0,0.0,0.0,0.0,0.0,0.0,0.0,0.0,0.0,0.0,0.0,0.0,0.0,0.0,0.0,0.0,0.0,0.0,0.0,0.0,0.0,0.0,0.0,0.0,0.0,0.0,0.0,0.0,0.0,0.0,0.0,0.0,0.0,0.0,0.0,0.0,0.0,0.0,0.0,0.0,0.0,0.0,0.0,0.0,0.0,0.0,0.0,0.0,0.0,0.0,0.0,0.0,0.0,0.0,0.0,0.0,0.0,0.0,0.0,0.0,0.0,0.0,0.0,0.0,0.0,0.0,0.0,0.0,0.0,0.0,0.0,0.0,0.0,0.0,0.0,0.0,0.0,0.0,0.0,0.0,0.0,0.0,0.0,0.0,0.0,0.0,0.0,0.0,0.0,0.0,0.0,0.0,0.0,0.0,0.0,0.0,0.0,0.0,0.0,0.0,0.0,0.0,-1.995,-2.4511,-2.9572,-3.1573,-3.2956,-3.4056,-3.1722,-2.9233,-2.6822,-2.1611,0.0,0.0,0.0,0.0,0.0,0.0,0.0,0.0,0.0,0.0,0.0,0.0,0.0,0.0,0.0,0.0,0.0,0.0,0.0,0.0,0.0,0.0,0.0,0.0,0.0,0.0,0.0,0.0,0.0,0.0,0.0,0.0,0.0,0.0,0.0,0.0,0.0,0.0,0.0,0.0,0.0,0.0,0.0,0.0,0.0,0.0,0.0,0.0,0.0,0.0,0.0,0.0,0.0,0.0,0.0,0.0,0.0,0.0,0.0,0.0,0.0,0.0,0.0,0.0,0.0,0.0,0.0,0.0,0.0,0.0,0.0,0.0,0.0,0.0,0.0,0.0,0.0,0.0,0.0,0.0,0.0,0.0,0.0,0.0,0.0,0.0,0.0,0.0,0.0,0.0,0.0,0.0,0.0,0.0,0.0,0.0,0.0,0.0,0.0,0.0,0.0,0.0,-2.3065,-2.7026,-3.016,-3.2153,-3.3607,-3.4409,-3.2111,-2.9724,-2.7462,-2.2485,0.0,0.0,0.0,0.0,0.0,0.0,0.0,0.0,0.0,0.0,0.0,0.0,0.0,0.0,0.0,0.0,0.0,0.0,0.0,0.0,0.0,0.0,0.0,0.0,0.0,0.0,0.0,0.0,0.0,0.0,0.0,0.0,0.0,0.0,0.0,0.0,0.0,0.0,0.0,0.0,0.0,0.0,0.0,0.0,0.0,0.0,0.0,0.0,0.0,0.0,0.0,0.0,0.0,0.0,0.0,0.0,0.0,0.0,0.0,0.0,0.0,0.0,0.0,0.0,0.0,0.0,0.0,0.0,0.0,0.0,0.0,0.0,0.0,0.0,0.0,0.0,0.0,0.0,0.0,0.0,0.0,0.0,0.0,0.0,0.0,0.0,0.0,0.0,0.0,0.0,0.0,0.0,0.0,0.0,0.0,0.0,0.0,0.0,0.0,0.0,0.0,0.0,-2.2838,-2.673,-2.98,-3.174,-3.3111,-3.3808,-3.1703,-2.929,-2.6828,-2.2118,0.0,0.0,0.0,0.0,0.0,0.0,0.0,0.0,0.0,0.0,0.0,0.0,0.0,0.0,0.0,0.0,0.0,0.0,0.0,0.0,0.0,0.0,0.0,0.0,0.0,0.0,0.0,0.0,0.0,0.0,0.0,0.0,0.0,0.0,0.0,0.0,0.0,0.0,0.0,0.0,0.0,0.0,0.0,0.0,0.0,0.0,0.0,0.0,0.0,0.0,0.0,0.0,0.0,0.0,0.0,0.0,0.0,0.0,0.0,0.0,0.0,0.0,0.0,0.0,0.0,0.0,0.0,0.0,0.0,0.0,0.0,0.0,0.0,0.0,0.0,0.0,0.0,0.0,0.0,0.0,0.0,0.0,0.0,0.0,0.0,0.0,0.0,0.0,0.0,0.0,0.0,0.0,0.0,0.0,0.0,0.0,0.0,0.0,0.0,0.0,0.0,0.0,-2.3131,-2.6682,-2.9077,-3.0966,-3.2187,-3.272,-3.0637,-2.8432,-2.6429,0.0,0.0,0.0,0.0,0.0,0.0,0.0,0.0,0.0,0.0,0.0,0.0,0.0,0.0,0.0,0.0,0.0,0.0,0.0,0.0,0.0,0.0,0.0,0.0,0.0,0.0,0.0,0.0,0.0,0.0,0.0,0.0,0.0,0.0,0.0,0.0,0.0,0.0,0.0,0.0,0.0,0.0,0.0,0.0,0.0,0.0,0.0,0.0,0.0,0.0,0.0,0.0,0.0,0.0,0.0,0.0,0.0,0.0,0.0,0.0,0.0,0.0,0.0,0.0,0.0,0.0,0.0,0.0,0.0,0.0,0.0,0.0,0.0,0.0,0.0,0.0,0.0,0.0,0.0,0.0,0.0,0.0,0.0,0.0,0.0,0.0,0.0,0.0,0.0,0.0,0.0,0.0,0.0,0.0,0.0,0.0,0.0,0.0,0.0,0.0,0.0,0.0,-1.9096,-2.3255,-2.6585,-2.8769,-3.0553,-3.1814,-3.2252,-3.0292,-2.8157,-2.6106,0.0,0.0,0.0,0.0,0.0,0.0,0.0,0.0,0.0,0.0,0.0,0.0,0.0,0.0,0.0,0.0,0.0,0.0,0.0,0.0,0.0,0.0,0.0,0.0,0.0,0.0,0.0,0.0,0.0,0.0,0.0,0.0,0.0,0.0,0.0,0.0,0.0,0.0,0.0,0.0,0.0,0.0,0.0,0.0,0.0,0.0,0.0,0.0,0.0,0.0,0.0,0.0,0.0,0.0,0.0,0.0,0.0,0.0,0.0,0.0,0.0,0.0,0.0,0.0,0.0,0.0,0.0,0.0,0.0,0.0,0.0,0.0,0.0,0.0,0.0,0.0,0.0,0.0,0.0,0.0,0.0,0.0,0.0,0.0,0.0,0.0,0.0,0.0,0.0,0.0,0.0,0.0,0.0,0.0,0.0,0.0,0.0,0.0,0.0,0.0,0.0,0.0,-1.893,-2.2991,-2.6436,-2.8935,-3.0742,-3.1993,-3.2567,-3.0803,-2.8559,0.0,0.0,0.0,0.0,0.0,0.0,0.0,0.0,0.0,0.0,0.0,0.0,0.0,0.0,0.0,0.0,0.0,0.0,0.0,0.0,0.0,0.0,0.0,0.0,0.0,0.0,0.0,0.0,0.0,0.0,0.0,0.0,0.0,0.0,0.0,0.0,0.0,0.0,0.0,0.0,0.0,0.0,0.0,0.0,0.0,0.0,0.0,0.0,0.0,0.0,0.0,0.0,0.0,0.0,0.0,0.0,0.0,0.0,0.0,0.0,0.0,0.0,0.0,0.0,0.0,0.0,0.0,0.0,0.0,0.0,0.0,0.0,0.0,0.0,0.0,0.0,0.0,0.0,0.0,0.0,0.0,0.0,0.0,0.0,0.0,0.0,0.0,0.0,0.0,0.0,0.0,0.0,0.0,0.0,0.0,0.0,0.0,0.0,0.0,0.0,0.0,0.0,0.0,-2.0313,-2.361,-2.6596,-2.9325,-3.0392,-3.1233,-3.1928,-3.057,-2.869,-2.6214,0.0,0.0,0.0,0.0,0.0,0.0,0.0,0.0,0.0,0.0,0.0,0.0,0.0,0.0,0.0,0.0,0.0,0.0,0.0,0.0,0.0,0.0,0.0,0.0,0.0,0.0,0.0,0.0,0.0,0.0,0.0,0.0,0.0,0.0,0.0,0.0,0.0,0.0,0.0,0.0,0.0,0.0,0.0,0.0,0.0,0.0,0.0,0.0,0.0,0.0,0.0,0.0,0.0,0.0,0.0,0.0,0.0,0.0,0.0,0.0,0.0,0.0,0.0,0.0,0.0,0.0,0.0,0.0,0.0,0.0,0.0,0.0,0.0,0.0,0.0,0.0,0.0,0.0,0.0,0.0,0.0,0.0,0.0,0.0,0.0,0.0,0.0,0.0,0.0,0.0,0.0,0.0,0.0,0.0,0.0,0.0,0.0,0.0,0.0,0.0,0.0,0.0,-2.092,-2.408,-2.7002,-2.9831,-3.0809,-3.1568,-3.2205,-3.1156,-2.9464,-2.7066,0.0,0.0,0.0,0.0,0.0,0.0,0.0,0.0,0.0,0.0,0.0,0.0,0.0,0.0,0.0,0.0,0.0,0.0,0.0,0.0,0.0,0.0,0.0,0.0,0.0,0.0,0.0,0.0,0.0,0.0,0.0,0.0,0.0,0.0,0.0,0.0,0.0,0.0,0.0,0.0,0.0,0.0,0.0,0.0,0.0,0.0,0.0,0.0,0.0,0.0,0.0,0.0,0.0,0.0,0.0,0.0,0.0,0.0,0.0,0.0,0.0,0.0,0.0,0.0,0.0,0.0,0.0,0.0,0.0,0.0,0.0,0.0,0.0,0.0,0.0,0.0,0.0,0.0,0.0,0.0,0.0,0.0,0.0,0.0,0.0,0.0,0.0,0.0,0.0,0.0,0.0,0.0,0.0,0.0,0.0,0.0,0.0,0.0,0.0,0.0,0.0,0.0,-2.0961,-2.4416,-2.7524,-3.041,-3.1662,-3.2516,-3.3093,-3.2382,-3.0877,-2.8434,0.0,0.0,0.0,0.0,0.0,0.0,0.0,0.0,0.0,0.0,0.0,0.0,0.0,0.0,0.0,0.0,0.0,0.0,0.0,0.0,0.0,0.0,0.0,0.0,0.0,0.0,0.0,0.0,0.0,0.0,0.0,0.0,0.0,0.0,0.0,0.0,0.0,0.0,0.0,0.0,0.0,0.0,0.0,0.0,0.0,0.0,0.0,0.0,0.0,0.0,0.0,0.0,0.0,0.0,0.0,0.0,0.0,0.0,0.0,0.0,-1.3198,-1.1751,0.0,0.0,0.0,0.0,0.0,0.0,0.0,0.0,0.0,0.0,0.0,0.0,0.0,0.0,0.0,0.0,0.0,0.0,0.0,0.0,0.0,0.0,0.0,0.0,0.0,0.0,0.0,0.0,0.0,0.0,0.0,0.0,0.0,0.0,0.0,0.0,0.0,0.0,0.0,0.0,-2.1511,-2.4952,-2.8042,-3.0939,-3.224,-3.3119,-3.3671,-3.3669,-3.2701,-3.0471,-2.767,0.0,0.0,0.0,0.0,0.0,0.0,0.0,0.0,0.0,0.0,0.0,0.0,0.0,0.0,0.0,0.0,0.0,0.0,0.0,0.0,0.0,0.0,0.0,0.0,0.0,0.0,0.0,0.0,0.0,0.0,0.0,0.0,0.0,0.0,0.0,0.0,0.0,0.0,0.0,0.0,0.0,0.0,0.0,0.0,0.0,0.0,0.0,0.0,0.0,0.0,0.0,0.0,0.0,0.0,0.0,0.0,0.0,0.0,0.0,-1.5585,-1.4237,0.0,0.0,0.0,0.0,0.0,0.0,0.0,0.0,0.0,0.0,0.0,0.0,0.0,0.0,0.0,0.0,0.0,0.0,0.0,0.0,0.0,0.0,0.0,0.0,0.0,0.0,0.0,0.0,0.0,0.0,0.0,0.0,0.0,0.0,0.0,0.0,0.0,0.0,0.0,0.0,-2.2033,-2.5484,-2.8503,-3.114,-3.2641,-3.3596,-3.3872,-3.4212,-3.3745,-3.2219,-2.9808,0.0,0.0,0.0,0.0,0.0,0.0,0.0,0.0,0.0,0.0,0.0,0.0,0.0,0.0,0.0,0.0,0.0,0.0,0.0,0.0,0.0,0.0,0.0,0.0,0.0,0.0,0.0,0.0,0.0,0.0,0.0,0.0,0.0,0.0,0.0,0.0,0.0,0.0,0.0,0.0,0.0,0.0,0.0,0.0,0.0,0.0,0.0,0.0,0.0,0.0,0.0,0.0,0.0,-1.7756,-1.8261,-1.8809,-1.925,-1.9722,-2.0127,-1.7821,-1.6948,-1.6948,-1.5031,0.0,0.0,0.0,0.0,0.0,0.0,0.0,0.0,0.0,0.0,0.0,0.0,0.0,0.0,0.0,0.0,0.0,0.0,0.0,0.0,0.0,0.0,-1.616,-1.7203,-1.8035,-1.7874,-1.5156,0.0,0.0,0.0,0.0,0.0,0.0,0.0,0.0,0.0,0.0,0.0,-2.2652,-2.6142,-2.8966,-3.1191,-3.2968,-3.4048,-3.4048,-3.465,-3.4575,-3.3745,-3.1751,-2.9505,0.0,0.0,0.0,0.0,0.0,0.0,0.0,0.0,0.0,0.0,0.0,0.0,0.0,0.0,0.0,0.0,0.0,0.0,0.0,0.0,0.0,0.0,0.0,0.0,0.0,0.0,0.0,0.0,0.0,0.0,0.0,0.0,-1.3799,-1.3659,0.0,0.0,0.0,0.0,0.0,0.0,0.0,0.0,0.0,0.0,0.0,0.0,0.0,-1.74,-1.9032,-1.9108,-1.9484,-2.0164,-2.0213,-2.0539,-2.1037,-2.1131,-2.145,-2.1948,-2.1587,0.0,-1.9284,-1.8147,0.0,0.0,0.0,0.0,0.0,0.0,0.0,0.0,0.0,0.0,0.0,0.0,0.0,0.0,0.0,0.0,0.0,0.0,0.0,0.0,0.0,0.0,-2.0822,-2.1809,-2.2373,-2.2375,-2.1437,-1.8231,-1.5364,-1.4883,-1.413,-1.3183,0.0,0.0,0.0,0.0,0.0,0.0,-2.3806,-2.7079,-2.9631,-3.121,-3.3319,-3.4625,-3.4625,-3.5554,-3.5881,-3.5253,-3.4048,-3.2424,-3.0264,-2.7028,0.0,0.0,0.0,0.0,0.0,0.0,0.0,0.0,0.0,0.0,0.0,0.0,0.0,0.0,0.0,0.0,0.0,0.0,0.0,0.0,0.0,0.0,0.0,0.0,0.0,0.0,0.0,0.0,0.0,-1.3188,-1.4767,-1.4983,-1.4511,-1.373,0.0,0.0,0.0,0.0,0.0,0.0,0.0,0.0,0.0,-1.8657,-1.8731,-1.9384,-2.074,-2.1066,-2.1343,-2.1594,-2.1895,-2.2171,-2.2422,-2.2422,-2.2548,-2.2774,-2.2774,-2.2347,-2.1568,-2.0267,-1.8649,-1.6802,0.0,0.0,0.0,0.0,-1.3902,-1.5504,-1.6027,-1.7227,-1.842,-1.8215,0.0,0.0,0.0,0.0,0.0,0.0,0.0,-1.6278,-1.8853,-2.1255,-2.3203,-2.3917,-2.4646,-2.5088,-2.4835,-2.2766,-2.037,-1.8477,-1.7592,-1.6821,-1.5755,-1.5247,0.0,0.0,0.0,-2.164,-2.4935,-2.7901,-3.0085,-3.1235,-3.3395,-3.4726,-3.4726,-3.573,-3.6257,-3.6006,-3.5253,-3.4123,-3.26,-2.9783,-2.6841,0.0,0.0,0.0,0.0,0.0,0.0,0.0,0.0,0.0,0.0,0.0,0.0,0.0,0.0,0.0,0.0,0.0,0.0,0.0,0.0,0.0,0.0,0.0,0.0,0.0,0.0,0.0,0.0,-1.451,-1.5623,-1.6264,-1.5984,-1.5511,0.0,0.0,0.0,0.0,0.0,0.0,-1.7526,-1.8012,-1.8922,-2.036,-2.0439,-2.0916,-2.1895,-2.2472,-2.2749,-2.2749,-2.3301,-2.3502,-2.3351,-2.3351,-2.3276,-2.3065,-2.3065,-2.3065,-2.3025,-2.17,-2.062,-1.9586,-1.8226,-1.7488,-1.7076,-1.6747,-1.7618,-1.9107,-1.9637,-2.0833,-2.2207,-2.2462,-2.1773,-2.0646,-1.976,0.0,0.0,0.0,0.0,-2.001,-2.2165,-2.4091,-2.5654,-2.6131,-2.6926,-2.7494,-2.7344,-2.6666,-2.5174,-2.2051,-2.0913,-2.0137,-1.9201,-1.8753,0.0,-2.0022,-2.1666,-2.3772,-2.6493,-2.8746,-3.0565,-3.1486,-3.3345,-3.45,-3.45,-3.5403,-3.5931,-3.5931,-3.568,-3.5127,-3.4148,-3.1921,-2.953,-2.6857,0.0,0.0,0.0,0.0,0.0,0.0,0.0,0.0,0.0,0.0,0.0,0.0,0.0,0.0,0.0,0.0,0.0,0.0,0.0,0.0,0.0,0.0,0.0,0.0,0.0,0.0,0.0,0.0,0.0,-1.7959,-1.8078,0.0,0.0,0.0,0.0,-1.7977,-1.8518,-1.9316,-2.0407,-2.0514,-2.1052,-2.2171,-2.2196,-2.2472,-2.299,-2.3627,-2.3904,-2.3929,-2.4481,-2.4456,-2.3954,-2.3954,-2.3653,-2.3065,-2.3065,-2.3065,-2.3015,-2.2472,-2.1895,-2.1352,-2.0727,-2.047,-2.0492,-2.0996,-2.1855,-2.2904,-2.3519,-2.4406,-2.5274,-2.4822,-2.3593,-2.22,-2.1837,-2.0865,0.0,0.0,-2.2495,-2.3728,-2.5522,-2.7451,-2.9051,-2.9602,-3.0059,-3.0256,-2.9729,-2.9578,-2.8549,-2.5209,-2.3397,-2.2223,-2.1695,0.0,-2.1478,-2.3232,-2.385,-2.5268,-2.8568,-2.9907,-3.0984,-3.2064,-3.3244,-3.3947,-3.3947,-3.4474,-3.4801,-3.4801,-3.5278,-3.5278,-3.47,-3.3694,-3.2422,-3.0724,-2.7214,0.0,0.0,0.0,0.0,0.0,0.0,0.0,0.0,0.0,0.0,0.0,0.0,0.0,0.0,0.0,0.0,0.0,0.0,0.0,0.0,0.0,0.0,0.0,0.0,0.0,0.0,0.0,0.0,-1.8706,-1.9032,0.0,-1.8958,-1.8933,-1.9182,-1.978,-2.0611,-2.142,-2.2163,-2.2621,-2.3169,-2.3904,-2.3929,-2.4029,-2.4205,-2.4431,-2.4531,-2.4531,-2.4381,-2.418,-2.3979,-2.3602,-2.3265,-2.3065,-2.3065,-2.3065,-2.3125,-2.3339,-2.3272,-2.3153,-2.3255,-2.3364,-2.3364,-2.3541,-2.436,-2.5289,-2.5508,-2.6311,-2.7141,-2.6554,-2.6012,-2.5433,-2.4634,-2.4142,-2.3986,-2.489,-2.5608,-2.6476,-2.824,-2.9371,-3.022,-3.0748,-3.1051,-3.106,-3.0859,-3.0557,-2.998,-2.8775,-2.7566,-2.662,-2.6105,-2.5677,-2.5588,-2.6044,-2.6536,-2.7531,-2.9328,-3.0432,-3.1386,-3.2139,-3.3219,-3.3897,-3.3897,-3.4399,-3.4726,-3.4726,-3.4901,-3.4926,-3.4726,-3.3758,-3.2634,-3.1458,-2.9006,-2.6661,0.0,0.0,0.0,0.0,0.0,0.0,0.0,0.0,0.0,0.0,0.0,0.0,0.0,0.0,0.0,0.0,0.0,0.0,0.0,0.0,0.0,0.0,0.0,0.0,0.0,-1.7551,-1.9359,-1.956,-2.0039,-2.0416,-2.0639,-2.0614,-2.0894,-2.1468,-2.2347,-2.305,-2.3401,-2.3954,-2.4431,-2.4808,-2.4833,-2.4833,-2.4833,-2.4983,-2.5084,-2.5084,-2.4707,-2.4456,-2.4255,-2.3678,-2.3326,-2.3065,-2.3065,-2.3236,-2.3457,-2.4013,-2.4408,-2.4598,-2.4946,-2.5166,-2.5385,-2.5593,-2.6151,-2.6855,-2.7144,-2.7773,-2.8312,-2.8169,-2.8251,-2.8324,-2.7651,-2.7579,-2.7753,-2.8256,-2.8611,-2.9118,-3.0188,-3.0834,-3.1264,-3.1602,-3.1794,-3.1964,-3.1964,-3.1838,-3.1712,-3.1712,-3.0461,-2.9277,-2.8874,-2.8594,-2.8489,-2.852,-2.8848,-2.9428,-3.0457,-3.1235,-3.1888,-3.2441,-3.3169,-3.3545,-3.3345,-3.3847,-3.4073,-3.3897,-3.4223,-3.4449,-3.4449,-3.3571,-3.2827,-3.2155,-2.9884,-2.7679,-2.5511,0.0,0.0,0.0,0.0,0.0,0.0,0.0,0.0,0.0,0.0,0.0,0.0,0.0,0.0,0.0,0.0,0.0,0.0,0.0,0.0,0.0,0.0,0.0,-1.735,-1.8832,-2.0087,-2.0718,-2.1205,-2.1767,-2.2272,-2.2304,-2.2531,-2.3125,-2.3678,-2.4004,-2.4054,-2.4556,-2.4858,-2.4883,-2.4883,-2.4883,-2.4883,-2.5385,-2.5611,-2.5586,-2.5586,-2.5285,-2.4782,-2.423,-2.3678,-2.309,-2.315,-2.3457,-2.4099,-2.4598,-2.5161,-2.5614,-2.5614,-2.5999,-2.6559,-2.713,-2.7301,-2.7468,-2.8549,-2.8913,-2.904,-2.9677,-3.0206,-3.0662,-3.0648,-3.1035,-3.1371,-3.1371,-3.1397,-3.1397,-3.1397,-3.1776,-3.2204,-3.2228,-3.2685,-3.3119,-3.3119,-3.3545,-3.3922,-3.3922,-3.1763,-2.9955,-2.9955,-2.993,-3.0105,-3.0633,-3.0708,0.0,-3.2139,-3.2265,-3.2491,-3.3068,-3.3119,-3.2893,-3.2315,-3.2792,-3.2893,-3.229,-3.3319,-3.3922,-3.3922,-3.337,-3.3068,-3.3043,-3.0138,-2.7327,-2.4777,0.0,0.0,0.0,0.0,0.0,0.0,0.0,0.0,0.0,0.0,0.0,0.0,0.0,0.0,0.0,0.0,0.0,0.0,0.0,0.0,0.0,-1.6095,-1.7928,-1.8505,-2.0338,-2.1669,-2.1845,-2.2355,-2.2732,-2.2899,-2.2874,-2.3125,-2.3728,-2.3904,-2.433,-2.5109,-2.531,-2.5586,-2.5988,-2.6013,-2.6013,-2.6013,-2.6138,-2.6013,-2.5586,-2.5209,-2.4757,-2.4205,-2.3627,-2.3527,-2.3753,-2.3745,-2.4099,-2.465,-2.5178,-2.5444,-2.5652,-2.6095,-2.6358,-2.6559,-2.713,-2.7809,-2.8599,-2.9705,-3.0152,-3.0258,-3.0803,-3.106,-3.116,-3.114,-3.1246,-3.1398,-3.1381,-3.1422,-3.1472,-3.1872,-3.2052,-3.2401,-3.3217,-3.3532,-3.3796,-3.4198,-3.4399,-3.45,-3.45,-3.3897,-3.337,-3.337,-3.3043,-3.2817,-3.2968,-3.2641,-3.2641,-3.3345,-3.3445,-3.3646,-3.4198,-3.4274,-3.4048,-3.3495,-3.3947,-3.4022,-3.347,-3.4098,-3.45,-3.45,-3.3571,-3.2978,-3.2634,-3.1402,-3.0394,0.0,0.0,0.0,0.0,0.0,0.0,0.0,0.0,0.0,0.0,0.0,0.0,0.0,0.0,0.0,0.0,0.0,0.0,0.0,0.0,0.0,0.0,-1.8279,-1.9861,-2.0586,-2.1845,-2.2648,-2.2648,-2.2949,-2.3065,-2.3065,-2.3341,-2.3616,-2.3979,-2.4406,-2.4933,-2.5561,-2.5837,-2.6113,-2.6508,-2.6533,-2.6533,-2.6533,-2.6227,-2.5927,-2.5586,-2.4818,-2.4292,-2.3979,-2.3653,-2.3678,-2.4004,-2.4241,-2.4617,-2.5174,-2.5478,-2.5753,-2.599,0.0,0.0,0.0,0.0,-2.8674,-2.9677,-3.0341,-3.0783,-3.0974,-3.1264,-3.1522,-3.1731,-3.172,-3.1914,-3.2081,-3.2141,-3.225,-3.2536,-3.2832,-3.3107,-3.3405,-3.4049,-3.427,-3.4324,-3.465,-3.4901,-3.5077,-3.5077,-3.5253,0.0,-3.5403,-3.4751,-3.4248,-3.4248,-3.3972,-3.3872,-3.4198,-3.4248,-3.4374,-3.47,-3.4726,-3.45,-3.3947,-3.4399,0.0,0.0,0.0,-3.4625,-3.4374,-3.3771,0.0,0.0,0.0,-3.2086,-3.1665,-3.1004,0.0,0.0,-2.4961,-2.5598,0.0,0.0,0.0,0.0,0.0,0.0,0.0,0.0,0.0,0.0,0.0,0.0,0.0,0.0,0.0,0.0,-2.0539,-2.1945,-2.3,-2.3065,-2.3065,-2.3065,-2.3065,-2.3065,-2.3065,-2.3691,-2.4004,-2.4067,-2.5034,-2.5611,-2.5686,-2.6189,0.0,0.0,0.0,-2.6533,-2.6533,-2.5871,-2.5549,-2.5526,-2.4593,-2.4029,-2.4004,-2.4054,-2.413,-2.4205,-2.4657,-2.5228,-2.5663,-2.5685,-2.599,-2.6533,-2.6533,-2.6829,-2.7525,-2.8424,-2.9524,-3.0495,-3.062,0.0,0.0,-3.1504,-3.1938,-3.2337,-3.2384,-3.2782,-3.323,-3.3233,-3.3605,-3.3953,-3.3949,-3.4322,-3.4753,-3.4736,-3.4794,-3.4826,-3.4901,-3.5303,-3.5629,-3.5629,-3.6031,-3.6358,-3.6358,-3.5554,-3.4901,-3.4901,-3.4901,-3.4901,-3.4901,-3.4901,-3.4901,-3.4901,-3.4901,0.0,-3.4123,-3.46,-3.4675,-3.4123,-3.46,-3.465,-3.4098,-3.4098,-3.3897,-3.3445,-3.3445,-3.3244,-3.2867,-3.2867,-3.2867,-3.2792,-3.0522,-3.008,0.0,0.0,0.0,0.0,0.0,0.0,0.0,0.0,0.0,0.0,0.0,0.0,0.0,0.0,0.0,-1.9962,-2.1368,-2.2397,-2.299,-2.3065,-2.3065,-2.3065,-2.3065,-2.3065,-2.3065,-2.3678,-2.4217,-2.4598,-2.5269,-2.5812,-2.6264,-2.6458,-2.6533,-2.6533,-2.6533,-2.6533,-2.6533,-2.5871,-2.5344,-2.4963,-2.4728,0.0,-2.4004,-2.4456,-2.4883,-2.5285,-2.542,-2.5775,-2.635,-2.6339,-2.6414,-2.6533,-2.6533,-2.7058,-2.7946,-2.8212,-2.8991,-3.0055,-3.0968,-3.1296,-3.1504,-3.2475,-3.2893,-3.2988,-3.3487,-3.3632,0.0,-3.428,-3.445,-3.4552,-3.4524,-3.4582,-3.4785,-3.5214,-3.5326,-3.5504,-3.5956,-3.6132,-3.6207,-3.6207,-3.6282,-3.6358,-3.6358,-3.6182,-3.6031,-3.6031,-3.6031,-3.6031,-3.6031,-3.6031,-3.6031,-3.6031,-3.6031,-3.583,-3.5278,-3.573,-3.5805,-3.5253,-3.573,-3.5805,-3.5253,-3.5228,-3.5378,-3.573,-3.573,-3.6107,-3.6885,-3.6885,-3.6885,-3.681,-3.3857,-3.3115,0.0,0.0,0.0,0.0,0.0,0.0,0.0,0.0,0.0,0.0,0.0,-1.4563,-1.6245,0.0,-1.956,-2.1217,-2.2171,-2.2824,-2.304,-2.321,-2.321,-2.3125,-2.3065,-2.3226,-2.3624,-2.4179,-2.4785,-2.5466,-2.5987,-2.6435,-2.6714,-2.6739,-2.6739,-2.6739,-2.6645,-2.6645,-2.6645,-2.594,-2.5443,-2.5217,-2.4893,-2.4653,-2.4431,-2.4958,-2.536,-2.5611,-2.5937,-2.6198,-2.6533,-2.6533,-2.6653,-2.6891,-2.6891,-2.7384,-2.8149,-2.8746,-2.9499,-3.0237,-3.0798,-3.1314,-3.1908,-3.2475,-3.3043,-3.3528,-3.3801,-3.4098,-3.4338,-3.4617,-3.4911,-3.5149,-3.5095,-3.5376,-3.5594,-3.5918,-3.5962,-3.6031,-3.6307,-3.6358,-3.6358,-3.6358,-3.6358,-3.6358,-3.6358,-3.6358,-3.6358,-3.6358,-3.6358,-3.6358,-3.6358,-3.6358,-3.6358,-3.6358,-3.6358,-3.6257,-3.5981,-3.6458,-3.6659,-3.6383,-3.6885,-3.7061,-3.6784,-3.6784,-3.691,-3.7186,-3.7186,-3.7462,-3.8015,-3.8015,-3.8015,-3.7965,-3.6402,-3.6016,0.0,0.0,0.0,0.0,0.0,0.0,0.0,-1.3048,-1.4036,-1.4626,-1.6019,-1.7501,-1.8631,-2.0064,-2.1373,-2.238,-2.2908,-2.3271,-2.3271,-2.345,-2.3535,-2.3457,-2.3422,-2.3599,-2.4238,-2.4963,-2.5679,-2.6322,-2.6837,-2.7214,-2.7214,-2.7214,-2.7214,-2.7121,-2.7027,-2.6892,-2.6833,-2.6271,-2.5902,-2.5719,-2.5441,-2.5174,-2.5048,-2.5577,-2.5829,-2.5787,-2.6264,-2.6559,-2.6653,-2.6653,-2.7011,-2.7447,-2.7545,-2.7844,-2.8389,-2.9252,-2.9932,-3.0444,-3.0573,-3.1221,-3.2062,-3.219,-3.2932,-3.3903,-3.4009,-3.4454,-3.4887,-3.503,-3.5367,-3.563,-3.5662,-3.6031,-3.6358,-3.6358,-3.6358,-3.6358,-3.6358,-3.6358,-3.6358,-3.6358,-3.6358,-3.6358,-3.6358,-3.6358,-3.6358,-3.6358,-3.6358,-3.6358,-3.6358,-3.6358,-3.6358,-3.6358,-3.6358,-3.6408,-3.6508,-3.7036,-3.7337,-3.7337,-3.7764,-3.8015,-3.8015,-3.8015,-3.8065,-3.8165,-3.8165,-3.8241,-3.8341,-3.8341,-3.8391,-3.8492,-3.8492,-3.8366,-1.0803,-1.2089,-1.344,-1.4,-1.4077,-1.4097,0.0,-1.5287,-1.6321,-1.6898,-1.8304,-1.9786,-2.0916,-2.1807,-2.2578,-2.3213,-2.3603,-2.3832,-2.3832,-2.3923,-2.4197,-2.4745,-2.4494,-2.4423,-2.4602,-2.5818,-2.6596,-2.6805,-2.7459,-2.7855,-2.7881,-2.7881,-2.7855,-2.7683,-2.7683,-2.7575,-2.7439,-2.737,-2.7003,-2.6342,-2.679,-2.656,-2.5826,-2.6291,-2.6501,-2.6433,-2.6508,-2.6772,-2.725,-2.725,-2.7516,-2.8084,-2.8525,-2.8771,-2.882,-2.8917,-2.9397,-2.9932,-3.0444,-3.1009,-3.1573,-3.2012,-3.2932,-3.3994,-3.4453,-3.5026,-3.5536,-3.6043,-3.6213,-3.6307,-3.6282,-3.6307,-3.6358,-3.6358,-3.6358,-3.6358,-3.6358,-3.6358,-3.6358,-3.6358,-3.6358,-3.6358,-3.6358,-3.6358,-3.6358,-3.6358,-3.6358,-3.6358,-3.6358,-3.6358,-3.6358,-3.6358,-3.6358,-3.6558,-3.7061,-3.7588,-3.7914,-3.7914,-3.7965,-3.8015,-3.8015,-3.8015,-3.8241,-3.8768,-3.8768,-3.9019,-3.9496,-3.9496,-3.9747,-4.0224,-4.0224,-3.9722,-1.2594,-1.3785,-1.4875,-1.5542,-1.5984,-1.6365,-1.693,-1.756,-1.8129,-1.8681,-1.9585,-2.0439,-2.097,-2.1913,-2.2712,-2.3,-2.3573,-2.4041,-2.4157,-2.4421,-2.4865,-2.5453,-2.5861,-2.6115,-2.6169,-2.6844,-2.7461,-2.7991,-2.84,-2.8638,-2.8665,-2.8665,-2.8638,-2.8546,-2.8325,-2.8317,-2.8639,-2.8519,-2.8354,-2.8261,-2.8056,-2.7613,-2.7043,-2.6824,-2.6645,-2.6533,-2.6797,-2.713,-2.7352,-2.7626,-2.8125,-2.8598,-2.8795,-2.9118,-2.9397,-2.9397,-2.9549,-2.9804,-3.006,-3.0701,-3.1395,-3.1645,-3.2746,-3.3933,-3.4132,-3.4887,-3.5536,-3.5824,-3.6163,-3.6358,-3.6358,-3.6358,-3.6358,-3.6358,-3.6358,-3.6358,-3.6358,-3.6358,-3.6358,-3.6358,-3.6358,-3.6358,-3.6358,-3.6358,-3.6358,-3.6358,-3.6358,-3.6358,-3.6358,-3.6358,-3.6483,-3.681,-3.6835,-3.7061,-3.7613,-3.8191,-3.8517,-3.8517,-3.8818,-3.8994,-3.8994,-3.8994,-3.9094,-3.9346,-3.9672,-3.9948,-4.0174,-4.0501,-4.0777,-4.1003,-4.1003,-4.0752,-1.3793,-1.4825,-1.5807,-1.6521,-1.7166,-1.7891,-1.8732,-1.9033,-1.9309,-1.9736,-2.0315,-2.0772,-2.0772,-2.1746,-2.266,-2.2985,-2.3721,-2.438,-2.4738,-2.524,-2.5852,-2.6431,-2.7273,-2.7885,-2.8029,-2.8208,-2.8526,-2.9129,-2.9401,-2.9526,-2.9526,-2.9526,-2.9463,-2.9401,-2.9351,-2.95,-2.9886,-2.9941,-3.001,-2.9963,-2.93,-2.8607,-2.7941,-2.7191,-2.6815,-2.6772,-2.7276,-2.7608,-2.7738,-2.8123,-2.8635,-2.9142,-2.9142,-2.9397,-2.9804,-2.9932,-3.0035,-3.0035,-3.0035,-3.0727,-3.1629,-3.162,-3.2635,-3.3918,-3.3892,-3.4527,-3.5244,-3.5244,-3.5561,-3.5993,-3.6138,-3.6163,-3.6188,-3.6332,-3.6358,-3.6358,-3.6358,-3.6358,-3.6358,-3.6358,-3.6358,-3.6358,-3.6358,-3.6483,-3.6584,-3.6584,-3.6709,-3.6709,-3.6408,-3.6483,-3.6734,-3.7136,-3.7462,-3.7814,-3.8216,-3.8768,-3.9094,-3.9094,-3.9471,-3.9697,-3.9697,-3.9697,-3.9772,-3.9923,-4.03,-4.0601,-4.0752,-4.1153,-4.143,-4.1555,-4.1555,-4.1656,-1.4105,-1.5248,-1.6475,-1.7054,-1.772,-1.8447,-1.9056,-1.9371,-1.9631,-1.9759,-2.0393,-2.0904,-2.0904,-2.1794,-2.2775,-2.355,-2.4259,-2.4964,-2.5741,-2.6635,-2.7483,-2.8026,-2.8857,-2.9518,-3.0179,-2.9903,-2.9842,-3.0054,-3.0387,-3.0568,-3.0568,-3.0568,-3.0447,-3.0266,-3.0902,-3.1117,-3.0942,-3.2018,-3.2027,-3.087,-3.0502,-2.9583,-2.8199,-2.7524,-2.7276,-2.7276,-2.7851,-2.8405,-2.8892,-2.8864,-2.9245,-2.9779,-2.9779,-2.9779,-2.9907,-3.0341,-3.0573,-3.0573,-3.0573,-3.1268,-3.2202,-3.2206,-3.2932,-3.3938,-3.3878,-3.4315,-3.4689,-3.4681,-3.4744,-3.4887,-3.5392,-3.5536,-3.568,-3.6307,-3.6358,-3.6358,-3.6358,-3.6358,-3.6358,-3.6358,-3.6358,-3.6358,-3.6358,-3.681,-3.7161,-3.7161,-3.7613,-3.7563,-3.6508,-3.6835,-3.7161,-3.7186,-3.8165,-3.8818,-3.8843,-3.9346,-3.9672,-3.9672,-3.9697,-3.9697,-3.9697,-3.9697,-3.9948,-4.0475,-4.0501,-4.0777,-4.1304,-4.1329,-4.1605,-4.2133,-4.2133,-4.2409,-1.4403,-1.5494,-1.6631,-1.7444,-1.8165,-1.8765,-1.9395,-1.956,-1.9656,-1.9759,-1.9788,-1.9788,-1.9838,-2.1094,-2.2324,-2.2771,-2.4773,-2.6438,-2.6747,-2.7705,-2.8621,-2.9232,-2.9667,-3.0104,-3.0777,-3.0628,-3.0507,-3.0568,-3.0776,-3.0955,-3.0955,-3.0955,-3.0895,-3.0836,-3.1329,-3.182,-3.2159,-3.2558,-3.2709,-3.2511,-3.0569,-2.905,-2.7769,-2.7456,-2.749,-2.7834,-2.8391,-2.8724,-2.8889,-2.9372,-2.9651,-2.9804,-2.9804,-3.0035,-3.0341,-3.0573,-3.1019,-3.1647,-3.1249,-3.1564,-3.2223,-3.2226,-3.2746,-3.3366,-3.3366,-3.3776,-3.4142,-3.4136,-3.4451,-3.4756,-3.4921,-3.5007,-3.5069,-3.5705,-3.5805,-3.5906,-3.6282,-3.6358,-3.6358,-3.6358,-3.6358,-3.6483,-3.6835,-3.7061,-3.7312,-3.7688,-3.7889,-3.7864,-3.7513,-3.7613,-3.7864,-3.8266,-3.8642,-3.9019,-3.9396,-3.9597,-3.9697,-3.9697,-3.9697,-3.9697,-3.9697,-4.0049,-4.0325,-4.0526,-4.1229,-4.1706,-4.1882,-4.2233,-4.2534,-4.271,-4.271,-4.2811,-1.4689,-1.5725,-1.6703,-1.7554,-1.8197,-1.8792,-1.9259,-1.9449,-1.9638,-1.985,-1.9685,-1.9659,-1.9913,-2.1292,-2.2592,-2.3335,-2.5607,-2.7465,-2.8039,-2.8983,-2.9766,-3.0155,-3.0535,-3.0832,-3.1219,-3.1132,-3.1043,-3.0984,-3.1132,-3.1249,-3.1249,-3.1249,-3.1367,-3.1605,-3.2106,-3.2694,-3.3343,-3.3445,-3.3206,-3.2528,-3.0542,-2.8958,-2.791,-2.7895,-2.8037,-2.8431,-2.9,-2.9245,-2.9269,-2.9651,-2.9804,-2.9804,-3.0035,-3.0316,-3.0675,-3.1048,-3.1597,-3.2179,-3.1773,-3.2044,-3.25,-3.25,-3.2771,-3.3068,-3.3068,-3.3341,-3.3639,-3.3639,-3.3827,-3.4126,-3.4375,-3.4386,-3.4578,-3.5093,-3.5177,-3.5403,-3.5956,-3.6081,-3.6132,-3.6332,-3.6508,-3.6759,-3.7136,-3.7513,-3.7965,-3.8517,-3.8617,-3.8467,-3.8065,-3.8191,-3.8467,-3.8818,-3.9044,-3.932,-3.9672,-3.9697,-3.9697,-3.9697,-3.9697,-3.9798,-3.9973,-4.0325,-4.0701,-4.1103,-4.1806,-4.2258,-4.2459,-4.2811,-4.2986,-4.2986,-4.2986,-4.2986,-1.4993,-1.5915,-1.6892,-1.7382,-1.7946,-1.8468,-1.877,-1.9202,-1.9594,-1.9951,-2.0107,-2.0348,-2.1017,-2.2123,-2.3407,-2.4952,-2.6506,-2.8047,-2.9415,-3.0437,-3.1,-3.086,-3.1377,-3.1742,-3.1539,-3.1482,-3.1482,-3.1336,-3.1424,-3.1482,-3.1511,-3.1511,-3.1898,-3.2527,-3.3215,-3.3844,-3.4472,-3.461,-3.3516,-3.1288,-3.0449,-2.9544,-2.8473,-2.8725,-2.8889,-2.8991,-2.9524,-2.9804,-2.9804,-2.9804,-2.9804,-2.9854,-3.0367,-3.0649,-3.0773,-3.1838,-3.2204,-3.2204,-3.2204,-3.261,-3.3068,-3.3068,-3.3068,-3.3068,-3.3068,-3.3068,-3.3068,-3.3068,-3.3068,-3.3205,-3.3776,-3.3827,-3.3979,-3.4527,-3.4679,-3.4801,-3.5378,-3.5437,-3.5705,-3.6207,-3.681,-3.7236,-3.7262,-3.8191,-3.9094,-3.9622,-3.9697,-3.9295,-3.8241,-3.8567,-3.8919,-3.8919,-3.9371,-3.9697,-3.9697,-3.9697,-3.9697,-3.9697,-3.9722,-3.9973,-4.0501,-4.0576,-4.1103,-4.2133,-4.2183,-4.2459,-4.2986,-4.2986,-4.2986,-4.2986,-4.2986,-4.2986,-1.5907,-1.6738,-1.7388,-1.8075,-1.8444,-1.8867,-1.9415,-1.9641,-1.9854,-2.0256,-1.9793,-1.9609,-2.0526,-2.1322,-2.2282,-2.3817,-2.6453,-2.8607,-2.9475,-3.086,-3.1697,-3.1585,-3.1679,-3.1742,-3.1539,-3.1482,-3.1482,-3.1482,-3.1482,-3.1749,-3.2228,-3.2258,-3.2557,-3.3215,-3.3873,-3.4292,-3.4472,-3.4214,-3.2933,-3.0811,-3.0306,-2.9605,-2.88,-2.887,-2.9142,-2.9549,-2.9754,-2.9804,-2.9804,-2.9804,-3.0002,-3.0403,-3.0544,-3.1069,-3.1863,-3.2116,-3.2475,-3.2907,-3.2907,-3.2932,-3.3068,-3.3068,-3.3068,-3.3068,-3.3068,-3.3068,-3.3068,-3.3068,-3.3068,-3.3093,-3.323,-3.3341,-3.3417,-3.4005,-3.4132,-3.4237,-3.4751,-3.5253,-3.5579,-3.573,-3.686,-3.7939,-3.8366,-3.9019,-3.9521,-3.9672,-3.9697,-3.9597,-3.9295,-3.9396,-3.9496,-3.9496,-3.9622,-3.9697,-3.9697,-3.9697,-3.9697,-3.9697,-4.0074,-4.0375,-4.0501,-4.1304,-4.1856,-4.2158,-4.2559,-4.2836,-4.2986,-4.2986,-4.2986,-4.2986,-4.2986,-4.2986,-1.678,-1.7235,-1.7647,-1.8259,-1.8594,-1.8826,-1.893,-1.9177,-1.9399,-1.9342,-1.9109,-1.9183,-2.0192,-2.1111,-2.2395,-2.4476,-2.6924,-2.8996,-3.0363,-3.1455,-3.2053,-3.1883,-3.1883,-3.1769,-3.1539,-3.1482,-3.1601,-3.1928,-3.1958,-3.2108,-3.2497,-3.2796,-3.3184,-3.3779,-3.4137,-3.4273,-3.4178,-3.3693,-3.2569,-3.0949,-3.057,-3.0035,-2.9269,-2.9269,-2.9499,-2.9804,-2.9804,-2.9804,-2.9804,-3.0055,-3.0328,-3.0678,-3.1128,-3.1669,-3.2204,-3.25,-3.2796,-3.3068,-3.3068,-3.3068,-3.3068,-3.3068,-3.3068,-3.3068,-3.3068,-3.3068,-3.3068,-3.3068,-3.3068,-3.3068,-3.3068,-3.3068,-3.3205,-3.3503,-3.3528,-3.373,-3.4198,-3.46,-3.5027,-3.5755,-3.7036,-3.8191,-3.8768,-3.932,-3.9697,-3.9697,-3.9697,-3.9697,-3.9697,-3.9697,-3.9697,-3.9697,-3.9697,-3.9697,-3.9697,-3.9923,-4.0049,-4.0049,-4.0576,-4.0978,-4.1229,-4.1831,-4.2258,-4.2509,-4.2811,-4.2986,-4.2986,-4.2986,-4.2986,-4.2986,-4.2986,-4.3112,-1.7461,-1.7579,-1.7784,-1.8192,-1.8529,-1.866,-1.8114,-1.8437,-1.8674,-1.8081,-1.8258,-1.8884,-1.9965,-2.1108,-2.2845,-2.5602,-2.7214,-2.8896,-3.1027,-3.1728,-3.1987,-3.191,-3.194,-3.1826,-3.1539,-3.1482,-3.1809,-3.2467,-3.2587,-3.2677,-3.2766,-3.3305,-3.3779,-3.4243,-3.4209,-3.4017,-3.3687,-3.3185,-3.2372,-3.1137,-3.0823,-3.0368,-2.9804,-2.9804,-2.9804,-2.9804,-2.9804,-2.9854,-2.9927,-3.0457,-3.0678,-3.0929,-3.1838,-3.2223,-3.2364,-3.2907,-3.3068,-3.3068,-3.3068,-3.3068,-3.3068,-3.3068,-3.3068,-3.3068,-3.3068,-3.3068,-3.3068,-3.3068,-3.3068,-3.3068,-3.3068,-3.3068,-3.3068,-3.3068,-3.3068,-3.3219,-3.3696,-3.3897,-3.4474,-3.6056,-3.7186,-3.809,-3.8668,-3.922,-3.9597,-3.9597,-3.9647,-3.9722,-3.9798,-3.9798,-3.9798,-3.9798,-3.9873,-3.9923,-3.9923,-4.035,-4.0626,-4.0626,-4.1153,-4.1656,-4.2133,-4.2233,-4.2484,-4.2961,-4.2986,-4.2986,-4.2986,-4.2986,-4.2986,-4.2986,-4.3062,-4.3338,-1.7647,-1.7716,-1.7784,-1.8192,-1.8414,-1.8542,-1.8317,-1.8405,-1.8463,-1.8337,-1.8078,-1.8314,-1.9763,-2.0615,-2.1796,-2.4002,-2.5839,-2.7559,-2.916,-3.0231,-3.105,-3.1534,-3.1712,-3.1712,-3.1539,-3.1482,-3.1809,-3.2467,-3.3006,-3.3574,-3.4113,-3.4107,-3.4144,-3.4359,-3.4196,-3.3819,-3.3129,-3.2889,-3.2198,-3.101,-3.0839,-3.0368,-2.9804,-2.9804,-2.9804,-2.9804,-2.9804,-3.0024,-3.0431,-3.0518,-3.1129,-3.1938,-3.2117,-3.2491,-3.2932,-3.3068,-3.3068,-3.3068,-3.3068,-3.3068,-3.3068,-3.3068,-3.3068,-3.3068,-3.3068,-3.3068,-3.3068,-3.3068,-3.3068,-3.3068,-3.3068,-3.3068,-3.3068,-3.3068,-3.3068,-3.3093,-3.3194,-3.3947,-3.4926,-3.6132,-3.6885,-3.7513,-3.8065,-3.8642,-3.9019,-3.9019,-3.9396,-3.9848,-4.0325,-4.0375,-4.0375,-4.0375,-4.0777,-4.1053,-4.1053,-4.1153,-4.1204,-4.1204,-4.1706,-4.2057,-4.2158,-4.2585,-4.2886,-4.2986,-4.2986,-4.2986,-4.2986,-4.2986,-4.2986,-4.2986,-4.3438,-4.3714,-1.7647,-1.7696,-1.7765,-1.8056,-1.8347,-1.8368,-1.7877,-1.7883,-1.775,-1.7148,-1.6977,-1.7314,-1.8334,-1.9478,-2.0907,-2.2748,-2.4507,-2.6286,-2.8279,-2.9278,-3.0149,-3.1129,-3.1509,-3.1567,-3.1394,-3.1482,-3.1958,-3.2946,-3.3305,-3.3784,-3.4286,-3.4192,-3.3972,-3.3503,-3.3067,-3.2416,-3.1528,-3.1433,-3.0983,-3.0241,-3.0361,-3.0139,-2.9804,-2.9804,-2.9804,-2.9804,-2.9804,-3.0124,-3.0572,-3.0885,-3.1472,-3.2215,-3.2533,-3.2861,-3.3068,-3.3068,-3.3068,-3.3068,-3.3068,-3.3068,-3.3068,-3.3068,-3.3068,-3.3068,-3.3068,-3.3068,-3.3068,-3.3068,-3.3068,-3.3068,-3.3068,-3.3068,-3.3068,-3.3068,-3.3068,-3.3169,-3.3445,-3.4148,-3.4951,-3.578,-3.6609,-3.7262,-3.7538,-3.804,-3.8417,-3.8417,-3.8894,-3.9471,-4.0023,-4.0601,-4.0953,-4.0953,-4.1178,-4.1329,-4.1329,-4.1605,-4.1756,-4.1756,-4.2283,-4.2585,-4.2585,-4.2836,-4.2986,-4.2986,-4.2986,-4.2986,-4.2986,-4.2986,-4.3112,-4.3413,-4.3689,-4.4116,-1.756,-1.7696,-1.7745,-1.792,-1.8212,-1.8261,-1.7379,-1.7184,-1.6942,-1.5868,-1.5901,-1.6265,-1.6916,-1.8461,-2.004,-2.1515,-2.3032,-2.4855,-2.7144,-2.8078,-2.9083,-3.0485,-3.1101,-3.1364,-3.1278,-3.1543,-3.2169,-3.3333,-3.3419,-3.365,-3.4174,-3.3993,-3.3357,-3.2438,-3.1612,-3.088,-3.0041,-3.0039,-2.9865,-2.9651,-2.996,-2.9986,-2.9804,-2.9804,-2.9804,-2.9804,-2.9932,-3.0278,-3.0835,-3.1381,-3.1863,-3.2441,-3.2893,-3.3068,-3.3068,-3.3068,-3.3068,-3.3068,-3.3068,-3.3068,-3.3068,-3.3068,-3.3068,-3.3068,-3.3068,-3.3068,-3.3068,-3.3068,-3.3068,-3.3068,-3.3068,-3.3068,-3.3068,-3.3068,-3.3169,-3.337,-3.3796,-3.4424,-3.5027,-3.5454,-3.6332,-3.701,-3.701,-3.7462,-3.7839,-3.7839,-3.8417,-3.9069,-3.9622,-4.0651,-4.1379,-4.1505,-4.163,-4.1681,-4.1681,-4.2082,-4.2333,-4.2333,-4.2735,-4.2986,-4.2986,-4.2986,-4.2986,-4.2986,-4.2986,-4.2986,-4.2986,-4.2986,-4.3263,-4.379,-4.3915,-4.4518,-1.7366,-1.7579,-1.7784,-1.794,-1.8144,-1.8108,-1.7233,-1.6678,-1.6259,-1.5626,-1.5437,-1.5702,-1.673,-1.7945,-1.9071,-1.9817,-2.1212,-2.2798,-2.4449,-2.605,-2.7712,-2.9377,-3.0426,-3.1102,-3.1278,-3.196,-3.2646,-3.3179,-3.3264,-3.355,-3.4351,-3.3417,-3.2426,-3.1471,-3.0508,-2.9963,-2.9788,-2.9829,-2.9917,-3.0012,-3.0063,-2.9986,-2.9804,-2.9804,-2.9804,-2.9804,-3.0316,-3.082,-3.1354,-3.1928,-3.2511,-3.2993,-3.3068,-3.3068,-3.3068,-3.3068,-3.3068,-3.3068,-3.3068,-3.3068,-3.3068,-3.3068,-3.3068,-3.3068,-3.3068,-3.3068,-3.3068,-3.3068,-3.3068,-3.3068,-3.3068,-3.3068,-3.3068,-3.3068,-3.347,-3.3847,-3.3897,-3.4726,-3.5386,-3.5437,-3.6031,-3.6433,-3.6433,-3.6885,-3.7262,-3.7262,-3.8165,-3.9069,-3.9622,-4.0651,-4.153,-4.2032,-4.2534,-4.2836,-4.2836,-4.2861,-4.2911,-4.2911,-4.2961,-4.2986,-4.2986,-4.2986,-4.2986,-4.2986,-4.2986,-4.2986,-4.2986,-4.2986,-4.3263,-4.3815,-4.4317,-4.4895,-1.654,-1.7079,-1.7442,-1.7716,-1.8056,-1.8041,-1.7169,-1.6657,-1.614,-1.549,-1.5222,-1.5245,-1.5909,-1.7525,-1.8627,-1.8338,-2.0161,-2.1983,-2.3178,-2.4531,-2.6106,-2.7902,-2.9229,-3.0046,-3.0163,-3.1427,-3.2343,-3.2742,-3.2869,-3.2691,-3.2281,-3.165,-3.0802,-2.9763,-2.9381,-2.8912,-2.8451,-2.8988,-2.9295,-2.9374,-2.9783,-2.9829,-2.951,-2.9568,-2.9521,-2.9397,-3.0163,-3.0758,-3.1294,-3.1896,-3.2585,-3.3068,-3.3068,-3.3068,-3.3068,-3.3068,-3.3068,-3.3068,-3.3068,-3.3068,-3.3068,-3.3068,-3.3068,-3.3068,-3.3068,-3.3068,-3.3068,-3.3068,-3.3068,-3.3068,-3.3068,-3.3068,-3.3169,-3.3495,-3.3746,-3.4073,-3.4751,-3.5228,-3.5655,-3.5981,-3.6207,-3.6358,-3.6358,-3.6533,-3.6684,-3.6684,-3.7362,-3.8165,-3.9069,-4.0149,-4.1178,-4.2057,-4.266,-4.2986,-4.2986,-4.2986,-4.2986,-4.2986,-4.2986,-4.2986,-4.2986,-4.2986,-4.2986,-4.2986,-4.2986,-4.2986,-4.2986,-4.3313,-4.3765,-4.4317,-4.4869,-4.5447,-1.5844,-1.6594,-1.7097,-1.751,-1.7755,-1.775,-1.7086,-1.6377,-1.5772,-1.5311,-1.4931,-1.4858,-1.5355,-1.6859,-1.7872,-1.7364,-1.928,-2.1068,-2.1826,-2.3152,-2.4641,-2.6153,-2.782,-2.8854,-2.8913,-3.0707,-3.1927,-3.2169,-3.2009,-3.1388,-3.009,-2.9592,-2.9251,-2.8759,-2.8531,-2.8278,-2.8012,-2.8594,-2.8948,-2.9149,-2.9554,-2.9646,-2.9426,-2.9357,-2.9184,-2.9012,-2.993,-3.0562,-3.0941,-3.1933,-3.261,-3.3043,-3.3068,-3.3068,-3.3068,-3.3068,-3.3068,-3.3068,-3.3068,-3.3068,-3.3068,-3.3068,-3.3068,-3.3068,-3.3068,-3.3068,-3.3068,-3.3068,-3.3068,-3.3068,-3.3068,-3.3194,-3.342,-3.3796,-3.4148,-3.46,-3.5378,-3.568,-3.5906,-3.6282,-3.6358,-3.6358,-3.6358,-3.6358,-3.6358,-3.6358,-3.6835,-3.7538,-3.8492,-3.9722,-4.0877,-4.1806,-4.2559,-4.2986,-4.2986,-4.2986,-4.2986,-4.2986,-4.2986,-4.2986,-4.2986,-4.2986,-4.2986,-4.2986,-4.2986,-4.2986,-4.2986,-4.3539,-4.4091,-4.4644,-4.5221,-4.5773,-1.5324,-1.6175,-1.6751,-1.7323,-1.7293,-1.705,-1.6772,-1.5841,-1.4999,-1.4911,-1.4539,-1.4444,-1.5175,-1.5938,-1.6572,-1.6965,-1.8462,-1.9733,-2.0093,-2.1977,-2.349,-2.3987,-2.6157,-2.7647,-2.7794,-3.0017,-3.1415,-3.1387,-3.0583,-2.9551,-2.8106,-2.739,-2.7636,-2.8983,-2.8094,-2.8037,-2.89,-2.8895,-2.92,-2.9779,-2.9779,-2.9674,-2.9411,-2.9155,-2.9003,-2.8876,-2.9924,-3.0449,-3.0515,-3.2044,-3.2746,-3.2746,-3.3043,-3.3068,-3.3068,-3.3068,-3.3068,-3.3068,-3.3068,-3.3068,-3.3068,-3.3068,-3.3068,-3.3068,-3.3068,-3.3068,-3.3068,-3.3068,-3.3068,-3.3068,-3.3068,-3.347,-3.3897,-3.3897,-3.4726,-3.5529,-3.5554,-3.5981,-3.6358,-3.6358,-3.6358,-3.6358,-3.6358,-3.6358,-3.6358,-3.6358,-3.6835,-3.7387,-3.7939,-3.9471,-4.0727,-4.1279,-4.2333,-4.2986,-4.2986,-4.2986,-4.2986,-4.2986,-4.2986,-4.2986,-4.2986,-4.2986,-4.2986,-4.2986,-4.2986,-4.2986,-4.2986,-4.3539,-4.4091,-4.4644,-4.5221,-4.5773,-1.3525,-1.453,-1.5468,-1.5999,-1.6235,-1.6211,-1.5773,-1.5235,-1.468,-1.4284,-1.4055,-1.4093,-1.4605,-1.5428,-1.6267,-1.6907,-1.8384,-1.9624,-2.0126,-2.1441,-2.2545,-2.3132,-2.5378,-2.7714,-2.9683,-3.0345,-3.0583,-3.0515,-2.9896,-2.8934,-2.7575,-2.7053,-2.7207,-2.8042,-2.7961,-2.827,-2.8925,-2.9303,-2.958,-2.9804,-2.9804,-2.9518,-2.9016,-2.8785,-2.8602,-2.8411,-2.9309,-2.9939,-3.0279,-3.1656,-3.2253,-3.2228,-3.2635,-3.2796,-3.2882,-3.3043,-3.3068,-3.3169,-3.3507,-3.3618,-3.3632,-3.3619,-3.3639,-3.3614,-3.3205,-3.3068,-3.3068,-3.3068,-3.3068,-3.3169,-3.3545,-3.3771,-3.4098,-3.4851,-3.5278,-3.5655,-3.6031,-3.6232,-3.6358,-3.6358,-3.6358,-3.6358,-3.6358,-3.6358,-3.6358,-3.6358,-3.6835,-3.7387,-3.7939,-3.9471,-4.0727,-4.1279,-4.2333,-4.2986,-4.2986,-4.2986,-4.2986,-4.2986,-4.2986,-4.2986,-4.2986,-4.2986,-4.2986,-4.2986,-4.2986,-4.2986,-4.2986,-4.3915,-4.4844,-4.5773,-4.5974,-4.615,-1.2227,-1.3283,-1.4085,-1.4782,-1.5049,-1.5116,-1.5022,-1.4559,-1.4087,-1.387,-1.3899,-1.3972,-1.4208,-1.5137,-1.6109,-1.6654,-1.8187,-1.9492,-1.9909,-2.107,-2.2375,-2.3636,-2.524,-2.737,-3.0308,-3.0314,-3.0104,-2.9963,-2.9353,-2.8479,-2.7439,-2.7112,-2.7157,-2.7809,-2.7994,-2.8473,-2.9252,-2.9603,-2.9804,-2.9804,-2.9804,-2.9468,-2.887,-2.8554,-2.8339,-2.825,-2.8826,-2.9366,0.0,-3.1252,-3.1785,-3.1956,-3.2525,-3.2698,-3.2746,-3.3043,-3.3068,-3.3194,-3.3707,-3.3891,-3.3881,-3.3896,-3.3792,-3.3528,-3.3205,-3.3068,-3.3144,-3.3296,-3.3396,-3.3496,-3.4098,-3.4349,-3.47,-3.5378,-3.5705,-3.5956,-3.6282,-3.6358,-3.6358,-3.6358,-3.6358,-3.6358,-3.6358,-3.6358,-3.6433,-3.6634,-3.696,-3.7538,-3.8517,-3.9747,-4.0802,-4.1555,-4.2459,-4.2986,-4.2986,-4.2986,-4.2986,-4.2986,-4.2986,-4.2986,-4.2986,-4.2986,-4.2986,-4.2986,-4.2986,-4.2986,-4.2986,-4.4091,-4.5196,-4.6301,-4.6301,-4.6301,0.0,-1.2242,-1.2777,-1.3725,-1.3754,-1.3771,-1.4353,-1.3849,0.0,-1.3578,-1.3882,-1.406,-1.3968,-1.5039,-1.6019,-1.6345,-1.794,-1.9268,-1.9562,-2.0894,-2.2784,-2.5203,-2.5613,-2.6815,-2.9803,-2.9891,-2.9744,-2.9744,-2.8963,-2.821,-2.7678,-2.7485,-2.7595,-2.8147,-2.8172,-2.8699,-2.9779,-2.9804,-2.9804,-2.9804,-2.9804,-2.9524,-2.904,-2.8512,-2.8243,-2.8235,-2.8349,-2.8842,-2.9602,-3.0787,-3.1442,-3.1761,-3.2445,-3.2673,-3.2746,-3.3043,-3.3068,-3.3169,-3.3734,-3.3884,-3.3897,-3.3897,-3.352,-3.3093,-3.3144,-3.3194,-3.3221,-3.3792,-3.395,-3.4049,-3.4635,-3.5152,-3.5554,-3.5579,-3.5981,-3.6358,-3.6358,-3.6358,-3.6358,-3.6358,-3.6358,-3.6358,-3.6358,-3.6383,-3.6584,-3.7111,-3.7287,-3.7939,-3.9496,-4.0249,-4.1028,-4.2057,-4.266,-4.2986,-4.2986,-4.2986,-4.2986,-4.2986,-4.2986,-4.2986,-4.2986,-4.2986,-4.2986,-4.2986,-4.3011,-4.3062,-4.3112,-4.4166,-4.5246,-4.6301,-4.6301,-4.6301,-0.9394,0.0,-1.1511,-1.2314,-1.253,-1.2671,0.0,-1.3114,-1.2991,-1.3086,-1.3431,-1.3711,-1.3443,-1.4445,-1.5509,-1.6137,-1.7562,-1.8779,-1.9378,-2.1463,-2.3589,-2.5391,-2.646,-2.7787,-2.9468,-2.9448,-2.9349,-2.9349,-2.9024,-2.8573,-2.8019,-2.7921,-2.8172,-2.8725,-2.8725,-2.9076,-2.9779,-2.9804,-2.9804,-2.9804,-2.9804,-2.9499,-2.8889,-2.8827,-2.8674,-2.8607,-2.8846,-2.9416,-3.0077,-3.0788,-3.1168,-3.1464,-3.2166,-3.2463,-3.25,-3.2932,-3.3068,-3.3169,-3.3721,-3.3922,-3.3897,-3.3897,-3.352,-3.3169,-3.3583,-3.3736,-3.3722,-3.3891,-3.423,-3.4678,-3.5186,-3.5454,-3.5655,-3.6081,-3.6282,-3.6358,-3.6358,-3.6358,-3.6358,-3.6358,-3.6358,-3.6358,-3.6358,-3.6709,-3.7036,-3.7161,-3.8291,-3.9245,-3.9647,-4.0902,-4.1856,-4.2133,-4.266,-4.2986,-4.2986,-4.2986,-4.2986,-4.2986,-4.2986,-4.2986,-4.2986,-4.2986,-4.2986,-4.2986,-4.3388,-4.3815,-4.4242,-4.4945,-4.5648,-4.6301,-4.6301,-4.6301,-0.8365,-0.9271,-1.0234,-1.1193,-1.151,-1.178,-1.2401,-1.26,-1.2695,-1.2881,-1.3322,-1.364,-1.3481,-1.4256,-1.5164,-1.5729,-1.7038,-1.8612,-2.0335,-2.2098,-2.3821,-2.5296,-2.6346,-2.7431,-2.875,-2.8775,-2.8875,-2.9277,-2.8975,-2.865,-2.8499,-2.8725,-2.89,-2.8925,-2.9679,-2.998,-2.9804,-2.9804,-2.9804,-2.9804,-2.9804,-2.9524,-2.904,-2.9052,-2.909,-2.916,-2.9283,-2.9754,-3.056,-3.0937,-3.1368,-3.1671,-3.2315,-3.2574,-3.261,-3.2932,-3.3068,-3.3169,-3.3696,-3.3897,-3.3897,-3.3897,-3.3721,-3.3483,-3.3809,-3.4428,-3.5013,-3.4693,-3.4835,-3.5158,-3.5762,-3.5906,-3.6006,-3.6282,-3.6358,-3.6358,-3.6358,-3.6358,-3.6358,-3.6358,-3.6358,-3.6358,-3.6358,-3.681,-3.7262,-3.7513,-3.8768,-3.9873,-4.0375,-4.1455,-4.2258,-4.2509,-4.2811,-4.2986,-4.2986,-4.2986,-4.2986,-4.2986,-4.2986,-4.2986,-4.2986,-4.2986,-4.3087,-4.3338,-4.3639,-4.4192,-4.502,-4.5321,-4.5773,-4.6301,-4.6301,-4.6301,-0.7923,-0.8483,-0.9125,-1.032,-1.0707,-1.1032,-1.184,-1.2172,-1.2332,-1.2774,-1.3312,-1.3696,-1.3618,-1.4368,-1.5141,-1.5497,-1.6848,-1.8846,-2.162,-2.2867,-2.3931,-2.5326,-2.6019,-2.6788,-2.7908,-2.8082,-2.8407,-2.9238,-2.8917,-2.8872,-2.9101,-2.9651,-2.9804,-2.9327,-3.0658,-3.0959,-3.0055,-2.9982,-2.9907,-2.9804,-2.9907,-2.9779,-2.9549,-2.9588,-2.9714,-2.9851,-2.9806,-3.0214,-3.1031,-3.1303,-3.1638,-3.2093,-3.2525,-3.2723,-3.2746,-3.3043,-3.3068,-3.3144,-3.3621,-3.3771,-3.3796,-3.3872,-3.3859,-3.3959,-3.4223,-3.5251,-3.6378,-3.5957,-3.5928,-3.5978,-3.6463,-3.6558,-3.6483,-3.6483,-3.6408,-3.6358,-3.6358,-3.6358,-3.6358,-3.6358,-3.6433,-3.6483,-3.6483,-3.701,-3.7638,-3.8191,-3.922,-4.0325,-4.1329,-4.1932,-4.2459,-4.2936,-4.2986,-4.2986,-4.2986,-4.2986,-4.2986,-4.2986,-4.2986,-4.2986,-4.2986,-4.3062,-4.3313,-4.379,-4.3966,-4.4518,-4.5497,-4.5573,-4.5849,-4.6301,-4.6301,-4.6301,-0.7915,-0.814,-0.8567,-1.0016,-1.0347,-1.0585,-1.1661,-1.195,-1.2085,-1.248,-1.3189,-1.3609,-1.342,-1.4763,-1.5979,-1.6158,-1.8132,-2.0281,-2.2209,-2.3608,-2.4883,-2.6124,-2.6995,-2.7608,-2.7829,-2.8036,-2.8323,-2.8657,-2.9156,-2.9591,-3.0094,-3.0617,-3.0948,-3.1009,-3.126,-3.1311,-3.116,-3.0669,-3.0213,-2.9804,-3.0291,-3.0341,-3.0188,-3.0675,-3.0885,-3.0767,-3.0767,-3.1073,-3.1588,-3.1577,-3.1908,-3.2339,-3.266,-3.2685,-3.2746,-3.3043,-3.3068,-3.3093,-3.3169,-3.3194,-3.3294,-3.3746,-3.3922,-3.4173,-3.5579,-3.6207,-3.6538,-3.7365,-3.759,-3.7615,-3.7739,-3.7412,-3.7061,-3.7061,-3.6709,-3.6358,-3.6358,-3.6358,-3.6358,-3.6358,-3.6734,-3.7061,-3.7061,-3.7914,-3.8793,-3.9346,-4.0375,-4.1304,-4.1957,-4.2509,-4.2886,-4.2961,-4.2986,-4.2986,-4.2986,-4.2986,-4.2986,-4.2986,-4.2986,-4.2986,-4.2986,-4.3413,-4.3714,-4.379,-4.4744,-4.5321,-4.5497,-4.5949,-4.6225,-4.6301,-4.6301,-4.6301,-0.7656,-0.7862,-0.822,-0.9542,-0.9969,-1.0296,-1.1181,-1.161,-1.1937,-1.2244,-1.2855,-1.3386,-1.3532,-1.483,-1.6235,-1.7475,-1.8734,-2.0185,-2.1956,-2.3011,-2.3984,-2.4821,-2.5569,-2.608,-2.6346,-2.6449,-2.6887,-2.773,-2.8468,-2.9104,-2.9512,-3.0455,-3.088,-3.0836,-3.1378,-3.1571,-3.1248,-3.1272,-3.109,-3.0701,-3.0881,-3.1105,-3.1297,-3.1827,-3.2147,-3.2333,-3.2176,-3.2339,-3.2635,-3.2339,-3.2475,-3.2771,-3.2907,-3.2907,-3.2932,-3.3068,-3.3068,-3.3068,-3.3068,-3.3068,-3.3169,-3.3721,-3.4098,-3.46,-3.5956,-3.6784,-3.7412,-3.8241,-3.8241,-3.8015,-3.8015,-3.7814,-3.7638,-3.7638,-3.7437,-3.7236,-3.7236,-3.7236,-3.7236,-3.7236,-3.7462,-3.7739,-3.804,-3.8768,-3.9496,-4.0049,-4.1078,-4.1882,-4.2108,-4.2635,-4.2986,-4.2986,-4.2986,-4.2986,-4.2986,-4.2986,-4.2986,-4.2986,-4.2986,-4.3112,-4.3413,-4.3664,-4.4091,-4.4694,-4.5221,-4.5623,-4.5924,-4.6175,-4.6301,-4.6301,-4.6301,-4.6301,-0.73,-0.762,-0.7937,-0.9003,-0.9602,-1.0089,-1.0765,-1.1275,-1.1707,-1.2059,-1.2604,-1.3194,-1.3669,-1.5111,-1.676,-1.8648,-1.9389,-2.0219,-2.1655,-2.2522,-2.3217,-2.3759,-2.4177,-2.4554,-2.4884,-2.4988,-2.5596,-2.6888,-2.7661,-2.8318,-2.9022,-3.0091,-3.0596,-3.0555,-3.139,-3.1612,-3.1206,-3.1896,-3.1972,-3.1551,-3.1757,-3.2123,-3.2635,-3.2972,-3.333,-3.3727,-3.3444,-3.3558,-3.3683,-3.3096,-3.3021,-3.3244,-3.3119,-3.3068,-3.3068,-3.3068,-3.3068,-3.3093,-3.3219,-3.3269,-3.3395,-3.4073,-3.465,-3.5303,-3.6408,-3.7437,-3.8316,-3.8894,-3.8743,-3.8391,-3.8391,-3.8291,-3.8216,-3.8216,-3.809,-3.8015,-3.8015,-3.8015,-3.804,-3.8191,-3.8316,-3.8592,-3.9145,-3.9722,-4.0275,-4.0827,-4.163,-4.2208,-4.2333,-4.271,-4.2986,-4.2986,-4.2986,-4.2986,-4.2986,-4.2986,-4.3037,-4.3162,-4.3162,-4.3363,-4.379,-4.4066,-4.4593,-4.5472,-4.5623,-4.5899,-4.6301,-4.6301,-4.6301,-4.6301,-4.6301,-4.6301,-0.6936,-0.7431,-0.7846,-0.8486,-0.9169,-0.988,-1.0766,-1.1076,-1.1291,-1.1726,-1.2522,-1.3278,-1.364,-1.601,-1.8157,-1.8854,-2.0273,-2.1531,-2.2128,-2.2897,-2.3594,-2.4129,-2.4361,-2.4532,-2.4532,-2.4808,-2.5338,-2.6217,-2.6955,-2.7943,-2.9274,-2.9938,-3.0395,-3.0885,-3.1158,-3.1424,-3.1592,-3.2631,-3.2821,-3.2128,-3.2744,-3.3215,-3.3741,-3.4089,-3.4263,-3.4287,-3.4071,-3.4132,-3.4272,-3.3717,-3.3557,-3.3796,-3.3269,-3.3068,-3.3068,-3.3068,-3.3068,-3.3144,-3.3671,-3.3847,-3.4022,-3.5077,-3.5805,-3.6458,-3.7563,-3.8316,-3.8919,-3.9471,-3.9597,-3.9572,-3.9572,-3.9195,-3.8818,-3.8818,-3.8391,-3.8015,-3.8015,-3.8015,-3.8165,-3.8718,-3.922,-3.9747,-4.03,-4.0852,-4.1404,-4.1957,-4.2108,-4.2333,-4.2861,-4.2961,-4.2986,-4.2986,-4.2986,-4.2986,-4.2986,-4.2986,-4.3187,-4.3714,-4.374,-4.3765,-4.379,-4.4819,-4.5397,-4.5497,-4.5999,-4.6276,-4.6301,-4.6301,-4.6301,-4.6301,-4.6301,-4.6301,-0.6642,-0.7232,-0.764,-0.8297,-0.8971,-0.9658,-1.0421,-1.081,-1.1254,-1.2024,-1.2629,-1.3526,-1.4944,-1.6609,-1.8169,-1.9293,-2.0489,-2.1467,-2.1981,-2.2498,-2.3018,-2.3454,-2.356,-2.3647,-2.382,-2.4013,-2.437,-2.5238,-2.6051,-2.6875,-2.78,-2.8462,-2.9002,-2.9532,-2.9806,-3.0512,-3.1656,-3.2388,-3.3177,-3.4071,-3.4105,-3.4346,-3.4936,-3.5021,-3.5248,-3.5655,-3.5104,-3.4972,-3.5036,-3.4445,-3.431,-3.4399,-3.4173,-3.4098,-3.4098,-3.4098,-3.4098,-3.4123,-3.4349,-3.4399,-3.46,-3.5705,-3.6207,-3.6659,-3.8115,-3.8693,-3.8994,-3.9546,-3.9697,-3.9697,-3.9697,-3.9546,-3.9371,-3.9371,-3.922,-3.9145,-3.9496,-3.9572,-3.9722,-4.03,-4.0576,-4.0902,-4.143,-4.1706,-4.2032,-4.2585,-4.266,-4.2735,-4.2961,-4.2986,-4.2986,-4.2986,-4.2986,-4.2986,-4.2986,-4.2986,-4.3212,-4.3765,-4.379,-4.4116,-4.4819,-4.5271,-4.5648,-4.5999,-4.62,-4.6301,-4.6301,-4.6301,-4.6301,-4.6301,-4.6301,-4.6301,-0.6406,-0.7034,-0.7569,-0.8353,-0.8924,-0.9574,-1.0435,-1.0916,-1.1367,-1.2241,-1.2917,-1.3886,-1.5627,-1.6757,-1.7972,-1.9469,-2.0507,-2.1345,-2.2012,-2.2441,-2.2812,-2.3105,-2.3144,-2.3144,-2.3319,-2.3545,-2.3978,-2.4775,-2.5381,-2.6105,-2.6838,-2.7359,-2.7809,-2.8258,-2.8538,-2.9502,-3.102,-3.1854,-3.3059,-3.457,-3.4637,-3.508,-3.5824,-3.5824,-3.6018,-3.6358,-3.5993,-3.5744,-3.5722,-3.5177,-3.4876,-3.4726,-3.4726,-3.4726,-3.4726,-3.4726,-3.4726,-3.4751,-3.4926,-3.4977,-3.5177,-3.6257,-3.6759,-3.7161,-3.8467,-3.8994,-3.922,-3.9597,-3.9697,-3.9697,-3.9697,-3.9697,-3.9697,-3.9697,-3.9697,-3.9848,-4.04,-4.0526,-4.0727,-4.1455,-4.1605,-4.1781,-4.2308,-4.2409,-4.2534,-4.2911,-4.2986,-4.2986,-4.2986,-4.2986,-4.2986,-4.2986,-4.2986,-4.2986,-4.2986,-4.3137,-4.3463,-4.4016,-4.4242,-4.4669,-4.5447,-4.5648,-4.5924,-4.6301,-4.6301,-4.6301,-4.6301,-4.6301,-4.6301,-4.6301,-4.6301,-4.6301,-0.6316,-0.6987,-0.762,-0.8553,-0.9031,-0.9575,-1.1102,-1.1477,-1.1689,-1.2249,-1.3389,-1.4501,-1.5322,-1.6421,-1.7752,-1.9418,-2.0362,-2.1279,-2.2383,-2.2871,-2.3144,-2.3144,-2.3144,-2.3144,-2.3144,-2.3535,-2.4055,-2.4782,-2.5218,-2.5919,-2.6839,-2.686,-2.6955,-2.7125,-2.7715,-2.8516,-2.9489,-3.1004,-3.2277,-3.3223,-3.4259,-3.5367,-3.6358,-3.6358,-3.6358,-3.6358,-3.6358,-3.6358,-3.6307,-3.578,-3.5228,-3.4726,-3.4751,-3.4751,-3.4751,-3.4751,-3.4751,-3.4826,-3.5353,-3.5554,-3.573,-3.6835,-3.7563,-3.8115,-3.8693,-3.927,-3.9697,-3.9697,-3.9697,-3.9697,-3.9697,-3.9697,-3.9697,-3.9697,-3.9697,-3.9848,-4.04,-4.0526,-4.0852,-4.1957,-4.2158,-4.2333,-4.2886,-4.2986,-4.2986,-4.2986,-4.2986,-4.2986,-4.2986,-4.2986,-4.2986,-4.2986,-4.2986,-4.2986,-4.2986,-4.3489,-4.4041,-4.4593,-4.5171,-4.5497,-4.5497,-4.6024,-4.6301,-4.6301,-4.6301,-4.6301,-4.6301,-4.6301,-4.6301,-4.6301,-4.6301,-4.6301,-0.618,-0.7302,-0.835,-0.8949,-0.9646,-1.0448,-1.149,-1.1572,-1.1791,-1.2962,-1.3889,-1.4653,-1.5265,-1.6349,-1.7605,-1.8982,-2.0286,-2.1358,-2.2186,-2.2785,-2.3144,-2.3144,-2.3144,-2.3262,-2.3574,-2.3711,-2.4173,-2.4918,-2.5094,-2.5444,-2.5994,-2.6014,-2.6207,-2.638,-2.7242,-2.8216,-2.9483,-3.1016,-3.2231,-3.3191,-3.391,-3.4606,-3.5248,-3.5248,-3.5301,-3.5307,-3.5307,-3.5404,-3.5596,-3.5734,-3.5774,-3.5625,-3.5787,-3.5881,-3.5881,-3.5881,-3.5881,-3.5906,-3.6056,-3.6383,-3.681,-3.7538,-3.814,-3.8718,-3.927,-3.9572,-3.9697,-3.9697,-3.9697,-3.9697,-3.9697,-3.9697,-3.9697,-3.9697,-3.9998,-4.0425,-4.0978,-4.1404,-4.1882,-4.2585,-4.2735,-4.2785,-4.2961,-4.2986,-4.2986,-4.2986,-4.2986,-4.2986,-4.2986,-4.2986,-4.2986,-4.2986,-4.2986,-4.3137,-4.3514,-4.3714,-4.4217,-4.5171,-4.5397,-4.5673,-4.605,-4.6225,-4.6301,-4.6301,-4.6301,-4.6301,-4.6301,-4.6301,-4.6301,-4.6301,-4.6301,-4.6301,-0.6277,-0.7431,-0.8502,-0.9297,-0.9953,-1.0757,-1.181,-1.2171,-1.2505,-1.3371,-1.4089,-1.4689,-1.5087,-1.6079,-1.7363,-1.8883,-2.0025,-2.1147,-2.216,-2.2727,-2.2969,-2.3057,-2.3301,-2.3496,-2.3769,-2.4102,-2.4512,-2.5019,-2.5234,-2.5449,-2.5723,-2.5742,-2.5723,-2.5917,-2.6801,-2.7737,-2.8786,-3.0149,-3.1218,-3.2107,-3.256,-3.2909,-3.3231,-3.41,-3.4435,-3.4548,-3.4579,-3.4823,-3.5114,-3.562,-3.5908,-3.6003,-3.6193,-3.6288,-3.6193,-3.6073,-3.6073,-3.6098,-3.6193,-3.6639,-3.7165,-3.7814,-3.8391,-3.8969,-3.9521,-3.9697,-3.9697,-3.9697,-3.9697,-3.9697,-3.9697,-3.9697,-3.9697,-3.9697,-4.0124,-4.0676,-4.1229,-4.1756,-4.2308,-4.2861,-4.2986,-4.2986,-4.2986,-4.2986,-4.2986,-4.2986,-4.2986,-4.2986,-4.2986,-4.2986,-4.2986,-4.2986,-4.2986,-4.3212,-4.374,-4.3991,-4.4518,-4.5422,-4.5698,-4.5974,-4.6301,-4.6301,-4.6301,-4.6301,-4.6301,-4.6301,-4.6301,-4.6301,-4.6301,-4.6301,-4.6301,-4.6301,-0.6472,-0.741,-0.8352,-0.9576,-1.0249,-1.0863,-1.2032,-1.3039,-1.3681,-1.3681,-1.4047,-1.4573,-1.4976,-1.5725,-1.6901,-1.8803,-1.9727,-2.068,-2.2152,-2.2618,-2.2882,-2.3057,-2.3516,-2.3809,-2.3848,-2.459,-2.5078,-2.5117,-2.5508,-2.5742,-2.5742,-2.5742,-2.5762,-2.5801,-2.6488,-2.7122,-2.7864,-2.8819,-2.9661,-3.0384,-3.0584,-3.0751,-3.0841,-3.2836,-3.3669,-3.3706,-3.4059,-3.4311,-3.4628,-3.5211,-3.562,-3.5908,-3.5908,-3.5908,-3.5812,-3.562,-3.5524,-3.5524,-3.5812,-3.6279,-3.6947,-3.7642,-3.8442,-3.9044,-3.9546,-3.9697,-3.9697,-3.9697,-3.9697,-3.9697,-3.9697,-3.9697,-3.9697,-3.9747,-4.0199,-4.0752,-4.1304,-4.1831,-4.2384,-4.2886,-4.2986,-4.2986,-4.2986,-4.2986,-4.2986,-4.2986,-4.2986,-4.2986,-4.2986,-4.2986,-4.2986,-4.2986,-4.3011,-4.3263,-4.384,-4.4392,-4.4945,-4.5522,-4.6024,-4.6301,-4.6301,-4.6301,-4.6301,-4.6301,-4.6301,-4.6301,-4.6301,-4.6301,-4.6301,-4.6301,-4.6301,-4.6301,-0.6302,-0.7565,-0.8788,-0.9681,-1.1095,-1.2411,-1.2652,-1.3347,-1.3988,-1.3988,-1.4196,-1.453,-1.505,-1.5731,-1.6682,-1.8242,-1.9414,-2.0535,-2.1728,-2.2422,-2.2882,-2.3057,-2.3516,-2.3926,-2.4258,-2.4746,-2.5215,-2.5566,-2.5684,-2.5742,-2.5742,-2.5742,-2.5898,-2.625,-2.6942,-2.756,-2.8018,-2.9082,-2.9577,-2.9784,-3.0016,-3.014,-3.0178,-3.1116,-3.1446,-3.1499,-3.198,-3.2499,-3.3024,-3.3895,-3.4605,-3.5114,-3.5332,-3.5235,-3.5017,-3.5017,-3.4823,-3.4702,-3.5211,-3.6039,-3.6871,-3.7294,-3.8187,-3.9212,-3.9337,-3.949,-3.9697,-3.9697,-3.9697,-3.9697,-3.9697,-3.9697,-3.9798,-4.0249,-4.0752,-4.1304,-4.1856,-4.2409,-4.2836,-4.2961,-4.2986,-4.2986,-4.2986,-4.2986,-4.2986,-4.2986,-4.2986,-4.2986,-4.2986,-4.2986,-4.2986,-4.2986,-4.3363,-4.384,-4.4392,-4.497,-4.5547,-4.61,-4.625,-4.6301,-4.6301,-4.6301,-4.6301,-4.6301,-4.6301,-4.6301,-4.6301,-4.6301,-4.6301,-4.6301,-4.6301,-4.6301,-0.5745,-0.708,-0.8431,-0.9962,-1.1452,-1.2685,-1.2843,-1.3385,-1.3913,-1.4082,-1.4273,-1.4593,-1.5016,-1.5616,-1.6551,-1.7792,-1.8897,-2.0052,-2.123,-2.1872,-2.2479,-2.2974,-2.3557,-2.4074,-2.452,-2.5042,-2.5488,-2.5723,-2.5742,-2.5742,-2.5742,-2.5879,-2.6133,-2.635,-2.7161,-2.7699,-2.7938,-2.864,-2.894,-2.9,-2.9172,-2.9232,-2.916,-3.0013,-3.0433,-3.0475,-3.0931,-3.1505,-3.2117,-3.3001,-3.3697,-3.4213,-3.4213,-3.4115,-3.4017,-3.372,-3.3621,-3.3697,-3.4115,-3.5099,-3.6309,-3.6691,-3.7829,-3.905,-3.9258,-3.949,-3.9697,-3.9697,-3.9697,-3.9697,-3.9697,-3.9898,-4.0224,-4.0777,-4.1128,-4.1505,-4.2032,-4.2585,-4.2986,-4.2986,-4.2986,-4.2986,-4.2986,-4.2986,-4.2986,-4.2986,-4.2986,-4.2986,-4.2986,-4.2986,-4.3087,-4.3338,-4.3639,-4.4141,-4.497,-4.5321,-4.5723,-4.6276,-4.6301,-4.6301,-4.6301,-4.6301,-4.6301,-4.6301,-4.6301,-4.6301,-4.6301,-4.6301,-4.6301,-4.6301,-4.6301,-4.6301,-0.5064,-0.6395,-0.7942,-1.0149,-1.145,-1.2258,-1.2788,-1.3283,-1.3743,-1.3997,-1.4322,-1.4623,-1.4865,-1.5583,-1.6324,-1.7387,-1.8378,-1.9487,-2.0637,-2.1284,-2.1986,-2.2756,-2.3594,-2.42,-2.4545,-2.5179,-2.5645,-2.5742,-2.5859,-2.5879,-2.5898,-2.6269,-2.6583,-2.6625,-2.7321,-2.7759,-2.7796,-2.8094,-2.8301,-2.8301,-2.8301,-2.8301,-2.8301,-2.9287,-2.9733,-2.9782,-3.0203,-3.0785,-3.1403,-3.2095,-3.2801,-3.33,-3.3001,-3.2901,-3.2801,-3.242,-3.2297,-3.2521,-3.3015,-3.406,-3.5385,-3.6074,-3.7284,-3.8631,-3.8945,-3.9258,-3.949,-3.949,-3.949,-3.9362,-3.9362,-3.989,-4.0439,-4.0989,-4.1189,-4.1522,-4.2183,-4.266,-4.2986,-4.2986,-4.2986,-4.2986,-4.2986,-4.2986,-4.2986,-4.2986,-4.2986,-4.2986,-4.2986,-4.3062,-4.3288,-4.374,-4.3991,-4.4468,-4.5422,-4.5573,-4.5824,-4.6276,-4.6301,-4.6301,-4.6301,-4.6301,-4.6301,-4.6301,-4.6301,-4.6301,-4.6301,-4.6301,-4.6301,-4.6301,-4.6301,-4.6301,-0.4487,-0.6173,-0.799,-0.9659,-1.0818,-1.1813,-1.2789,-1.3342,-1.3743,-1.3997,-1.4322,-1.4603,-1.4945,-1.545,-1.6132,-1.6958,-1.7855,-1.8904,-1.9928,-2.0933,-2.1841,-2.2354,-2.3335,-2.3916,-2.4051,-2.4948,-2.5684,-2.5898,-2.6269,-2.6543,-2.6798,-2.6915,-2.714,-2.75,-2.764,-2.7915,-2.8251,-2.8242,-2.8301,-2.8301,-2.8301,-2.8301,-2.8301,-2.8447,-2.8554,-2.8514,-2.8834,-2.9448,-3.0266,-3.0785,-3.1505,-3.2218,-3.1891,-3.1688,-3.1483,-3.1381,-3.1197,-3.1262,-3.2399,-3.322,-3.3966,-3.5267,-3.6414,-3.7418,-3.7974,-3.8421,-3.8526,-3.8526,-3.8421,-3.821,-3.821,-3.881,-3.9453,-4.0098,-4.0917,-4.1853,-4.2735,-4.2936,-4.2986,-4.2986,-4.2986,-4.2986,-4.2986,-4.2986,-4.2986,-4.2986,-4.2986,-4.2986,-4.2986,-4.3388,-4.3714,-4.379,-4.4669,-4.5321,-4.5472,-4.5924,-4.6225,-4.6301,-4.6301,-4.6301,-4.6301,-4.6301,-4.6301,-4.6301,-4.6301,-4.6301,-4.6301,-4.6301,-4.6301,-4.6301,-4.6301,-4.6301,-0.4228,-0.5796,-0.7328,-0.8695,-0.9865,-1.0924,-1.1993,-1.2853,-1.3528,-1.4038,-1.4475,-1.4803,-1.4937,-1.5429,-1.606,-1.6857,-1.7448,-1.8195,-1.9363,-2.0154,-2.0905,-2.2031,-2.2654,-2.34,-2.4078,-2.4887,-2.5528,-2.6015,-2.6381,-2.6763,-2.7026,-2.729,-2.7629,-2.799,-2.8287,-2.8462,-2.8593,-2.8593,-2.8554,-2.8301,-2.8301,-2.8301,-2.8301,-2.8301,-2.8301,-2.8281,-2.8621,-2.9046,-2.9554,-2.9973,-3.037,-3.0806,-3.0578,-3.037,-3.0266,-3.0057,-3.0057,-3.0245,-3.1,-3.1913,-3.2922,-3.4159,-3.5409,-3.6449,-3.712,-3.7441,-3.7631,-3.7631,-3.7631,-3.7524,-3.7524,-3.8143,-3.8919,-3.9402,-4.041,-4.1541,-4.2351,-4.2737,-4.2986,-4.2986,-4.2986,-4.2986,-4.2986,-4.2986,-4.2986,-4.2986,-4.2986,-4.3087,-4.3388,-4.3639,-4.4041,-4.4669,-4.5196,-4.5623,-4.5924,-4.6175,-4.6301,-4.6301,-4.6301,-4.6301,-4.6301,-4.6301,-4.6301,-4.6301,-4.6301,-4.6301,-4.6301,-4.6301,-4.6301,-4.6301,-4.6301,-4.6301,-0.3771,-0.507,-0.6308,-0.7601,-0.8779,-0.9966,-1.121,-1.2206,-1.3138,-1.3935,-1.4691,-1.5177,-1.5177,-1.5605,-1.613,-1.6809,-1.718,-1.7779,-1.8832,-1.9394,-2.0173,-2.1417,-2.1965,-2.2733,-2.3854,-2.451,-2.5153,-2.5848,-2.6248,-2.6723,-2.7176,-2.7701,-2.807,-2.8425,-2.8886,-2.907,-2.9113,-2.9084,-2.8886,-2.8593,-2.8554,-2.8447,-2.8447,-2.8301,-2.8301,-2.8281,-2.8514,-2.8727,-2.9026,-2.9237,-2.9554,-2.9784,-2.9448,-2.9343,-2.9343,-2.9132,-2.9132,-2.9424,-3.0079,-3.0941,-3.1969,-3.3222,-3.4406,-3.5356,-3.6036,-3.634,-3.6426,-3.6426,-3.6317,-3.6231,-3.6369,-3.7169,-3.7996,-3.8474,-3.9655,-4.1009,-4.1948,-4.2513,-4.2849,-4.2849,-4.2849,-4.2849,-4.2874,-4.2824,-4.2824,-4.2849,-4.3137,-4.3388,-4.3651,-4.4066,-4.4543,-4.5397,-4.5623,-4.5874,-4.6276,-4.6301,-4.6301,-4.6301,-4.6301,-4.6301,-4.6301,-4.6301,-4.6301,-4.6301,-4.6301,-4.6301,-4.6301,-4.6301,-4.6301,-4.6301,-4.6301,-4.6301,-0.2991,-0.3899,-0.4948,-0.6479,-0.7635,-0.8825,-1.0487,-1.1755,-1.2783,-1.366,-1.4721,-1.5494,-1.5684,-1.6046,-1.6343,-1.6648,-1.7176,-1.7711,-1.8155,-1.9011,-1.9806,-2.042,-2.1281,-2.2038,-2.2722,-2.3402,-2.4242,-2.5487,-2.5918,-2.6616,-2.7737,-2.822,-2.8523,-2.8886,-2.9348,-2.96,-2.9543,-2.9549,-2.9581,-2.9581,-2.914,-2.8866,-2.8866,-2.8447,-2.8301,-2.8301,-2.8281,-2.8514,-2.8727,-2.8727,-2.894,-2.9132,-2.8834,-2.8727,-2.8727,-2.8727,-2.8727,-2.8953,-3.0028,-3.057,-3.0822,-3.258,-3.3438,-3.3909,-3.4692,-3.4803,-3.458,-3.458,-3.4246,-3.3904,-3.4218,-3.5172,-3.6252,-3.7066,-3.8521,-4.0316,-4.2061,-4.2513,-4.2513,-4.2513,-4.2351,-4.2213,-4.24,-4.2389,-4.2451,-4.24,-4.3337,-4.3851,-4.3497,-4.4627,-4.5422,-4.5472,-4.5949,-4.6276,-4.6301,-4.6301,-4.6301,-4.6301,-4.6301,-4.6301,-4.6301,-4.6301,-4.6301,-4.6301,-4.6301,-4.6301,-4.6301,-4.6301,-4.6301,-4.6301,-4.6301,-4.6301,-0.2285,-0.3133,-0.4014,-0.5049,-0.6302,-0.7619,-0.892,-1.0343,-1.179,-1.2976,-1.391,-1.4782,-1.5717,-1.6255,-1.6652,-1.6864,-1.7145,-1.7538,-1.8193,-1.8642,-1.9213,-2.0207,-2.055,-2.1122,-2.2261,-2.2678,-2.3402,-2.4607,-2.5173,-2.61,-2.7371,-2.7974,-2.8597,-2.9483,-2.9811,-2.9966,-2.9966,-2.975,-2.959,-2.9637,-2.9372,-2.9205,-2.8866,-2.872,-2.8573,-2.8301,-2.8301,-2.8408,-2.8408,-2.8408,-2.8514,-2.8601,-2.8514,-2.8408,-2.8408,-2.8408,-2.8584,-2.8898,-2.9707,-3.0214,-3.0777,-3.193,-3.2457,-3.2778,-3.3346,-3.3459,-3.3367,-3.3367,-3.3254,-3.3131,-3.3571,-3.4169,-3.507,-3.6676,-3.806,-3.938,-4.0176,-4.1009,-4.1606,-4.1606,-4.1353,-4.1353,-4.1948,-4.1785,-4.1761,-4.2199,-4.2585,-4.3081,-4.359,-4.4056,-4.4377,-4.4962,-4.5183,-4.555,-4.5939,-4.5939,-4.6059,-4.6301,-4.6301,-4.6301,-4.6301,-4.6301,-4.6301,-4.6301,-4.6301,-4.6301,-4.6301,-4.6301,-4.6301,-4.6301,-4.6301,-4.6301,-0.1601,-0.236,-0.3197,-0.3926,-0.5115,-0.6424,-0.7547,-0.8995,-1.0503,-1.1992,-1.3058,-1.4141,-1.546,-1.6173,-1.6662,-1.7089,-1.7245,-1.749,-1.8218,-1.838,-1.878,-1.9821,-2.0057,-2.05,-2.1565,-2.1835,-2.2405,-2.3569,-2.4311,-2.5259,-2.6587,-2.7524,-2.8627,-2.9985,-3.0276,-3.0432,-3.0432,-3.0199,-3.0045,-2.9985,-2.983,-2.9661,-2.9309,-2.8996,-2.8779,-2.8496,-2.8359,-2.8301,-2.8301,-2.8301,-2.8301,-2.8301,-2.8301,-2.8301,-2.832,-2.8457,-2.8672,-2.9004,-2.959,-3.0094,-3.0636,-3.1416,-3.1787,-3.1998,-3.2342,-3.2342,-3.2227,-3.2227,-3.2235,-3.2438,-3.2768,-3.3575,-3.4551,-3.6009,-3.711,-3.7932,-3.8149,-3.9474,-4.0432,-4.0432,-4.0198,-4.0151,-4.0779,-4.0666,-4.0481,-4.0479,-4.1329,-4.2155,-4.2877,-4.3309,-4.3644,-4.4251,-4.4422,-4.4669,-4.5061,-4.5184,-4.5428,-4.5817,-4.5793,-4.5939,-4.6059,-4.618,-4.618,-4.6301,-4.6301,-4.6301,-4.6301,-4.6301,-4.6301,-4.6301,-4.6301,-4.6301,0.0,0.0,0.0,-0.306,-0.4069,-0.5196,-0.6463,-0.7735,-0.9097,-1.081,-1.227,-1.3699,-1.4961,-1.5766,-1.6436,-1.7105,-1.7395,-1.7689,-1.8009,-1.8303,-1.8739,-1.9278,-1.9663,-2.002,-2.0568,-2.0684,-2.1148,-2.2314,-2.3107,-2.4109,-2.571,-2.7186,-2.8664,-3.0274,-3.0645,-3.0879,-3.0879,-3.0898,-3.0898,-3.0879,-3.0432,-3.0238,-3.018,-2.9251,-2.8957,-2.8906,-2.8476,-2.8301,-2.8301,-2.8301,-2.8301,-2.8301,-2.8301,-2.8301,-2.834,-2.8769,-2.8926,-2.9062,-2.9902,-3.0215,-3.0293,-3.107,-3.1325,-3.1325,-3.1672,-3.1556,-3.1325,-3.1325,-3.1407,-3.1621,-3.207,-3.3287,-3.4548,-3.517,-3.5644,-3.6013,-3.6258,-3.7812,-3.9098,-3.9098,-3.8684,-3.843,-3.9098,-3.9152,-3.8828,-3.7626,-3.956,-4.1197,-4.1194,-4.2381,-4.3153,-4.3279,-4.3529,-4.3678,-4.3802,-4.4051,-4.4422,-4.4792,-4.4792,-4.5061,-4.5696,-4.5817,-4.5939,-4.6301,-4.6301,-4.6301,-4.6301,-4.6301,-4.6301,-4.6301,-4.6301,-4.6301,-0.0617,0.0,0.0,0.0,0.0,0.0,-0.5203,-0.6511,-0.7964,-0.9523,-1.0949,-1.2373,-1.3959,-1.47,-1.5317,-1.6175,-1.6804,-1.7569,-1.829,-1.8437,-1.8762,-1.9334,-1.9523,-1.9631,-2.002,-2.002,-2.0396,-2.1148,-2.1965,-2.3156,-2.4553,-2.6987,-2.8719,-2.9667,-3.0039,-3.0176,-3.0176,-3.0392,-3.049,-3.0568,-3.0587,-3.0509,-3.0215,-2.9636,-2.9223,-2.8906,-2.8476,-2.8301,-2.8301,-2.8301,-2.8301,-2.8301,-2.8301,-2.8301,-2.834,-2.8769,-2.9121,-2.9473,-3.0,-3.041,-3.0723,-3.0956,-3.0995,-3.0995,-3.1112,-3.1112,-3.0995,-3.0995,-3.1309,-3.168,-3.2441,-3.3381,-3.4047,-3.4298,-3.4797,-3.5149,-3.5294,-3.5767,-3.6359,-3.7089,-3.6881,-3.6596,-3.6967,-3.7097,-3.7245,-3.7198,-3.7819,-3.8465,-3.8933,-3.9823,-4.0581,-4.0968,-4.1097,-4.1633,-4.2673,-4.2799,-4.3028,-4.3654,-4.3927,-4.4299,-4.4693,-4.4939,-4.5306,-4.5939,-4.5939,-4.6059,-4.6301,-4.6301,-4.6301,-4.6301,-4.6301,-4.6301,-0.0324,-0.0647,-0.1097,-0.1665,0.0,0.0,-0.4149,-0.5339,-0.6698,-0.8143,-0.9461,-1.0823,-1.2436,-1.3136,-1.3777,-1.4757,-1.5539,-1.6455,-1.7592,-1.8079,-1.8467,-1.9021,-1.9229,-1.9488,-1.9631,-1.9631,-1.9877,-2.0294,-2.1137,-2.2539,-2.447,-2.6641,-2.8122,-2.8838,-2.9331,-2.9568,-2.9568,-2.9686,-2.9766,-2.9808,-3.0081,-3.0083,-2.9834,-2.9517,-2.9238,-2.8939,-2.8447,-2.8301,-2.8301,-2.8301,-2.8301,-2.8301,-2.8301,-2.8398,-2.8613,-2.9043,-2.9473,-2.9902,-3.0332,-3.0664,-3.0898,-3.0898,-3.0898,-3.0898,-3.0898,-3.0898,-3.0918,-3.1094,-3.1582,-3.2207,-3.2891,-3.3368,-3.367,-3.367,-3.4047,-3.4298,-3.4298,-3.4298,-3.4548,-3.552,-3.5541,-3.5294,-3.5294,-3.5624,-3.5983,-3.6609,-3.6944,-3.7348,-3.7729,-3.8374,-3.8904,-3.9277,-3.943,-3.9953,-4.0732,-4.0862,-4.1248,-4.1993,-4.212,-4.265,-4.3428,-4.3802,-4.4299,-4.4939,-4.5061,-4.5306,-4.5671,-4.6059,-4.6301,-4.6301,-4.6301,-4.6301,-0.004,-0.0369,-0.0679,-0.1141,-0.1759,0.0,-0.3305,-0.4256,-0.5352,-0.668,-0.7888,-0.9136,-1.058,-1.1234,-1.1863,-1.2989,-1.3583,-1.4594,-1.6453,-1.7469,-1.8138,-1.8506,-1.8971,-1.9359,-1.9372,-1.9372,-1.9502,-1.9761,-2.0635,-2.2282,-2.4731,-2.6017,-2.7021,-2.7659,-2.8379,-2.8618,-2.8618,-2.8737,-2.8801,-2.8828,-2.9046,-2.9238,-2.9268,-2.9013,-2.8949,-2.8971,-2.8455,-2.8174,-2.8301,-2.8301,-2.8281,-2.8301,-2.834,-2.8594,-2.8984,-2.9453,-2.9883,-3.0273,-3.0723,-3.0898,-3.0898,-3.0898,-3.0898,-3.0898,-3.0898,-3.0898,-3.0996,-3.1465,-3.2168,-3.2891,-3.332,-3.3418,-3.3418,-3.3418,-3.3418,-3.3418,-3.3418,-3.3418,-3.367,-3.4548,-3.4463,-3.4253,-3.4127,-3.4566,-3.5132,-3.582,-3.6654,-3.7213,-3.7213,-3.7595,-3.7842,-3.7975,-3.8262,-3.8549,-3.8549,-3.8793,-3.9299,-3.9932,-4.0062,-4.0603,-4.1911,-4.227,-4.2902,-4.3678,-4.4051,-4.4299,-4.4669,-4.5671,-4.618,-4.618,-4.618,-4.618,0.0329,-0.0086,-0.0488,-0.0752,-0.1225,0.0,-0.249,-0.339,-0.4391,-0.541,-0.6618,-0.7764,-0.8756,-0.9374,-0.9993,-1.061,-1.1342,-1.2929,-1.5801,-1.6889,-1.7611,-1.8455,-1.8829,-1.91,-1.9359,-1.9372,-1.9372,-1.9488,-2.0502,-2.1833,-2.3444,-2.4546,-2.5439,-2.6067,-2.6432,-2.6675,-2.6675,-2.7142,-2.7383,-2.7349,-2.7949,-2.8444,-2.8719,-2.8192,-2.8182,-2.8295,-2.7801,-2.7745,-2.796,-2.796,-2.8067,-2.832,-2.8672,-2.8848,-2.9004,-2.9785,-3.0137,-3.0273,-3.0723,-3.0898,-3.0898,-3.0898,-3.0898,-3.0898,-3.0898,-3.0898,-3.1055,-3.1816,-3.2402,-3.2891,-3.332,-3.3418,-3.3418,-3.3418,-3.3418,-3.3418,-3.3418,-3.3418,-3.3418,-3.367,-3.369,-3.3662,-3.4015,-3.4328,-3.4648,-3.541,-3.5936,-3.6287,-3.6287,-3.6423,-3.6539,-3.6789,-3.6924,-3.7193,-3.775,-3.7883,-3.8129,-3.8507,-3.8793,-3.932,-4.0214,-4.0473,-4.1248,-4.2546,-4.3153,-4.3529,-4.3654,-4.4546,-4.5184,-4.5453,-4.5453,-4.5453,0.069,0.0376,0.0048,-0.038,-0.0773,0.0,0.0,-0.2628,-0.3566,-0.432,-0.5223,-0.6193,-0.7016,-0.7434,-0.7861,-0.8569,-0.9397,-1.0736,-1.2872,-1.4792,-1.6245,-1.6931,-1.7843,-1.8442,-1.8713,-1.8842,-1.91,-1.9359,-2.0233,-2.1286,-2.2364,-2.3301,-2.4085,-2.4595,-2.4949,-2.5071,-2.5071,-2.5423,-2.5546,-2.5546,-2.6277,-2.6779,-2.7004,-2.6836,-2.7061,-2.7482,-2.7013,-2.6989,-2.7422,-2.7422,-2.7771,-2.8199,-2.8719,-2.9043,-2.9316,-2.9961,-3.0351,-3.0586,-3.082,-3.0898,-3.0898,-3.0898,-3.0898,-3.0898,-3.0898,-3.1191,-3.1621,-3.2051,-3.2617,-3.3164,-3.3359,-3.3418,-3.3418,-3.3418,-3.3418,-3.3418,-3.3418,-3.3418,-3.3418,-3.3418,-3.3594,-3.3809,-3.4043,-3.4316,-3.4707,-3.5293,-3.5742,-3.6016,-3.6016,-3.6016,-3.6016,-3.6268,-3.6268,-3.6403,-3.6829,-3.6829,-3.6944,-3.7327,-3.7461,-3.7863,-3.866,-3.9035,-3.9692,-4.0732,-4.1097,-4.1482,-4.1738,-4.2247,-4.313,-4.4299,-4.4446,-4.457,0.1233,0.0922,0.0664,0.0103,-0.0297,-0.0617,0.0,0.0,0.0,-0.3386,-0.4003,-0.4644,-0.5346,-0.5552,-0.5896,-0.6775,-0.7625,-0.8457,-0.942,-1.1879,-1.3981,-1.5172,-1.6478,-1.7387,-1.7742,-1.8122,-1.8503,-1.9025,-1.9555,-2.0383,-2.1241,-2.2291,-2.2923,-2.3355,-2.3589,-2.3698,-2.3698,-2.3837,-2.3822,-2.3822,-2.4456,-2.4949,-2.5301,-2.5426,-2.5792,-2.6336,-2.5887,-2.599,-2.6554,-2.6554,-2.7012,-2.7826,-2.8564,-2.9205,-2.9634,-3.0062,-3.0566,-3.0898,-3.0898,-3.0898,-3.0898,-3.0898,-3.0898,-3.0898,-3.0996,-3.1543,-3.2187,-3.2266,-3.2832,-3.3418,-3.3418,-3.3418,-3.3418,-3.3418,-3.3418,-3.3418,-3.3418,-3.3418,-3.3418,-3.3418,-3.3769,-3.4101,-3.418,-3.4551,-3.498,-3.5449,-3.5801,-3.6016,-3.6016,-3.6016,-3.6016,-3.6016,-3.6016,-3.6016,-3.6016,-3.6016,-3.6152,-3.6384,-3.6384,-3.6654,-3.7348,-3.7729,-3.8242,-3.8904,-3.8904,-3.9299,-3.9801,-3.9801,-4.0839,-4.2902,-4.3153,-4.3302,0.2196,0.1571,0.1013,0.0936,0.0515,-0.0047,-0.0545,0.0,-0.1441,-0.2307,0.0,-0.3442,-0.4012,0.0,0.0,-0.5075,-0.5712,-0.6364,-0.6961,-0.8269,-1.0299,-1.3657,-1.4941,-1.5887,-1.6599,-1.7064,-1.7423,-1.7782,-1.8407,-1.914,-2.0089,-2.0887,-2.1714,-2.223,-2.2355,-2.2355,-2.2355,-2.2606,-2.2731,-2.2731,-2.3106,-2.3604,-2.4209,-2.3878,-2.4156,-2.4711,-2.4315,-2.4428,-2.5,-2.5,-2.5781,-2.6955,-2.822,-2.9201,-2.9852,-3.0277,-3.0587,-3.0898,-3.0898,-3.0898,-3.0898,-3.0898,-3.0898,-3.0957,-3.1328,-3.1777,-3.2246,-3.2617,-3.3066,-3.3418,-3.3418,-3.3418,-3.3418,-3.3418,-3.3418,-3.3418,-3.3418,-3.3418,-3.3418,-3.3418,-3.3769,-3.4199,-3.457,-3.5019,-3.5469,-3.5879,-3.5996,-3.6016,-3.6016,-3.6016,-3.6016,-3.6016,-3.6016,-3.6016,-3.6016,-3.6016,-3.6016,-3.6016,-3.6016,-3.6268,-3.6654,-3.7348,-3.775,-3.775,-3.8129,-3.8242,-3.8374,-3.8374,-3.9408,-4.1505,-4.1527,-4.1783,0.3023,0.2427,0.1916,0.1401,0.0931,0.0468,-0.0044,-0.0511,-0.1006,-0.1368,0.0,0.0,0.0,0.0,0.0,0.0,-0.4572,-0.5188,-0.5631,-0.6475,-0.8052,-1.0847,-1.2238,-1.3389,-1.4545,-1.5083,-1.5635,-1.6341,-1.7275,-1.8216,-1.9063,-2.0253,-2.0983,-2.123,-2.1393,-2.1488,-2.1488,-2.1614,-2.174,-2.174,-2.2104,-2.248,-2.2966,-2.2554,-2.2855,-2.3402,-2.2819,-2.2974,-2.376,-2.376,-2.4557,-2.5783,-2.6531,-2.7755,-2.9354,-2.9887,-3.0274,-3.0645,-3.0879,-3.0898,-3.0898,-3.0898,-3.1055,-3.1289,-3.1465,-3.1992,-3.2559,-3.2734,-3.3105,-3.3418,-3.3418,-3.3418,-3.3418,-3.3418,-3.3418,-3.3418,-3.3418,-3.3418,-3.3496,-3.375,-3.4141,-3.457,-3.5019,-3.5273,-3.5527,-3.5957,-3.6016,-3.6016,-3.6016,-3.6016,-3.6016,-3.6016,-3.6016,-3.6016,-3.6016,-3.6016,-3.6016,-3.6016,-3.6016,-3.6016,-3.6132,-3.6539,-3.6694,-3.6694,-3.6809,-3.6924,-3.7173,-3.7173,-3.7709,-3.8904,-3.9713,-4.0127,0.4007,0.3479,0.2911,0.2192,0.149,0.089,0.0531,-0.0084,-0.0608,-0.0691,-0.1157,0.0,0.0,0.0,-0.2783,-0.329,0.0,-0.4174,-0.4558,-0.5063,-0.6216,-0.8321,-0.9787,-1.1198,-1.2543,-1.3113,-1.3773,-1.4735,-1.6016,-1.7101,-1.7939,-1.9535,-2.0438,-2.0513,-2.0863,-2.1109,-2.1109,-2.1109,-2.1109,-2.1109,-2.1362,-2.1614,-2.1964,-2.1596,-2.1661,-2.2215,-2.1568,-2.1616,-2.2425,-2.2518,-2.3237,-2.4375,-2.4842,-2.6167,-2.7948,-2.8983,-2.9686,-3.0039,-3.0392,-3.0528,-3.0645,-3.0645,-3.0936,-3.1424,-3.154,-3.2085,-3.2812,-3.293,-3.3184,-3.3418,-3.3418,-3.3418,-3.3418,-3.3418,-3.3418,-3.3418,-3.3418,-3.3516,-3.3691,-3.4004,-3.4512,-3.5,-3.5332,-3.5488,-3.5664,-3.5976,-3.6016,-3.6016,-3.6016,-3.6016,-3.6016,-3.6016,-3.6016,-3.6016,-3.6016,-3.6016,-3.6016,-3.6016,-3.6016,-3.6016,-3.6016,-3.6016,-3.6016,-3.6016,-3.6016,-3.6152,-3.6384,-3.6384,-3.6539,-3.6809,-3.8017,-3.8681,0.5321,0.4686,0.4013,0.3538,0.2338,0.1238,0.1044,0.046,-0.0114,-0.0435,-0.0625,-0.1008,-0.1929,-0.2205,-0.2459,-0.2963,-0.3024,0.0,0.0,-0.3612,-0.453,-0.6607,-0.8345,-0.9708,-1.0697,-1.1362,-1.2041,-1.3009,-1.4483,-1.5714,-1.6781,-1.8722,-1.9916,-2.0219,-2.0816,-2.1109,-2.1109,-2.1109,-2.1109,-2.1109,-2.1109,-2.1235,-2.1587,-2.0985,-2.0953,-2.1152,-2.0653,-2.05,-2.0859,-2.1162,-2.1832,-2.2766,-2.3444,-2.4268,-2.5423,-2.7401,-2.8498,-2.9094,-2.9313,-2.9667,-2.9922,-2.9922,-3.0424,-3.1084,-3.1527,-3.2215,-3.2871,-3.3281,-3.3418,-3.3418,-3.3418,-3.3418,-3.3418,-3.3418,-3.3418,-3.3418,-3.3418,-3.375,-3.4062,-3.4082,-3.4766,-3.5371,-3.5391,-3.5723,-3.5996,-3.6016,-3.6016,-3.6016,-3.6016,-3.6016,-3.6016,-3.6016,-3.6016,-3.6016,-3.6016,-3.6016,-3.6016,-3.6016,-3.6016,-3.6016,-3.6016,-3.6016,-3.6016,-3.6016,-3.6016,-3.6016,-3.6016,-3.6016,-3.6016,-3.6016,-3.6809,-3.7348,0.6096,0.5613,0.4973,0.4309,0.3227,0.2045,0.12,0.0605,0.0135,-0.0049,-0.0514,-0.0901,-0.1166,-0.1486,-0.1759,-0.2032,-0.2243,-0.2438,0.0,-0.2976,-0.3677,-0.4642,0.0,0.0,0.0,-0.9034,-1.0161,-1.1477,-1.3196,-1.4945,-1.6451,-1.8183,-1.9522,-2.0133,-2.0637,-2.0909,-2.1109,-2.1109,-2.1109,-2.1109,-2.1109,-2.1015,-2.0926,-2.0537,-2.0361,-2.0278,-1.9883,-1.9932,-2.0461,-2.0572,-2.1146,-2.1976,-2.2457,-2.3059,-2.4085,-2.6172,-2.7263,-2.7744,-2.8343,-2.8719,-2.9012,-2.9269,-2.9999,-3.0917,-3.1598,-3.2267,-3.2991,-3.3253,-3.3418,-3.3418,-3.3418,-3.3418,-3.3418,-3.3418,-3.3418,-3.3496,-3.3789,-3.3965,-3.4238,-3.4824,-3.5195,-3.5488,-3.5762,-3.5918,-3.6016,-3.6016,-3.6016,-3.6016,-3.6016,-3.6016,-3.6016,-3.6016,-3.6016,-3.6016,-3.6016,-3.6016,-3.6016,-3.6016,-3.6016,-3.6016,-3.6016,-3.6016,-3.6016,-3.6016,-3.6016,-3.6016,-3.6016,-3.6016,-3.6016,-3.6016,-3.6287,-3.6539,0.6867,0.6479,0.5896,0.5208,0.4193,0.2997,0.1824,0.1118,0.0655,0.0468,0.0119,-0.0302,-0.0616,-0.0897,-0.119,-0.1462,-0.1621,-0.1776,0.0,-0.2521,-0.3006,0.0,0.0,0.0,0.0,0.0,-0.8754,-1.0293,-1.2343,-1.4203,-1.567,-1.7595,-1.8853,-1.9391,-1.9811,-2.0275,-2.0552,-2.0552,-2.0658,-2.0856,-2.0876,-2.073,-2.0668,-2.0267,-1.9973,-1.9786,-1.9492,-1.965,-2.0155,-2.0264,-2.0711,-2.1286,-2.1768,-2.2185,-2.2856,-2.4687,-2.579,-2.6415,-2.6762,-2.7349,-2.7887,-2.8254,-2.9189,-3.0299,-3.0825,-3.1701,-3.2403,-3.2785,-3.2912,-3.2912,-3.3165,-3.3165,-3.3292,-3.3418,-3.3535,-3.373,-3.4004,-3.4316,-3.4707,-3.5293,-3.5508,-3.5703,-3.5976,-3.6016,-3.6016,-3.6016,-3.6016,-3.6016,-3.6016,-3.6016,-3.6016,-3.6016,-3.6016,-3.6016,-3.6016,-3.6016,-3.6016,-3.6016,-3.6016,-3.6016,-3.6016,-3.6016,-3.6016,-3.6016,-3.6016,-3.6016,-3.6016,-3.6016,-3.6016,-3.6016,-3.6016,-3.6152]}]]